<?xml version="1.0" encoding="UTF-8" standalone="no" ?>
<gpx xmlns="http://www.topografix.com/GPX/1/1" xmlns:xsi="http://www.w3.org/2001/XMLSchema-instance" xsi:schemaLocation="http://www.topografix.com/GPX/1/1 http://www.topografix.com/GPX/1/1/gpx.xsd" version="1.1" creator="VisuGPX - https://www.visugpx.com">
  <metadata>
    <name>Groupe musclés sortie Montagne Les Andélys</name>
    <desc><![CDATA[Portage en montée et en descente]]></desc>
  </metadata>
  <trk>
    <name><![CDATA[Actuel: 30 MAR 2014 09:30]]></name>
    <trkseg>
      <trkpt lat="49.24671" lon="1.42216">
        <ele>29.13</ele>
        <time>2014-03-30T07:30:06Z</time>
      </trkpt>
      <trkpt lat="49.24658" lon="1.42231">
        <ele>29.53</ele>
        <time>2014-03-30T07:30:13Z</time>
      </trkpt>
      <trkpt lat="49.24646" lon="1.42237">
        <ele>29.96</ele>
        <time>2014-03-30T07:30:18Z</time>
      </trkpt>
      <trkpt lat="49.24629" lon="1.42245">
        <ele>30.4</ele>
        <time>2014-03-30T07:30:24Z</time>
      </trkpt>
      <trkpt lat="49.246" lon="1.42261">
        <ele>31.62</ele>
        <time>2014-03-30T07:30:32Z</time>
      </trkpt>
      <trkpt lat="49.24572" lon="1.42275">
        <ele>33.02</ele>
        <time>2014-03-30T07:30:39Z</time>
      </trkpt>
      <trkpt lat="49.24545" lon="1.42292">
        <ele>34.64</ele>
        <time>2014-03-30T07:30:47Z</time>
      </trkpt>
      <trkpt lat="49.2454" lon="1.42312">
        <ele>35.71</ele>
        <time>2014-03-30T07:30:51Z</time>
      </trkpt>
      <trkpt lat="49.2454" lon="1.42349">
        <ele>36.14</ele>
        <time>2014-03-30T07:30:58Z</time>
      </trkpt>
      <trkpt lat="49.24545" lon="1.42379">
        <ele>36.78</ele>
        <time>2014-03-30T07:31:05Z</time>
      </trkpt>
      <trkpt lat="49.24552" lon="1.42425">
        <ele>37.66</ele>
        <time>2014-03-30T07:31:13Z</time>
      </trkpt>
      <trkpt lat="49.24558" lon="1.42477">
        <ele>38.76</ele>
        <time>2014-03-30T07:31:22Z</time>
      </trkpt>
      <trkpt lat="49.2456" lon="1.42513">
        <ele>39.34</ele>
        <time>2014-03-30T07:31:28Z</time>
      </trkpt>
      <trkpt lat="49.24556" lon="1.42552">
        <ele>39.79</ele>
        <time>2014-03-30T07:31:34Z</time>
      </trkpt>
      <trkpt lat="49.24551" lon="1.42609">
        <ele>40.36</ele>
        <time>2014-03-30T07:31:43Z</time>
      </trkpt>
      <trkpt lat="49.24539" lon="1.42669">
        <ele>41.43</ele>
        <time>2014-03-30T07:31:53Z</time>
      </trkpt>
      <trkpt lat="49.24533" lon="1.42685">
        <ele>41.6</ele>
        <time>2014-03-30T07:31:56Z</time>
      </trkpt>
      <trkpt lat="49.2451" lon="1.4272">
        <ele>43.98</ele>
        <time>2014-03-30T07:32:05Z</time>
      </trkpt>
      <trkpt lat="49.24488" lon="1.42749">
        <ele>46.44</ele>
        <time>2014-03-30T07:32:14Z</time>
      </trkpt>
      <trkpt lat="49.2447" lon="1.42783">
        <ele>48.9</ele>
        <time>2014-03-30T07:32:25Z</time>
      </trkpt>
      <trkpt lat="49.24467" lon="1.42814">
        <ele>50.43</ele>
        <time>2014-03-30T07:32:34Z</time>
      </trkpt>
      <trkpt lat="49.24469" lon="1.42846">
        <ele>52.07</ele>
        <time>2014-03-30T07:32:42Z</time>
      </trkpt>
      <trkpt lat="49.24473" lon="1.42882">
        <ele>53.88</ele>
        <time>2014-03-30T07:32:51Z</time>
      </trkpt>
      <trkpt lat="49.24478" lon="1.42927">
        <ele>56.08</ele>
        <time>2014-03-30T07:33:02Z</time>
      </trkpt>
      <trkpt lat="49.24482" lon="1.42965">
        <ele>58.05</ele>
        <time>2014-03-30T07:33:12Z</time>
      </trkpt>
      <trkpt lat="49.24477" lon="1.43">
        <ele>59.96</ele>
        <time>2014-03-30T07:33:21Z</time>
      </trkpt>
      <trkpt lat="49.24465" lon="1.43018">
        <ele>61.69</ele>
        <time>2014-03-30T07:33:28Z</time>
      </trkpt>
      <trkpt lat="49.24445" lon="1.43025">
        <ele>63.29</ele>
        <time>2014-03-30T07:33:35Z</time>
      </trkpt>
      <trkpt lat="49.24426" lon="1.43016">
        <ele>65.32</ele>
        <time>2014-03-30T07:33:43Z</time>
      </trkpt>
      <trkpt lat="49.24416" lon="1.42995">
        <ele>66.99</ele>
        <time>2014-03-30T07:33:50Z</time>
      </trkpt>
      <trkpt lat="49.24405" lon="1.42967">
        <ele>68.74</ele>
        <time>2014-03-30T07:33:58Z</time>
      </trkpt>
      <trkpt lat="49.24397" lon="1.42939">
        <ele>70.6</ele>
        <time>2014-03-30T07:34:06Z</time>
      </trkpt>
      <trkpt lat="49.24386" lon="1.42913">
        <ele>72.11</ele>
        <time>2014-03-30T07:34:14Z</time>
      </trkpt>
      <trkpt lat="49.2437" lon="1.42885">
        <ele>74.1</ele>
        <time>2014-03-30T07:34:23Z</time>
      </trkpt>
      <trkpt lat="49.24354" lon="1.42865">
        <ele>75.73</ele>
        <time>2014-03-30T07:34:31Z</time>
      </trkpt>
      <trkpt lat="49.24332" lon="1.42842">
        <ele>77.74</ele>
        <time>2014-03-30T07:34:41Z</time>
      </trkpt>
      <trkpt lat="49.24313" lon="1.42821">
        <ele>79.88</ele>
        <time>2014-03-30T07:34:50Z</time>
      </trkpt>
      <trkpt lat="49.24294" lon="1.42803">
        <ele>82.17</ele>
        <time>2014-03-30T07:34:58Z</time>
      </trkpt>
      <trkpt lat="49.24277" lon="1.42795">
        <ele>83.75</ele>
        <time>2014-03-30T07:35:04Z</time>
      </trkpt>
      <trkpt lat="49.24258" lon="1.42795">
        <ele>85.26</ele>
        <time>2014-03-30T07:35:11Z</time>
      </trkpt>
      <trkpt lat="49.24237" lon="1.42797">
        <ele>86.72</ele>
        <time>2014-03-30T07:35:19Z</time>
      </trkpt>
      <trkpt lat="49.2422" lon="1.42799">
        <ele>88.3</ele>
        <time>2014-03-30T07:35:26Z</time>
      </trkpt>
      <trkpt lat="49.24196" lon="1.42804">
        <ele>90.07</ele>
        <time>2014-03-30T07:35:35Z</time>
      </trkpt>
      <trkpt lat="49.24171" lon="1.42809">
        <ele>92.39</ele>
        <time>2014-03-30T07:35:45Z</time>
      </trkpt>
      <trkpt lat="49.24144" lon="1.42812">
        <ele>94.31</ele>
        <time>2014-03-30T07:35:55Z</time>
      </trkpt>
      <trkpt lat="49.24126" lon="1.42805">
        <ele>96.05</ele>
        <time>2014-03-30T07:36:03Z</time>
      </trkpt>
      <trkpt lat="49.24109" lon="1.42778">
        <ele>98.23</ele>
        <time>2014-03-30T07:36:12Z</time>
      </trkpt>
      <trkpt lat="49.24097" lon="1.42752">
        <ele>99.92</ele>
        <time>2014-03-30T07:36:20Z</time>
      </trkpt>
      <trkpt lat="49.24082" lon="1.42723">
        <ele>101.72</ele>
        <time>2014-03-30T07:36:29Z</time>
      </trkpt>
      <trkpt lat="49.24071" lon="1.427">
        <ele>103.36</ele>
        <time>2014-03-30T07:36:36Z</time>
      </trkpt>
      <trkpt lat="49.24054" lon="1.42665">
        <ele>105.74</ele>
        <time>2014-03-30T07:36:47Z</time>
      </trkpt>
      <trkpt lat="49.24038" lon="1.42636">
        <ele>107.67</ele>
        <time>2014-03-30T07:36:56Z</time>
      </trkpt>
      <trkpt lat="49.24011" lon="1.42595">
        <ele>110.51</ele>
        <time>2014-03-30T07:37:10Z</time>
      </trkpt>
      <trkpt lat="49.23982" lon="1.42576">
        <ele>113.09</ele>
        <time>2014-03-30T07:37:22Z</time>
      </trkpt>
      <trkpt lat="49.23954" lon="1.42569">
        <ele>114.83</ele>
        <time>2014-03-30T07:37:33Z</time>
      </trkpt>
      <trkpt lat="49.23933" lon="1.42565">
        <ele>116.56</ele>
        <time>2014-03-30T07:37:42Z</time>
      </trkpt>
      <trkpt lat="49.23907" lon="1.4256">
        <ele>118.83</ele>
        <time>2014-03-30T07:37:53Z</time>
      </trkpt>
      <trkpt lat="49.23888" lon="1.42557">
        <ele>120.5</ele>
        <time>2014-03-30T07:38:01Z</time>
      </trkpt>
      <trkpt lat="49.23874" lon="1.42548">
        <ele>121.82</ele>
        <time>2014-03-30T07:38:08Z</time>
      </trkpt>
      <trkpt lat="49.23875" lon="1.42527">
        <ele>122.76</ele>
        <time>2014-03-30T07:38:14Z</time>
      </trkpt>
      <trkpt lat="49.2389" lon="1.42516">
        <ele>123.35</ele>
        <time>2014-03-30T07:38:20Z</time>
      </trkpt>
      <trkpt lat="49.23914" lon="1.42509">
        <ele>125.12</ele>
        <time>2014-03-30T07:38:29Z</time>
      </trkpt>
      <trkpt lat="49.23943" lon="1.42503">
        <ele>127.1</ele>
        <time>2014-03-30T07:38:40Z</time>
      </trkpt>
      <trkpt lat="49.23968" lon="1.42497">
        <ele>129.21</ele>
        <time>2014-03-30T07:38:50Z</time>
      </trkpt>
      <trkpt lat="49.23992" lon="1.42491">
        <ele>131.22</ele>
        <time>2014-03-30T07:38:59Z</time>
      </trkpt>
      <trkpt lat="49.24008" lon="1.42471">
        <ele>133.05</ele>
        <time>2014-03-30T07:39:07Z</time>
      </trkpt>
      <trkpt lat="49.24005" lon="1.42446">
        <ele>133.94</ele>
        <time>2014-03-30T07:39:13Z</time>
      </trkpt>
      <trkpt lat="49.23988" lon="1.42434">
        <ele>134.74</ele>
        <time>2014-03-30T07:39:19Z</time>
      </trkpt>
      <trkpt lat="49.23953" lon="1.42431">
        <ele>136.84</ele>
        <time>2014-03-30T07:39:31Z</time>
      </trkpt>
      <trkpt lat="49.23926" lon="1.42429">
        <ele>138.97</ele>
        <time>2014-03-30T07:39:41Z</time>
      </trkpt>
      <trkpt lat="49.239" lon="1.42427">
        <ele>140.94</ele>
        <time>2014-03-30T07:39:51Z</time>
      </trkpt>
      <trkpt lat="49.23878" lon="1.42423">
        <ele>142.71</ele>
        <time>2014-03-30T07:39:59Z</time>
      </trkpt>
      <trkpt lat="49.23853" lon="1.42419">
        <ele>144.69</ele>
        <time>2014-03-30T07:40:09Z</time>
      </trkpt>
      <trkpt lat="49.23829" lon="1.42416">
        <ele>146.46</ele>
        <time>2014-03-30T07:40:18Z</time>
      </trkpt>
      <trkpt lat="49.238" lon="1.42413">
        <ele>148.79</ele>
        <time>2014-03-30T07:40:29Z</time>
      </trkpt>
      <trkpt lat="49.23766" lon="1.42408">
        <ele>151.14</ele>
        <time>2014-03-30T07:40:40Z</time>
      </trkpt>
      <trkpt lat="49.23749" lon="1.42403">
        <ele>152.35</ele>
        <time>2014-03-30T07:40:47Z</time>
      </trkpt>
      <trkpt lat="49.23751" lon="1.42383">
        <ele>152.61</ele>
        <time>2014-03-30T07:40:52Z</time>
      </trkpt>
      <trkpt lat="49.23759" lon="1.42332">
        <ele>154.32</ele>
        <time>2014-03-30T07:41:02Z</time>
      </trkpt>
      <trkpt lat="49.2376" lon="1.42298">
        <ele>155.37</ele>
        <time>2014-03-30T07:41:10Z</time>
      </trkpt>
      <trkpt lat="49.23762" lon="1.42299">
        <ele>154.4</ele>
        <time>2014-03-30T07:41:21Z</time>
      </trkpt>
      <trkpt lat="49.23761" lon="1.42298">
        <ele>155.44</ele>
        <time>2014-03-30T07:41:31Z</time>
      </trkpt>
      <trkpt lat="49.23758" lon="1.42293">
        <ele>155.66</ele>
        <time>2014-03-30T07:41:35Z</time>
      </trkpt>
      <trkpt lat="49.23756" lon="1.42263">
        <ele>156.9</ele>
        <time>2014-03-30T07:41:42Z</time>
      </trkpt>
      <trkpt lat="49.23753" lon="1.42219">
        <ele>157.06</ele>
        <time>2014-03-30T07:41:50Z</time>
      </trkpt>
      <trkpt lat="49.23751" lon="1.42182">
        <ele>157.67</ele>
        <time>2014-03-30T07:41:57Z</time>
      </trkpt>
      <trkpt lat="49.23749" lon="1.42139">
        <ele>158.23</ele>
        <time>2014-03-30T07:42:04Z</time>
      </trkpt>
      <trkpt lat="49.23748" lon="1.42132">
        <ele>158.28</ele>
        <time>2014-03-30T07:42:05Z</time>
      </trkpt>
      <trkpt lat="49.23748" lon="1.42112">
        <ele>158.64</ele>
        <time>2014-03-30T07:42:08Z</time>
      </trkpt>
      <trkpt lat="49.23749" lon="1.42086">
        <ele>158.68</ele>
        <time>2014-03-30T07:42:12Z</time>
      </trkpt>
      <trkpt lat="49.23752" lon="1.42027">
        <ele>159.11</ele>
        <time>2014-03-30T07:42:21Z</time>
      </trkpt>
      <trkpt lat="49.23753" lon="1.41991">
        <ele>159.45</ele>
        <time>2014-03-30T07:42:27Z</time>
      </trkpt>
      <trkpt lat="49.2375" lon="1.41956">
        <ele>159.31</ele>
        <time>2014-03-30T07:42:33Z</time>
      </trkpt>
      <trkpt lat="49.2374" lon="1.41896">
        <ele>160.54</ele>
        <time>2014-03-30T07:42:41Z</time>
      </trkpt>
      <trkpt lat="49.23728" lon="1.41835">
        <ele>160.76</ele>
        <time>2014-03-30T07:42:49Z</time>
      </trkpt>
      <trkpt lat="49.23708" lon="1.41747">
        <ele>161.88</ele>
        <time>2014-03-30T07:43:00Z</time>
      </trkpt>
      <trkpt lat="49.23694" lon="1.41664">
        <ele>162.24</ele>
        <time>2014-03-30T07:43:10Z</time>
      </trkpt>
      <trkpt lat="49.23687" lon="1.41589">
        <ele>162.54</ele>
        <time>2014-03-30T07:43:19Z</time>
      </trkpt>
      <trkpt lat="49.23686" lon="1.4153">
        <ele>162.5</ele>
        <time>2014-03-30T07:43:26Z</time>
      </trkpt>
      <trkpt lat="49.23688" lon="1.4148">
        <ele>162.41</ele>
        <time>2014-03-30T07:43:32Z</time>
      </trkpt>
      <trkpt lat="49.23702" lon="1.41394">
        <ele>162.58</ele>
        <time>2014-03-30T07:43:42Z</time>
      </trkpt>
      <trkpt lat="49.2372" lon="1.41293">
        <ele>163.26</ele>
        <time>2014-03-30T07:43:54Z</time>
      </trkpt>
      <trkpt lat="49.23729" lon="1.41244">
        <ele>163.3</ele>
        <time>2014-03-30T07:44:00Z</time>
      </trkpt>
      <trkpt lat="49.23748" lon="1.41172">
        <ele>163.22</ele>
        <time>2014-03-30T07:44:09Z</time>
      </trkpt>
      <trkpt lat="49.23771" lon="1.41107">
        <ele>162.78</ele>
        <time>2014-03-30T07:44:18Z</time>
      </trkpt>
      <trkpt lat="49.23773" lon="1.41101">
        <ele>162.69</ele>
        <time>2014-03-30T07:44:19Z</time>
      </trkpt>
      <trkpt lat="49.23786" lon="1.41079">
        <ele>162.49</ele>
        <time>2014-03-30T07:44:24Z</time>
      </trkpt>
      <trkpt lat="49.23796" lon="1.41059">
        <ele>162.33</ele>
        <time>2014-03-30T07:44:30Z</time>
      </trkpt>
      <trkpt lat="49.2382" lon="1.41027">
        <ele>160.77</ele>
        <time>2014-03-30T07:44:38Z</time>
      </trkpt>
      <trkpt lat="49.23838" lon="1.41003">
        <ele>159.1</ele>
        <time>2014-03-30T07:44:43Z</time>
      </trkpt>
      <trkpt lat="49.2385" lon="1.40987">
        <ele>157.02</ele>
        <time>2014-03-30T07:44:46Z</time>
      </trkpt>
      <trkpt lat="49.23862" lon="1.4094">
        <ele>152.25</ele>
        <time>2014-03-30T07:44:51Z</time>
      </trkpt>
      <trkpt lat="49.2386" lon="1.40908">
        <ele>149.44</ele>
        <time>2014-03-30T07:44:54Z</time>
      </trkpt>
      <trkpt lat="49.23859" lon="1.40886">
        <ele>147.62</ele>
        <time>2014-03-30T07:44:56Z</time>
      </trkpt>
      <trkpt lat="49.2386" lon="1.40836">
        <ele>143.3</ele>
        <time>2014-03-30T07:45:00Z</time>
      </trkpt>
      <trkpt lat="49.23871" lon="1.40789">
        <ele>138.35</ele>
        <time>2014-03-30T07:45:04Z</time>
      </trkpt>
      <trkpt lat="49.23882" lon="1.40759">
        <ele>133.99</ele>
        <time>2014-03-30T07:45:07Z</time>
      </trkpt>
      <trkpt lat="49.23894" lon="1.40724">
        <ele>129.41</ele>
        <time>2014-03-30T07:45:11Z</time>
      </trkpt>
      <trkpt lat="49.23897" lon="1.40713">
        <ele>127.54</ele>
        <time>2014-03-30T07:45:14Z</time>
      </trkpt>
      <trkpt lat="49.23892" lon="1.4071">
        <ele>126.86</ele>
        <time>2014-03-30T07:45:18Z</time>
      </trkpt>
      <trkpt lat="49.23891" lon="1.40712">
        <ele>126.92</ele>
        <time>2014-03-30T07:45:19Z</time>
      </trkpt>
      <trkpt lat="49.23884" lon="1.40718">
        <ele>130.42</ele>
        <time>2014-03-30T07:45:27Z</time>
      </trkpt>
      <trkpt lat="49.23883" lon="1.40719">
        <ele>130.7</ele>
        <time>2014-03-30T07:45:28Z</time>
      </trkpt>
      <trkpt lat="49.23878" lon="1.40723">
        <ele>131.44</ele>
        <time>2014-03-30T07:45:35Z</time>
      </trkpt>
      <trkpt lat="49.2387" lon="1.40726">
        <ele>131.28</ele>
        <time>2014-03-30T07:45:39Z</time>
      </trkpt>
      <trkpt lat="49.23864" lon="1.4073">
        <ele>133.26</ele>
        <time>2014-03-30T07:45:47Z</time>
      </trkpt>
      <trkpt lat="49.23855" lon="1.40743">
        <ele>135.81</ele>
        <time>2014-03-30T07:45:57Z</time>
      </trkpt>
      <trkpt lat="49.23846" lon="1.40744">
        <ele>134.62</ele>
        <time>2014-03-30T07:46:01Z</time>
      </trkpt>
      <trkpt lat="49.23832" lon="1.4075">
        <ele>133.3</ele>
        <time>2014-03-30T07:46:06Z</time>
      </trkpt>
      <trkpt lat="49.23806" lon="1.40747">
        <ele>129.21</ele>
        <time>2014-03-30T07:46:13Z</time>
      </trkpt>
      <trkpt lat="49.23802" lon="1.40744">
        <ele>128.49</ele>
        <time>2014-03-30T07:46:14Z</time>
      </trkpt>
      <trkpt lat="49.23781" lon="1.40733">
        <ele>124.81</ele>
        <time>2014-03-30T07:46:18Z</time>
      </trkpt>
      <trkpt lat="49.23763" lon="1.40727">
        <ele>122.62</ele>
        <time>2014-03-30T07:46:22Z</time>
      </trkpt>
      <trkpt lat="49.23755" lon="1.40724">
        <ele>121.54</ele>
        <time>2014-03-30T07:46:24Z</time>
      </trkpt>
      <trkpt lat="49.23738" lon="1.4072">
        <ele>119.11</ele>
        <time>2014-03-30T07:46:28Z</time>
      </trkpt>
      <trkpt lat="49.23723" lon="1.40715">
        <ele>120.05</ele>
        <time>2014-03-30T07:46:34Z</time>
      </trkpt>
      <trkpt lat="49.23712" lon="1.40718">
        <ele>121.13</ele>
        <time>2014-03-30T07:46:41Z</time>
      </trkpt>
      <trkpt lat="49.23707" lon="1.40723">
        <ele>123.61</ele>
        <time>2014-03-30T07:46:47Z</time>
      </trkpt>
      <trkpt lat="49.23704" lon="1.40727">
        <ele>126.01</ele>
        <time>2014-03-30T07:46:54Z</time>
      </trkpt>
      <trkpt lat="49.23703" lon="1.4073">
        <ele>126.47</ele>
        <time>2014-03-30T07:47:00Z</time>
      </trkpt>
      <trkpt lat="49.23705" lon="1.40727">
        <ele>125.14</ele>
        <time>2014-03-30T07:47:10Z</time>
      </trkpt>
      <trkpt lat="49.23713" lon="1.40711">
        <ele>121.87</ele>
        <time>2014-03-30T07:47:14Z</time>
      </trkpt>
      <trkpt lat="49.23722" lon="1.40712">
        <ele>120.14</ele>
        <time>2014-03-30T07:47:17Z</time>
      </trkpt>
      <trkpt lat="49.2373" lon="1.40715">
        <ele>119.65</ele>
        <time>2014-03-30T07:47:20Z</time>
      </trkpt>
      <trkpt lat="49.23737" lon="1.407">
        <ele>118.02</ele>
        <time>2014-03-30T07:47:25Z</time>
      </trkpt>
      <trkpt lat="49.23745" lon="1.40681">
        <ele>113.48</ele>
        <time>2014-03-30T07:47:28Z</time>
      </trkpt>
      <trkpt lat="49.23748" lon="1.40665">
        <ele>110.09</ele>
        <time>2014-03-30T07:47:32Z</time>
      </trkpt>
      <trkpt lat="49.23749" lon="1.40663">
        <ele>109.37</ele>
        <time>2014-03-30T07:47:34Z</time>
      </trkpt>
      <trkpt lat="49.23748" lon="1.4066">
        <ele>109.3</ele>
        <time>2014-03-30T07:47:41Z</time>
      </trkpt>
      <trkpt lat="49.23741" lon="1.40656">
        <ele>109.39</ele>
        <time>2014-03-30T07:47:51Z</time>
      </trkpt>
      <trkpt lat="49.23739" lon="1.40654">
        <ele>109.68</ele>
        <time>2014-03-30T07:47:53Z</time>
      </trkpt>
      <trkpt lat="49.23738" lon="1.40636">
        <ele>109.48</ele>
        <time>2014-03-30T07:48:00Z</time>
      </trkpt>
      <trkpt lat="49.23744" lon="1.40634">
        <ele>107.21</ele>
        <time>2014-03-30T07:48:05Z</time>
      </trkpt>
      <trkpt lat="49.23756" lon="1.40644">
        <ele>104.86</ele>
        <time>2014-03-30T07:48:09Z</time>
      </trkpt>
      <trkpt lat="49.23754" lon="1.40635">
        <ele>103.51</ele>
        <time>2014-03-30T07:48:12Z</time>
      </trkpt>
      <trkpt lat="49.23752" lon="1.4063">
        <ele>103.08</ele>
        <time>2014-03-30T07:48:13Z</time>
      </trkpt>
      <trkpt lat="49.23748" lon="1.40618">
        <ele>102.64</ele>
        <time>2014-03-30T07:48:15Z</time>
      </trkpt>
      <trkpt lat="49.23749" lon="1.4058">
        <ele>102.5</ele>
        <time>2014-03-30T07:48:22Z</time>
      </trkpt>
      <trkpt lat="49.23748" lon="1.40548">
        <ele>104.6</ele>
        <time>2014-03-30T07:48:30Z</time>
      </trkpt>
      <trkpt lat="49.2375" lon="1.40519">
        <ele>105.41</ele>
        <time>2014-03-30T07:48:37Z</time>
      </trkpt>
      <trkpt lat="49.23755" lon="1.40491">
        <ele>105.21</ele>
        <time>2014-03-30T07:48:44Z</time>
      </trkpt>
      <trkpt lat="49.23754" lon="1.40477">
        <ele>105.39</ele>
        <time>2014-03-30T07:48:50Z</time>
      </trkpt>
      <trkpt lat="49.23754" lon="1.40472">
        <ele>105.31</ele>
        <time>2014-03-30T07:48:51Z</time>
      </trkpt>
      <trkpt lat="49.23742" lon="1.40458">
        <ele>105.59</ele>
        <time>2014-03-30T07:48:58Z</time>
      </trkpt>
      <trkpt lat="49.23738" lon="1.40448">
        <ele>104.65</ele>
        <time>2014-03-30T07:49:00Z</time>
      </trkpt>
      <trkpt lat="49.23734" lon="1.40419">
        <ele>101.84</ele>
        <time>2014-03-30T07:49:05Z</time>
      </trkpt>
      <trkpt lat="49.23736" lon="1.4039">
        <ele>97.93</ele>
        <time>2014-03-30T07:49:09Z</time>
      </trkpt>
      <trkpt lat="49.23738" lon="1.40372">
        <ele>95.98</ele>
        <time>2014-03-30T07:49:11Z</time>
      </trkpt>
      <trkpt lat="49.23746" lon="1.40355">
        <ele>92.17</ele>
        <time>2014-03-30T07:49:15Z</time>
      </trkpt>
      <trkpt lat="49.23753" lon="1.4035">
        <ele>90.05</ele>
        <time>2014-03-30T07:49:18Z</time>
      </trkpt>
      <trkpt lat="49.23757" lon="1.40344">
        <ele>89.29</ele>
        <time>2014-03-30T07:49:20Z</time>
      </trkpt>
      <trkpt lat="49.23765" lon="1.40346">
        <ele>90.31</ele>
        <time>2014-03-30T07:49:26Z</time>
      </trkpt>
      <trkpt lat="49.23769" lon="1.40351">
        <ele>91.51</ele>
        <time>2014-03-30T07:49:35Z</time>
      </trkpt>
      <trkpt lat="49.2377" lon="1.40353">
        <ele>91.9</ele>
        <time>2014-03-30T07:49:52Z</time>
      </trkpt>
      <trkpt lat="49.23779" lon="1.40354">
        <ele>94.74</ele>
        <time>2014-03-30T07:50:05Z</time>
      </trkpt>
      <trkpt lat="49.23785" lon="1.40354">
        <ele>96.47</ele>
        <time>2014-03-30T07:50:14Z</time>
      </trkpt>
      <trkpt lat="49.23787" lon="1.40353">
        <ele>96.98</ele>
        <time>2014-03-30T07:50:23Z</time>
      </trkpt>
      <trkpt lat="49.23786" lon="1.40351">
        <ele>97.28</ele>
        <time>2014-03-30T07:50:25Z</time>
      </trkpt>
      <trkpt lat="49.23786" lon="1.40341">
        <ele>98.28</ele>
        <time>2014-03-30T07:50:29Z</time>
      </trkpt>
      <trkpt lat="49.23798" lon="1.40337">
        <ele>99.65</ele>
        <time>2014-03-30T07:50:35Z</time>
      </trkpt>
      <trkpt lat="49.23816" lon="1.40332">
        <ele>99.3</ele>
        <time>2014-03-30T07:50:40Z</time>
      </trkpt>
      <trkpt lat="49.23835" lon="1.40309">
        <ele>97.79</ele>
        <time>2014-03-30T07:50:46Z</time>
      </trkpt>
      <trkpt lat="49.23843" lon="1.40292">
        <ele>96.81</ele>
        <time>2014-03-30T07:50:48Z</time>
      </trkpt>
      <trkpt lat="49.23851" lon="1.40266">
        <ele>95.35</ele>
        <time>2014-03-30T07:50:51Z</time>
      </trkpt>
      <trkpt lat="49.23852" lon="1.40255">
        <ele>94.55</ele>
        <time>2014-03-30T07:50:55Z</time>
      </trkpt>
      <trkpt lat="49.23857" lon="1.40254">
        <ele>93.23</ele>
        <time>2014-03-30T07:50:57Z</time>
      </trkpt>
      <trkpt lat="49.23863" lon="1.40256">
        <ele>91.8</ele>
        <time>2014-03-30T07:50:59Z</time>
      </trkpt>
      <trkpt lat="49.2387" lon="1.40248">
        <ele>88.95</ele>
        <time>2014-03-30T07:51:03Z</time>
      </trkpt>
      <trkpt lat="49.23873" lon="1.40242">
        <ele>87.89</ele>
        <time>2014-03-30T07:51:05Z</time>
      </trkpt>
      <trkpt lat="49.23882" lon="1.40245">
        <ele>85.53</ele>
        <time>2014-03-30T07:51:09Z</time>
      </trkpt>
      <trkpt lat="49.23885" lon="1.40273">
        <ele>81.16</ele>
        <time>2014-03-30T07:51:15Z</time>
      </trkpt>
      <trkpt lat="49.23895" lon="1.40279">
        <ele>79.04</ele>
        <time>2014-03-30T07:51:19Z</time>
      </trkpt>
      <trkpt lat="49.23913" lon="1.40262">
        <ele>74.78</ele>
        <time>2014-03-30T07:51:24Z</time>
      </trkpt>
      <trkpt lat="49.23918" lon="1.40257">
        <ele>72.72</ele>
        <time>2014-03-30T07:51:26Z</time>
      </trkpt>
      <trkpt lat="49.23932" lon="1.40238">
        <ele>67.42</ele>
        <time>2014-03-30T07:51:30Z</time>
      </trkpt>
      <trkpt lat="49.23945" lon="1.40222">
        <ele>62.64</ele>
        <time>2014-03-30T07:51:34Z</time>
      </trkpt>
      <trkpt lat="49.23949" lon="1.40214">
        <ele>59.6</ele>
        <time>2014-03-30T07:51:36Z</time>
      </trkpt>
      <trkpt lat="49.23951" lon="1.40198">
        <ele>56.39</ele>
        <time>2014-03-30T07:51:39Z</time>
      </trkpt>
      <trkpt lat="49.23951" lon="1.4019">
        <ele>53.26</ele>
        <time>2014-03-30T07:51:42Z</time>
      </trkpt>
      <trkpt lat="49.23962" lon="1.40202">
        <ele>50.94</ele>
        <time>2014-03-30T07:51:46Z</time>
      </trkpt>
      <trkpt lat="49.23971" lon="1.40233">
        <ele>48.17</ele>
        <time>2014-03-30T07:51:50Z</time>
      </trkpt>
      <trkpt lat="49.23964" lon="1.40264">
        <ele>45.64</ele>
        <time>2014-03-30T07:51:54Z</time>
      </trkpt>
      <trkpt lat="49.23946" lon="1.40286">
        <ele>48.89</ele>
        <time>2014-03-30T07:52:02Z</time>
      </trkpt>
      <trkpt lat="49.23932" lon="1.40301">
        <ele>51.23</ele>
        <time>2014-03-30T07:52:10Z</time>
      </trkpt>
      <trkpt lat="49.23923" lon="1.40314">
        <ele>53.01</ele>
        <time>2014-03-30T07:52:16Z</time>
      </trkpt>
      <trkpt lat="49.23915" lon="1.40327">
        <ele>55.37</ele>
        <time>2014-03-30T07:52:24Z</time>
      </trkpt>
      <trkpt lat="49.23909" lon="1.40338">
        <ele>57</ele>
        <time>2014-03-30T07:52:30Z</time>
      </trkpt>
      <trkpt lat="49.23901" lon="1.40351">
        <ele>59.9</ele>
        <time>2014-03-30T07:52:39Z</time>
      </trkpt>
      <trkpt lat="49.23896" lon="1.4036">
        <ele>61.24</ele>
        <time>2014-03-30T07:52:44Z</time>
      </trkpt>
      <trkpt lat="49.23892" lon="1.40369">
        <ele>62.62</ele>
        <time>2014-03-30T07:52:49Z</time>
      </trkpt>
      <trkpt lat="49.23885" lon="1.4038">
        <ele>64.97</ele>
        <time>2014-03-30T07:52:57Z</time>
      </trkpt>
      <trkpt lat="49.23876" lon="1.40397">
        <ele>67.71</ele>
        <time>2014-03-30T07:53:07Z</time>
      </trkpt>
      <trkpt lat="49.23872" lon="1.40404">
        <ele>68.85</ele>
        <time>2014-03-30T07:53:11Z</time>
      </trkpt>
      <trkpt lat="49.23857" lon="1.40422">
        <ele>71.33</ele>
        <time>2014-03-30T07:53:21Z</time>
      </trkpt>
      <trkpt lat="49.23848" lon="1.40438">
        <ele>73.29</ele>
        <time>2014-03-30T07:53:30Z</time>
      </trkpt>
      <trkpt lat="49.23841" lon="1.4045">
        <ele>75.01</ele>
        <time>2014-03-30T07:53:37Z</time>
      </trkpt>
      <trkpt lat="49.23833" lon="1.40464">
        <ele>76.86</ele>
        <time>2014-03-30T07:53:45Z</time>
      </trkpt>
      <trkpt lat="49.23824" lon="1.4048">
        <ele>78.95</ele>
        <time>2014-03-30T07:53:54Z</time>
      </trkpt>
      <trkpt lat="49.23817" lon="1.40493">
        <ele>80.81</ele>
        <time>2014-03-30T07:54:01Z</time>
      </trkpt>
      <trkpt lat="49.23812" lon="1.40504">
        <ele>82.41</ele>
        <time>2014-03-30T07:54:07Z</time>
      </trkpt>
      <trkpt lat="49.23802" lon="1.40523">
        <ele>84.88</ele>
        <time>2014-03-30T07:54:16Z</time>
      </trkpt>
      <trkpt lat="49.23795" lon="1.40536">
        <ele>87.19</ele>
        <time>2014-03-30T07:54:24Z</time>
      </trkpt>
      <trkpt lat="49.23784" lon="1.4055">
        <ele>89.54</ele>
        <time>2014-03-30T07:54:33Z</time>
      </trkpt>
      <trkpt lat="49.23775" lon="1.40564">
        <ele>91.93</ele>
        <time>2014-03-30T07:54:41Z</time>
      </trkpt>
      <trkpt lat="49.23768" lon="1.40581">
        <ele>94.36</ele>
        <time>2014-03-30T07:54:50Z</time>
      </trkpt>
      <trkpt lat="49.23761" lon="1.40597">
        <ele>96.85</ele>
        <time>2014-03-30T07:54:58Z</time>
      </trkpt>
      <trkpt lat="49.23755" lon="1.40612">
        <ele>98.87</ele>
        <time>2014-03-30T07:55:05Z</time>
      </trkpt>
      <trkpt lat="49.23751" lon="1.40628">
        <ele>101.07</ele>
        <time>2014-03-30T07:55:12Z</time>
      </trkpt>
      <trkpt lat="49.23752" lon="1.40637">
        <ele>102.37</ele>
        <time>2014-03-30T07:55:16Z</time>
      </trkpt>
      <trkpt lat="49.23762" lon="1.4065">
        <ele>104.45</ele>
        <time>2014-03-30T07:55:24Z</time>
      </trkpt>
      <trkpt lat="49.23771" lon="1.40652">
        <ele>105.88</ele>
        <time>2014-03-30T07:55:31Z</time>
      </trkpt>
      <trkpt lat="49.23783" lon="1.40654">
        <ele>107.62</ele>
        <time>2014-03-30T07:55:39Z</time>
      </trkpt>
      <trkpt lat="49.23799" lon="1.40658">
        <ele>110.07</ele>
        <time>2014-03-30T07:55:49Z</time>
      </trkpt>
      <trkpt lat="49.23816" lon="1.40659">
        <ele>112.45</ele>
        <time>2014-03-30T07:55:59Z</time>
      </trkpt>
      <trkpt lat="49.23833" lon="1.40655">
        <ele>114.33</ele>
        <time>2014-03-30T07:56:08Z</time>
      </trkpt>
      <trkpt lat="49.2385" lon="1.40647">
        <ele>115.59</ele>
        <time>2014-03-30T07:56:16Z</time>
      </trkpt>
      <trkpt lat="49.2387" lon="1.40641">
        <ele>117.83</ele>
        <time>2014-03-30T07:56:25Z</time>
      </trkpt>
      <trkpt lat="49.23888" lon="1.40644">
        <ele>119.66</ele>
        <time>2014-03-30T07:56:34Z</time>
      </trkpt>
      <trkpt lat="49.2389" lon="1.40631">
        <ele>120.68</ele>
        <time>2014-03-30T07:56:39Z</time>
      </trkpt>
      <trkpt lat="49.23875" lon="1.40614">
        <ele>117.21</ele>
        <time>2014-03-30T07:56:43Z</time>
      </trkpt>
      <trkpt lat="49.23862" lon="1.40609">
        <ele>114.84</ele>
        <time>2014-03-30T07:56:45Z</time>
      </trkpt>
      <trkpt lat="49.23846" lon="1.40604">
        <ele>111.4</ele>
        <time>2014-03-30T07:56:48Z</time>
      </trkpt>
      <trkpt lat="49.23831" lon="1.4061">
        <ele>108.38</ele>
        <time>2014-03-30T07:56:51Z</time>
      </trkpt>
      <trkpt lat="49.23794" lon="1.40618">
        <ele>106.36</ele>
        <time>2014-03-30T07:56:57Z</time>
      </trkpt>
      <trkpt lat="49.23785" lon="1.40623">
        <ele>104.76</ele>
        <time>2014-03-30T07:56:59Z</time>
      </trkpt>
      <trkpt lat="49.23769" lon="1.40637">
        <ele>104.7</ele>
        <time>2014-03-30T07:57:04Z</time>
      </trkpt>
      <trkpt lat="49.23759" lon="1.40647">
        <ele>104.97</ele>
        <time>2014-03-30T07:57:09Z</time>
      </trkpt>
      <trkpt lat="49.23747" lon="1.40627">
        <ele>101.84</ele>
        <time>2014-03-30T07:57:13Z</time>
      </trkpt>
      <trkpt lat="49.23747" lon="1.40598">
        <ele>101.49</ele>
        <time>2014-03-30T07:57:17Z</time>
      </trkpt>
      <trkpt lat="49.23748" lon="1.40551">
        <ele>104.12</ele>
        <time>2014-03-30T07:57:27Z</time>
      </trkpt>
      <trkpt lat="49.2375" lon="1.40517">
        <ele>105.65</ele>
        <time>2014-03-30T07:57:36Z</time>
      </trkpt>
      <trkpt lat="49.23752" lon="1.40491">
        <ele>105.44</ele>
        <time>2014-03-30T07:57:42Z</time>
      </trkpt>
      <trkpt lat="49.23752" lon="1.40489">
        <ele>105.57</ele>
        <time>2014-03-30T07:57:43Z</time>
      </trkpt>
      <trkpt lat="49.23745" lon="1.4049">
        <ele>106.21</ele>
        <time>2014-03-30T07:57:49Z</time>
      </trkpt>
      <trkpt lat="49.2374" lon="1.405">
        <ele>107.99</ele>
        <time>2014-03-30T07:57:54Z</time>
      </trkpt>
      <trkpt lat="49.23735" lon="1.40515">
        <ele>109.99</ele>
        <time>2014-03-30T07:58:02Z</time>
      </trkpt>
      <trkpt lat="49.23728" lon="1.40527">
        <ele>112.22</ele>
        <time>2014-03-30T07:58:09Z</time>
      </trkpt>
      <trkpt lat="49.23722" lon="1.40537">
        <ele>114.76</ele>
        <time>2014-03-30T07:58:16Z</time>
      </trkpt>
      <trkpt lat="49.23714" lon="1.40548">
        <ele>117.17</ele>
        <time>2014-03-30T07:58:24Z</time>
      </trkpt>
      <trkpt lat="49.23706" lon="1.40558">
        <ele>119.53</ele>
        <time>2014-03-30T07:58:32Z</time>
      </trkpt>
      <trkpt lat="49.23698" lon="1.40568">
        <ele>122.27</ele>
        <time>2014-03-30T07:58:40Z</time>
      </trkpt>
      <trkpt lat="49.23689" lon="1.40581">
        <ele>124.93</ele>
        <time>2014-03-30T07:58:49Z</time>
      </trkpt>
      <trkpt lat="49.2368" lon="1.40593">
        <ele>127.45</ele>
        <time>2014-03-30T07:58:58Z</time>
      </trkpt>
      <trkpt lat="49.23668" lon="1.40596">
        <ele>129.87</ele>
        <time>2014-03-30T07:59:08Z</time>
      </trkpt>
      <trkpt lat="49.23656" lon="1.406">
        <ele>131.86</ele>
        <time>2014-03-30T07:59:17Z</time>
      </trkpt>
      <trkpt lat="49.23645" lon="1.40601">
        <ele>133.24</ele>
        <time>2014-03-30T07:59:25Z</time>
      </trkpt>
      <trkpt lat="49.23637" lon="1.40602">
        <ele>134.89</ele>
        <time>2014-03-30T07:59:32Z</time>
      </trkpt>
      <trkpt lat="49.23629" lon="1.40605">
        <ele>137.8</ele>
        <time>2014-03-30T07:59:44Z</time>
      </trkpt>
      <trkpt lat="49.2362" lon="1.4061">
        <ele>141.03</ele>
        <time>2014-03-30T07:59:57Z</time>
      </trkpt>
      <trkpt lat="49.23612" lon="1.40614">
        <ele>142.88</ele>
        <time>2014-03-30T08:00:06Z</time>
      </trkpt>
      <trkpt lat="49.2361" lon="1.40614">
        <ele>143.42</ele>
        <time>2014-03-30T08:00:18Z</time>
      </trkpt>
      <trkpt lat="49.23607" lon="1.40616">
        <ele>143.46</ele>
        <time>2014-03-30T08:00:24Z</time>
      </trkpt>
      <trkpt lat="49.23595" lon="1.40624">
        <ele>143.33</ele>
        <time>2014-03-30T08:00:32Z</time>
      </trkpt>
      <trkpt lat="49.23584" lon="1.40642">
        <ele>144.79</ele>
        <time>2014-03-30T08:00:41Z</time>
      </trkpt>
      <trkpt lat="49.23575" lon="1.4066">
        <ele>145.53</ele>
        <time>2014-03-30T08:00:48Z</time>
      </trkpt>
      <trkpt lat="49.23563" lon="1.40676">
        <ele>145.26</ele>
        <time>2014-03-30T08:00:54Z</time>
      </trkpt>
      <trkpt lat="49.23553" lon="1.40691">
        <ele>145.99</ele>
        <time>2014-03-30T08:01:00Z</time>
      </trkpt>
      <trkpt lat="49.23552" lon="1.40693">
        <ele>146.18</ele>
        <time>2014-03-30T08:01:01Z</time>
      </trkpt>
      <trkpt lat="49.23542" lon="1.40705">
        <ele>147.31</ele>
        <time>2014-03-30T08:01:08Z</time>
      </trkpt>
      <trkpt lat="49.23539" lon="1.40716">
        <ele>149.12</ele>
        <time>2014-03-30T08:01:14Z</time>
      </trkpt>
      <trkpt lat="49.23536" lon="1.4073">
        <ele>149.82</ele>
        <time>2014-03-30T08:01:20Z</time>
      </trkpt>
      <trkpt lat="49.2354" lon="1.40744">
        <ele>150.26</ele>
        <time>2014-03-30T08:01:25Z</time>
      </trkpt>
      <trkpt lat="49.23546" lon="1.40766">
        <ele>151.61</ele>
        <time>2014-03-30T08:01:33Z</time>
      </trkpt>
      <trkpt lat="49.23552" lon="1.40783">
        <ele>152.69</ele>
        <time>2014-03-30T08:01:40Z</time>
      </trkpt>
      <trkpt lat="49.23552" lon="1.40787">
        <ele>153.26</ele>
        <time>2014-03-30T08:01:42Z</time>
      </trkpt>
      <trkpt lat="49.2356" lon="1.40807">
        <ele>155.48</ele>
        <time>2014-03-30T08:01:51Z</time>
      </trkpt>
      <trkpt lat="49.23561" lon="1.40809">
        <ele>155.74</ele>
        <time>2014-03-30T08:01:52Z</time>
      </trkpt>
      <trkpt lat="49.23566" lon="1.40828">
        <ele>157.47</ele>
        <time>2014-03-30T08:02:00Z</time>
      </trkpt>
      <trkpt lat="49.23569" lon="1.40847">
        <ele>158.7</ele>
        <time>2014-03-30T08:02:06Z</time>
      </trkpt>
      <trkpt lat="49.23572" lon="1.4086">
        <ele>159.53</ele>
        <time>2014-03-30T08:02:11Z</time>
      </trkpt>
      <trkpt lat="49.23574" lon="1.40862">
        <ele>160.11</ele>
        <time>2014-03-30T08:02:13Z</time>
      </trkpt>
      <trkpt lat="49.23575" lon="1.40855">
        <ele>160.35</ele>
        <time>2014-03-30T08:02:17Z</time>
      </trkpt>
      <trkpt lat="49.2358" lon="1.40828">
        <ele>160.31</ele>
        <time>2014-03-30T08:02:23Z</time>
      </trkpt>
      <trkpt lat="49.23571" lon="1.40823">
        <ele>158.52</ele>
        <time>2014-03-30T08:02:27Z</time>
      </trkpt>
      <trkpt lat="49.23563" lon="1.40826">
        <ele>157.39</ele>
        <time>2014-03-30T08:02:29Z</time>
      </trkpt>
      <trkpt lat="49.23548" lon="1.40834">
        <ele>154.2</ele>
        <time>2014-03-30T08:02:34Z</time>
      </trkpt>
      <trkpt lat="49.23533" lon="1.40848">
        <ele>150.31</ele>
        <time>2014-03-30T08:02:38Z</time>
      </trkpt>
      <trkpt lat="49.23526" lon="1.40852">
        <ele>147.21</ele>
        <time>2014-03-30T08:02:40Z</time>
      </trkpt>
      <trkpt lat="49.23518" lon="1.40862">
        <ele>144.02</ele>
        <time>2014-03-30T08:02:43Z</time>
      </trkpt>
      <trkpt lat="49.23503" lon="1.40881">
        <ele>140.73</ele>
        <time>2014-03-30T08:02:48Z</time>
      </trkpt>
      <trkpt lat="49.23494" lon="1.40894">
        <ele>138.19</ele>
        <time>2014-03-30T08:02:52Z</time>
      </trkpt>
      <trkpt lat="49.23489" lon="1.409">
        <ele>137.66</ele>
        <time>2014-03-30T08:02:55Z</time>
      </trkpt>
      <trkpt lat="49.23477" lon="1.40911">
        <ele>136.5</ele>
        <time>2014-03-30T08:02:59Z</time>
      </trkpt>
      <trkpt lat="49.2346" lon="1.40932">
        <ele>134.95</ele>
        <time>2014-03-30T08:03:05Z</time>
      </trkpt>
      <trkpt lat="49.2345" lon="1.40942">
        <ele>132.96</ele>
        <time>2014-03-30T08:03:10Z</time>
      </trkpt>
      <trkpt lat="49.23439" lon="1.40951">
        <ele>130.03</ele>
        <time>2014-03-30T08:03:18Z</time>
      </trkpt>
      <trkpt lat="49.23427" lon="1.40957">
        <ele>128.49</ele>
        <time>2014-03-30T08:03:26Z</time>
      </trkpt>
      <trkpt lat="49.23412" lon="1.40958">
        <ele>127.86</ele>
        <time>2014-03-30T08:03:33Z</time>
      </trkpt>
      <trkpt lat="49.23396" lon="1.40961">
        <ele>128.46</ele>
        <time>2014-03-30T08:03:40Z</time>
      </trkpt>
      <trkpt lat="49.23392" lon="1.40962">
        <ele>128.95</ele>
        <time>2014-03-30T08:03:47Z</time>
      </trkpt>
      <trkpt lat="49.23372" lon="1.40965">
        <ele>130.04</ele>
        <time>2014-03-30T08:03:58Z</time>
      </trkpt>
      <trkpt lat="49.23352" lon="1.4097">
        <ele>128.45</ele>
        <time>2014-03-30T08:04:10Z</time>
      </trkpt>
      <trkpt lat="49.2334" lon="1.40971">
        <ele>128.76</ele>
        <time>2014-03-30T08:04:16Z</time>
      </trkpt>
      <trkpt lat="49.23331" lon="1.40967">
        <ele>129.76</ele>
        <time>2014-03-30T08:04:21Z</time>
      </trkpt>
      <trkpt lat="49.23323" lon="1.40954">
        <ele>129.02</ele>
        <time>2014-03-30T08:04:26Z</time>
      </trkpt>
      <trkpt lat="49.23308" lon="1.40929">
        <ele>125.17</ele>
        <time>2014-03-30T08:04:33Z</time>
      </trkpt>
      <trkpt lat="49.23307" lon="1.40916">
        <ele>122.28</ele>
        <time>2014-03-30T08:04:36Z</time>
      </trkpt>
      <trkpt lat="49.23314" lon="1.40901">
        <ele>117.55</ele>
        <time>2014-03-30T08:04:40Z</time>
      </trkpt>
      <trkpt lat="49.23318" lon="1.40895">
        <ele>114.26</ele>
        <time>2014-03-30T08:04:43Z</time>
      </trkpt>
      <trkpt lat="49.23317" lon="1.40877">
        <ele>110.21</ele>
        <time>2014-03-30T08:04:50Z</time>
      </trkpt>
      <trkpt lat="49.23315" lon="1.40857">
        <ele>107.14</ele>
        <time>2014-03-30T08:04:56Z</time>
      </trkpt>
      <trkpt lat="49.23314" lon="1.40855">
        <ele>106.58</ele>
        <time>2014-03-30T08:04:57Z</time>
      </trkpt>
      <trkpt lat="49.23302" lon="1.40837">
        <ele>103.76</ele>
        <time>2014-03-30T08:05:03Z</time>
      </trkpt>
      <trkpt lat="49.23289" lon="1.40824">
        <ele>101.96</ele>
        <time>2014-03-30T08:05:09Z</time>
      </trkpt>
      <trkpt lat="49.2327" lon="1.4081">
        <ele>101.68</ele>
        <time>2014-03-30T08:05:19Z</time>
      </trkpt>
      <trkpt lat="49.23265" lon="1.40814">
        <ele>103.47</ele>
        <time>2014-03-30T08:05:26Z</time>
      </trkpt>
      <trkpt lat="49.23255" lon="1.40812">
        <ele>105.38</ele>
        <time>2014-03-30T08:05:35Z</time>
      </trkpt>
      <trkpt lat="49.23252" lon="1.40809">
        <ele>105.89</ele>
        <time>2014-03-30T08:05:42Z</time>
      </trkpt>
      <trkpt lat="49.2324" lon="1.40804">
        <ele>108.02</ele>
        <time>2014-03-30T08:05:54Z</time>
      </trkpt>
      <trkpt lat="49.23237" lon="1.40802">
        <ele>108.35</ele>
        <time>2014-03-30T08:05:56Z</time>
      </trkpt>
      <trkpt lat="49.23235" lon="1.40801">
        <ele>108.45</ele>
        <time>2014-03-30T08:05:58Z</time>
      </trkpt>
      <trkpt lat="49.23228" lon="1.40796">
        <ele>109.51</ele>
        <time>2014-03-30T08:06:05Z</time>
      </trkpt>
      <trkpt lat="49.23222" lon="1.40797">
        <ele>110.9</ele>
        <time>2014-03-30T08:06:11Z</time>
      </trkpt>
      <trkpt lat="49.2321" lon="1.40797">
        <ele>112.35</ele>
        <time>2014-03-30T08:06:19Z</time>
      </trkpt>
      <trkpt lat="49.23198" lon="1.40795">
        <ele>113.76</ele>
        <time>2014-03-30T08:06:27Z</time>
      </trkpt>
      <trkpt lat="49.23195" lon="1.40794">
        <ele>113.81</ele>
        <time>2014-03-30T08:06:29Z</time>
      </trkpt>
      <trkpt lat="49.23188" lon="1.40801">
        <ele>115.49</ele>
        <time>2014-03-30T08:06:36Z</time>
      </trkpt>
      <trkpt lat="49.23184" lon="1.40803">
        <ele>116.1</ele>
        <time>2014-03-30T08:06:39Z</time>
      </trkpt>
      <trkpt lat="49.23177" lon="1.40807">
        <ele>116.39</ele>
        <time>2014-03-30T08:06:47Z</time>
      </trkpt>
      <trkpt lat="49.23171" lon="1.40813">
        <ele>117.49</ele>
        <time>2014-03-30T08:06:55Z</time>
      </trkpt>
      <trkpt lat="49.23166" lon="1.40825">
        <ele>118.29</ele>
        <time>2014-03-30T08:07:06Z</time>
      </trkpt>
      <trkpt lat="49.23165" lon="1.40838">
        <ele>119.64</ele>
        <time>2014-03-30T08:07:18Z</time>
      </trkpt>
      <trkpt lat="49.23166" lon="1.40846">
        <ele>119.61</ele>
        <time>2014-03-30T08:07:23Z</time>
      </trkpt>
      <trkpt lat="49.23168" lon="1.40872">
        <ele>120.06</ele>
        <time>2014-03-30T08:07:36Z</time>
      </trkpt>
      <trkpt lat="49.23172" lon="1.40884">
        <ele>121.24</ele>
        <time>2014-03-30T08:07:45Z</time>
      </trkpt>
      <trkpt lat="49.23183" lon="1.409">
        <ele>123.5</ele>
        <time>2014-03-30T08:07:57Z</time>
      </trkpt>
      <trkpt lat="49.23193" lon="1.40912">
        <ele>125.72</ele>
        <time>2014-03-30T08:08:09Z</time>
      </trkpt>
      <trkpt lat="49.23194" lon="1.40915">
        <ele>126.05</ele>
        <time>2014-03-30T08:08:11Z</time>
      </trkpt>
      <trkpt lat="49.23206" lon="1.40945">
        <ele>128.05</ele>
        <time>2014-03-30T08:08:25Z</time>
      </trkpt>
      <trkpt lat="49.23214" lon="1.40959">
        <ele>129.59</ele>
        <time>2014-03-30T08:08:32Z</time>
      </trkpt>
      <trkpt lat="49.23222" lon="1.40973">
        <ele>131.72</ele>
        <time>2014-03-30T08:08:40Z</time>
      </trkpt>
      <trkpt lat="49.23228" lon="1.40988">
        <ele>133.73</ele>
        <time>2014-03-30T08:08:48Z</time>
      </trkpt>
      <trkpt lat="49.23233" lon="1.41004">
        <ele>135.33</ele>
        <time>2014-03-30T08:08:56Z</time>
      </trkpt>
      <trkpt lat="49.23238" lon="1.41021">
        <ele>136.76</ele>
        <time>2014-03-30T08:09:02Z</time>
      </trkpt>
      <trkpt lat="49.23243" lon="1.41031">
        <ele>138.56</ele>
        <time>2014-03-30T08:09:08Z</time>
      </trkpt>
      <trkpt lat="49.23248" lon="1.41023">
        <ele>140.74</ele>
        <time>2014-03-30T08:09:15Z</time>
      </trkpt>
      <trkpt lat="49.23253" lon="1.41017">
        <ele>141.12</ele>
        <time>2014-03-30T08:09:21Z</time>
      </trkpt>
      <trkpt lat="49.23259" lon="1.41009">
        <ele>143.94</ele>
        <time>2014-03-30T08:09:33Z</time>
      </trkpt>
      <trkpt lat="49.23263" lon="1.41017">
        <ele>145.29</ele>
        <time>2014-03-30T08:09:45Z</time>
      </trkpt>
      <trkpt lat="49.23266" lon="1.4103">
        <ele>147.29</ele>
        <time>2014-03-30T08:09:58Z</time>
      </trkpt>
      <trkpt lat="49.2327" lon="1.4104">
        <ele>148.4</ele>
        <time>2014-03-30T08:10:10Z</time>
      </trkpt>
      <trkpt lat="49.23271" lon="1.41051">
        <ele>148.68</ele>
        <time>2014-03-30T08:10:15Z</time>
      </trkpt>
      <trkpt lat="49.2328" lon="1.41069">
        <ele>150.87</ele>
        <time>2014-03-30T08:10:25Z</time>
      </trkpt>
      <trkpt lat="49.23283" lon="1.41076">
        <ele>151.59</ele>
        <time>2014-03-30T08:10:29Z</time>
      </trkpt>
      <trkpt lat="49.23289" lon="1.41092">
        <ele>153.51</ele>
        <time>2014-03-30T08:10:37Z</time>
      </trkpt>
      <trkpt lat="49.23297" lon="1.41112">
        <ele>153.95</ele>
        <time>2014-03-30T08:10:46Z</time>
      </trkpt>
      <trkpt lat="49.233" lon="1.41116">
        <ele>154.1</ele>
        <time>2014-03-30T08:10:48Z</time>
      </trkpt>
      <trkpt lat="49.23302" lon="1.41119">
        <ele>154.2</ele>
        <time>2014-03-30T08:10:50Z</time>
      </trkpt>
      <trkpt lat="49.23307" lon="1.41128">
        <ele>154.99</ele>
        <time>2014-03-30T08:10:55Z</time>
      </trkpt>
      <trkpt lat="49.23312" lon="1.41128">
        <ele>154.82</ele>
        <time>2014-03-30T08:11:05Z</time>
      </trkpt>
      <trkpt lat="49.23314" lon="1.41127">
        <ele>154.87</ele>
        <time>2014-03-30T08:11:14Z</time>
      </trkpt>
      <trkpt lat="49.2333" lon="1.41118">
        <ele>153.65</ele>
        <time>2014-03-30T08:11:20Z</time>
      </trkpt>
      <trkpt lat="49.23347" lon="1.41121">
        <ele>154.83</ele>
        <time>2014-03-30T08:11:27Z</time>
      </trkpt>
      <trkpt lat="49.23362" lon="1.41123">
        <ele>156.21</ele>
        <time>2014-03-30T08:11:34Z</time>
      </trkpt>
      <trkpt lat="49.23374" lon="1.41106">
        <ele>155.87</ele>
        <time>2014-03-30T08:11:39Z</time>
      </trkpt>
      <trkpt lat="49.23378" lon="1.41101">
        <ele>155.73</ele>
        <time>2014-03-30T08:11:40Z</time>
      </trkpt>
      <trkpt lat="49.23406" lon="1.41075">
        <ele>155.23</ele>
        <time>2014-03-30T08:11:47Z</time>
      </trkpt>
      <trkpt lat="49.23433" lon="1.41062">
        <ele>155.76</ele>
        <time>2014-03-30T08:11:54Z</time>
      </trkpt>
      <trkpt lat="49.23456" lon="1.41049">
        <ele>156.07</ele>
        <time>2014-03-30T08:12:01Z</time>
      </trkpt>
      <trkpt lat="49.23476" lon="1.41033">
        <ele>157.24</ele>
        <time>2014-03-30T08:12:07Z</time>
      </trkpt>
      <trkpt lat="49.23494" lon="1.41012">
        <ele>157.69</ele>
        <time>2014-03-30T08:12:13Z</time>
      </trkpt>
      <trkpt lat="49.23516" lon="1.40985">
        <ele>158.01</ele>
        <time>2014-03-30T08:12:19Z</time>
      </trkpt>
      <trkpt lat="49.23532" lon="1.4095">
        <ele>157.79</ele>
        <time>2014-03-30T08:12:26Z</time>
      </trkpt>
      <trkpt lat="49.23549" lon="1.40925">
        <ele>158.2</ele>
        <time>2014-03-30T08:12:32Z</time>
      </trkpt>
      <trkpt lat="49.23561" lon="1.4091">
        <ele>159.16</ele>
        <time>2014-03-30T08:12:37Z</time>
      </trkpt>
      <trkpt lat="49.23566" lon="1.40894">
        <ele>159.96</ele>
        <time>2014-03-30T08:12:40Z</time>
      </trkpt>
      <trkpt lat="49.23562" lon="1.40862">
        <ele>158.97</ele>
        <time>2014-03-30T08:12:45Z</time>
      </trkpt>
      <trkpt lat="49.2355" lon="1.40818">
        <ele>155.6</ele>
        <time>2014-03-30T08:12:51Z</time>
      </trkpt>
      <trkpt lat="49.23549" lon="1.40811">
        <ele>154.72</ele>
        <time>2014-03-30T08:12:53Z</time>
      </trkpt>
      <trkpt lat="49.23545" lon="1.40796">
        <ele>153.54</ele>
        <time>2014-03-30T08:12:56Z</time>
      </trkpt>
      <trkpt lat="49.23536" lon="1.4076">
        <ele>151.12</ele>
        <time>2014-03-30T08:13:00Z</time>
      </trkpt>
      <trkpt lat="49.23533" lon="1.40737">
        <ele>149.83</ele>
        <time>2014-03-30T08:13:03Z</time>
      </trkpt>
      <trkpt lat="49.23539" lon="1.40712">
        <ele>148.09</ele>
        <time>2014-03-30T08:13:09Z</time>
      </trkpt>
      <trkpt lat="49.23543" lon="1.40704">
        <ele>147.15</ele>
        <time>2014-03-30T08:13:11Z</time>
      </trkpt>
      <trkpt lat="49.23557" lon="1.40681">
        <ele>145.1</ele>
        <time>2014-03-30T08:13:16Z</time>
      </trkpt>
      <trkpt lat="49.23567" lon="1.40672">
        <ele>144.91</ele>
        <time>2014-03-30T08:13:20Z</time>
      </trkpt>
      <trkpt lat="49.23582" lon="1.40642">
        <ele>144.23</ele>
        <time>2014-03-30T08:13:27Z</time>
      </trkpt>
      <trkpt lat="49.2359" lon="1.40627">
        <ele>143.68</ele>
        <time>2014-03-30T08:13:30Z</time>
      </trkpt>
      <trkpt lat="49.2361" lon="1.40618">
        <ele>142.3</ele>
        <time>2014-03-30T08:13:35Z</time>
      </trkpt>
      <trkpt lat="49.23624" lon="1.40613">
        <ele>140.45</ele>
        <time>2014-03-30T08:13:39Z</time>
      </trkpt>
      <trkpt lat="49.23632" lon="1.40607">
        <ele>137.88</ele>
        <time>2014-03-30T08:13:41Z</time>
      </trkpt>
      <trkpt lat="49.23649" lon="1.40603">
        <ele>133.15</ele>
        <time>2014-03-30T08:13:45Z</time>
      </trkpt>
      <trkpt lat="49.23671" lon="1.40599">
        <ele>129.48</ele>
        <time>2014-03-30T08:13:49Z</time>
      </trkpt>
      <trkpt lat="49.23682" lon="1.40592">
        <ele>127.22</ele>
        <time>2014-03-30T08:13:51Z</time>
      </trkpt>
      <trkpt lat="49.23699" lon="1.40574">
        <ele>124.98</ele>
        <time>2014-03-30T08:13:55Z</time>
      </trkpt>
      <trkpt lat="49.2371" lon="1.40559">
        <ele>122.4</ele>
        <time>2014-03-30T08:13:58Z</time>
      </trkpt>
      <trkpt lat="49.23721" lon="1.4054">
        <ele>118.28</ele>
        <time>2014-03-30T08:14:01Z</time>
      </trkpt>
      <trkpt lat="49.23725" lon="1.40536">
        <ele>116.9</ele>
        <time>2014-03-30T08:14:02Z</time>
      </trkpt>
      <trkpt lat="49.23732" lon="1.40526">
        <ele>114.43</ele>
        <time>2014-03-30T08:14:04Z</time>
      </trkpt>
      <trkpt lat="49.23743" lon="1.40497">
        <ele>109.13</ele>
        <time>2014-03-30T08:14:08Z</time>
      </trkpt>
      <trkpt lat="49.23747" lon="1.4049">
        <ele>107.96</ele>
        <time>2014-03-30T08:14:09Z</time>
      </trkpt>
      <trkpt lat="49.23753" lon="1.40477">
        <ele>105.31</ele>
        <time>2014-03-30T08:14:12Z</time>
      </trkpt>
      <trkpt lat="49.23753" lon="1.40471">
        <ele>104.95</ele>
        <time>2014-03-30T08:14:14Z</time>
      </trkpt>
      <trkpt lat="49.23747" lon="1.40463">
        <ele>104.68</ele>
        <time>2014-03-30T08:14:18Z</time>
      </trkpt>
      <trkpt lat="49.23735" lon="1.40427">
        <ele>101.7</ele>
        <time>2014-03-30T08:14:25Z</time>
      </trkpt>
      <trkpt lat="49.23734" lon="1.40421">
        <ele>101</ele>
        <time>2014-03-30T08:14:26Z</time>
      </trkpt>
      <trkpt lat="49.23735" lon="1.40393">
        <ele>97.24</ele>
        <time>2014-03-30T08:14:30Z</time>
      </trkpt>
      <trkpt lat="49.23737" lon="1.40377">
        <ele>95.47</ele>
        <time>2014-03-30T08:14:32Z</time>
      </trkpt>
      <trkpt lat="49.23745" lon="1.40357">
        <ele>90.36</ele>
        <time>2014-03-30T08:14:37Z</time>
      </trkpt>
      <trkpt lat="49.2375" lon="1.40361">
        <ele>89.36</ele>
        <time>2014-03-30T08:14:42Z</time>
      </trkpt>
      <trkpt lat="49.23751" lon="1.40356">
        <ele>89.35</ele>
        <time>2014-03-30T08:14:44Z</time>
      </trkpt>
      <trkpt lat="49.2376" lon="1.40345">
        <ele>87.72</ele>
        <time>2014-03-30T08:14:49Z</time>
      </trkpt>
      <trkpt lat="49.23764" lon="1.4034">
        <ele>87.51</ele>
        <time>2014-03-30T08:14:53Z</time>
      </trkpt>
      <trkpt lat="49.23769" lon="1.40333">
        <ele>89.47</ele>
        <time>2014-03-30T08:15:00Z</time>
      </trkpt>
      <trkpt lat="49.23773" lon="1.40322">
        <ele>92.31</ele>
        <time>2014-03-30T08:15:11Z</time>
      </trkpt>
      <trkpt lat="49.2378" lon="1.40307">
        <ele>94.03</ele>
        <time>2014-03-30T08:15:22Z</time>
      </trkpt>
      <trkpt lat="49.23783" lon="1.40283">
        <ele>94.83</ele>
        <time>2014-03-30T08:15:31Z</time>
      </trkpt>
      <trkpt lat="49.23786" lon="1.40276">
        <ele>95.06</ele>
        <time>2014-03-30T08:15:35Z</time>
      </trkpt>
      <trkpt lat="49.23794" lon="1.40272">
        <ele>95.12</ele>
        <time>2014-03-30T08:15:41Z</time>
      </trkpt>
      <trkpt lat="49.2379" lon="1.40268">
        <ele>95.01</ele>
        <time>2014-03-30T08:15:45Z</time>
      </trkpt>
      <trkpt lat="49.23787" lon="1.40276">
        <ele>95.34</ele>
        <time>2014-03-30T08:15:49Z</time>
      </trkpt>
      <trkpt lat="49.23786" lon="1.4029">
        <ele>96.46</ele>
        <time>2014-03-30T08:15:56Z</time>
      </trkpt>
      <trkpt lat="49.23786" lon="1.40295">
        <ele>97.39</ele>
        <time>2014-03-30T08:15:59Z</time>
      </trkpt>
      <trkpt lat="49.23787" lon="1.40305">
        <ele>98.37</ele>
        <time>2014-03-30T08:16:05Z</time>
      </trkpt>
      <trkpt lat="49.23792" lon="1.40309">
        <ele>98.09</ele>
        <time>2014-03-30T08:16:09Z</time>
      </trkpt>
      <trkpt lat="49.23793" lon="1.40323">
        <ele>98.77</ele>
        <time>2014-03-30T08:16:16Z</time>
      </trkpt>
      <trkpt lat="49.23799" lon="1.40335">
        <ele>99.35</ele>
        <time>2014-03-30T08:16:23Z</time>
      </trkpt>
      <trkpt lat="49.23808" lon="1.40336">
        <ele>98.52</ele>
        <time>2014-03-30T08:16:30Z</time>
      </trkpt>
      <trkpt lat="49.23815" lon="1.40335">
        <ele>98.21</ele>
        <time>2014-03-30T08:16:36Z</time>
      </trkpt>
      <trkpt lat="49.23813" lon="1.40324">
        <ele>98.45</ele>
        <time>2014-03-30T08:16:42Z</time>
      </trkpt>
      <trkpt lat="49.23811" lon="1.4033">
        <ele>98.9</ele>
        <time>2014-03-30T08:16:46Z</time>
      </trkpt>
      <trkpt lat="49.23819" lon="1.40328">
        <ele>98.45</ele>
        <time>2014-03-30T08:16:49Z</time>
      </trkpt>
      <trkpt lat="49.23826" lon="1.4032">
        <ele>97.79</ele>
        <time>2014-03-30T08:16:51Z</time>
      </trkpt>
      <trkpt lat="49.23847" lon="1.40271">
        <ele>93.88</ele>
        <time>2014-03-30T08:16:57Z</time>
      </trkpt>
      <trkpt lat="49.23848" lon="1.40263">
        <ele>93.6</ele>
        <time>2014-03-30T08:16:58Z</time>
      </trkpt>
      <trkpt lat="49.23858" lon="1.40255">
        <ele>91.44</ele>
        <time>2014-03-30T08:17:03Z</time>
      </trkpt>
      <trkpt lat="49.23868" lon="1.40248">
        <ele>88.87</ele>
        <time>2014-03-30T08:17:07Z</time>
      </trkpt>
      <trkpt lat="49.23876" lon="1.40241">
        <ele>85.45</ele>
        <time>2014-03-30T08:17:10Z</time>
      </trkpt>
      <trkpt lat="49.23879" lon="1.40243">
        <ele>85.25</ele>
        <time>2014-03-30T08:17:11Z</time>
      </trkpt>
      <trkpt lat="49.23881" lon="1.40244">
        <ele>85.05</ele>
        <time>2014-03-30T08:17:12Z</time>
      </trkpt>
      <trkpt lat="49.23886" lon="1.40248">
        <ele>83.67</ele>
        <time>2014-03-30T08:17:14Z</time>
      </trkpt>
      <trkpt lat="49.23887" lon="1.40276">
        <ele>80.65</ele>
        <time>2014-03-30T08:17:18Z</time>
      </trkpt>
      <trkpt lat="49.23891" lon="1.40282">
        <ele>79.2</ele>
        <time>2014-03-30T08:17:20Z</time>
      </trkpt>
      <trkpt lat="49.23905" lon="1.4027">
        <ele>76.52</ele>
        <time>2014-03-30T08:17:24Z</time>
      </trkpt>
      <trkpt lat="49.23918" lon="1.40259">
        <ele>71.86</ele>
        <time>2014-03-30T08:17:28Z</time>
      </trkpt>
      <trkpt lat="49.23937" lon="1.40239">
        <ele>66.33</ele>
        <time>2014-03-30T08:17:32Z</time>
      </trkpt>
      <trkpt lat="49.23941" lon="1.40235">
        <ele>64.87</ele>
        <time>2014-03-30T08:17:33Z</time>
      </trkpt>
      <trkpt lat="49.23953" lon="1.40218">
        <ele>60.1</ele>
        <time>2014-03-30T08:17:37Z</time>
      </trkpt>
      <trkpt lat="49.23956" lon="1.40209">
        <ele>58.26</ele>
        <time>2014-03-30T08:17:39Z</time>
      </trkpt>
      <trkpt lat="49.23956" lon="1.40191">
        <ele>53.59</ele>
        <time>2014-03-30T08:17:43Z</time>
      </trkpt>
      <trkpt lat="49.23957" lon="1.40191">
        <ele>52.45</ele>
        <time>2014-03-30T08:17:44Z</time>
      </trkpt>
      <trkpt lat="49.23966" lon="1.40203">
        <ele>49.9</ele>
        <time>2014-03-30T08:17:47Z</time>
      </trkpt>
      <trkpt lat="49.23972" lon="1.40217">
        <ele>48.04</ele>
        <time>2014-03-30T08:17:49Z</time>
      </trkpt>
      <trkpt lat="49.23976" lon="1.40237">
        <ele>46.3</ele>
        <time>2014-03-30T08:17:52Z</time>
      </trkpt>
      <trkpt lat="49.23984" lon="1.40243">
        <ele>43.57</ele>
        <time>2014-03-30T08:17:57Z</time>
      </trkpt>
      <trkpt lat="49.23992" lon="1.40232">
        <ele>42.01</ele>
        <time>2014-03-30T08:17:59Z</time>
      </trkpt>
      <trkpt lat="49.24015" lon="1.40198">
        <ele>37.28</ele>
        <time>2014-03-30T08:18:03Z</time>
      </trkpt>
      <trkpt lat="49.24029" lon="1.40176">
        <ele>33.92</ele>
        <time>2014-03-30T08:18:06Z</time>
      </trkpt>
      <trkpt lat="49.24034" lon="1.40165">
        <ele>32.33</ele>
        <time>2014-03-30T08:18:08Z</time>
      </trkpt>
      <trkpt lat="49.24023" lon="1.40147">
        <ele>30.58</ele>
        <time>2014-03-30T08:18:12Z</time>
      </trkpt>
      <trkpt lat="49.23998" lon="1.40136">
        <ele>26.82</ele>
        <time>2014-03-30T08:18:16Z</time>
      </trkpt>
      <trkpt lat="49.23992" lon="1.40112">
        <ele>23.51</ele>
        <time>2014-03-30T08:18:20Z</time>
      </trkpt>
      <trkpt lat="49.23992" lon="1.40106">
        <ele>22.18</ele>
        <time>2014-03-30T08:18:23Z</time>
      </trkpt>
      <trkpt lat="49.2399" lon="1.40102">
        <ele>21.97</ele>
        <time>2014-03-30T08:18:28Z</time>
      </trkpt>
      <trkpt lat="49.23974" lon="1.40094">
        <ele>21.07</ele>
        <time>2014-03-30T08:18:34Z</time>
      </trkpt>
      <trkpt lat="49.23933" lon="1.40092">
        <ele>21.35</ele>
        <time>2014-03-30T08:18:43Z</time>
      </trkpt>
      <trkpt lat="49.23924" lon="1.40092">
        <ele>21.86</ele>
        <time>2014-03-30T08:18:45Z</time>
      </trkpt>
      <trkpt lat="49.23879" lon="1.40093">
        <ele>20.3</ele>
        <time>2014-03-30T08:18:54Z</time>
      </trkpt>
      <trkpt lat="49.23862" lon="1.40092">
        <ele>19.58</ele>
        <time>2014-03-30T08:18:57Z</time>
      </trkpt>
      <trkpt lat="49.23819" lon="1.40107">
        <ele>19.46</ele>
        <time>2014-03-30T08:19:05Z</time>
      </trkpt>
      <trkpt lat="49.2377" lon="1.40126">
        <ele>21.33</ele>
        <time>2014-03-30T08:19:15Z</time>
      </trkpt>
      <trkpt lat="49.23737" lon="1.4014">
        <ele>21.34</ele>
        <time>2014-03-30T08:19:22Z</time>
      </trkpt>
      <trkpt lat="49.23709" lon="1.40126">
        <ele>22.29</ele>
        <time>2014-03-30T08:19:28Z</time>
      </trkpt>
      <trkpt lat="49.23695" lon="1.40104">
        <ele>22.79</ele>
        <time>2014-03-30T08:19:32Z</time>
      </trkpt>
      <trkpt lat="49.23675" lon="1.40111">
        <ele>22.38</ele>
        <time>2014-03-30T08:19:36Z</time>
      </trkpt>
      <trkpt lat="49.2367" lon="1.40127">
        <ele>21.73</ele>
        <time>2014-03-30T08:19:38Z</time>
      </trkpt>
      <trkpt lat="49.23648" lon="1.40161">
        <ele>20.82</ele>
        <time>2014-03-30T08:19:44Z</time>
      </trkpt>
      <trkpt lat="49.23598" lon="1.40166">
        <ele>21.54</ele>
        <time>2014-03-30T08:19:53Z</time>
      </trkpt>
      <trkpt lat="49.23546" lon="1.4017">
        <ele>21.59</ele>
        <time>2014-03-30T08:20:03Z</time>
      </trkpt>
      <trkpt lat="49.2349" lon="1.40173">
        <ele>22.25</ele>
        <time>2014-03-30T08:20:12Z</time>
      </trkpt>
      <trkpt lat="49.23426" lon="1.4017">
        <ele>21.42</ele>
        <time>2014-03-30T08:20:22Z</time>
      </trkpt>
      <trkpt lat="49.23357" lon="1.40164">
        <ele>18.92</ele>
        <time>2014-03-30T08:20:33Z</time>
      </trkpt>
      <trkpt lat="49.23351" lon="1.40164">
        <ele>18.93</ele>
        <time>2014-03-30T08:20:34Z</time>
      </trkpt>
      <trkpt lat="49.2332" lon="1.40165">
        <ele>19.37</ele>
        <time>2014-03-30T08:20:40Z</time>
      </trkpt>
      <trkpt lat="49.23315" lon="1.40164">
        <ele>19.46</ele>
        <time>2014-03-30T08:20:41Z</time>
      </trkpt>
      <trkpt lat="49.23301" lon="1.40159">
        <ele>19.73</ele>
        <time>2014-03-30T08:20:44Z</time>
      </trkpt>
      <trkpt lat="49.23279" lon="1.4017">
        <ele>20.07</ele>
        <time>2014-03-30T08:20:49Z</time>
      </trkpt>
      <trkpt lat="49.23264" lon="1.40178">
        <ele>20.4</ele>
        <time>2014-03-30T08:20:53Z</time>
      </trkpt>
      <trkpt lat="49.23247" lon="1.40192">
        <ele>21.79</ele>
        <time>2014-03-30T08:20:59Z</time>
      </trkpt>
      <trkpt lat="49.23242" lon="1.40221">
        <ele>24.13</ele>
        <time>2014-03-30T08:21:07Z</time>
      </trkpt>
      <trkpt lat="49.23238" lon="1.40251">
        <ele>26.48</ele>
        <time>2014-03-30T08:21:15Z</time>
      </trkpt>
      <trkpt lat="49.23233" lon="1.4028">
        <ele>28.45</ele>
        <time>2014-03-30T08:21:23Z</time>
      </trkpt>
      <trkpt lat="49.23227" lon="1.40314">
        <ele>30.74</ele>
        <time>2014-03-30T08:21:32Z</time>
      </trkpt>
      <trkpt lat="49.23222" lon="1.4035">
        <ele>32.82</ele>
        <time>2014-03-30T08:21:41Z</time>
      </trkpt>
      <trkpt lat="49.23214" lon="1.40388">
        <ele>35.31</ele>
        <time>2014-03-30T08:21:51Z</time>
      </trkpt>
      <trkpt lat="49.23207" lon="1.40422">
        <ele>37.2</ele>
        <time>2014-03-30T08:22:00Z</time>
      </trkpt>
      <trkpt lat="49.23196" lon="1.40455">
        <ele>39.13</ele>
        <time>2014-03-30T08:22:09Z</time>
      </trkpt>
      <trkpt lat="49.23183" lon="1.40481">
        <ele>41.12</ele>
        <time>2014-03-30T08:22:17Z</time>
      </trkpt>
      <trkpt lat="49.23167" lon="1.40501">
        <ele>43.03</ele>
        <time>2014-03-30T08:22:25Z</time>
      </trkpt>
      <trkpt lat="49.23153" lon="1.40513">
        <ele>45.21</ele>
        <time>2014-03-30T08:22:33Z</time>
      </trkpt>
      <trkpt lat="49.23133" lon="1.40526">
        <ele>47.36</ele>
        <time>2014-03-30T08:22:42Z</time>
      </trkpt>
      <trkpt lat="49.23118" lon="1.40538">
        <ele>49.47</ele>
        <time>2014-03-30T08:22:50Z</time>
      </trkpt>
      <trkpt lat="49.23106" lon="1.40548">
        <ele>51.24</ele>
        <time>2014-03-30T08:22:57Z</time>
      </trkpt>
      <trkpt lat="49.23095" lon="1.40558">
        <ele>52.9</ele>
        <time>2014-03-30T08:23:03Z</time>
      </trkpt>
      <trkpt lat="49.23083" lon="1.40574">
        <ele>54.7</ele>
        <time>2014-03-30T08:23:11Z</time>
      </trkpt>
      <trkpt lat="49.23071" lon="1.40589">
        <ele>56.6</ele>
        <time>2014-03-30T08:23:18Z</time>
      </trkpt>
      <trkpt lat="49.2306" lon="1.40606">
        <ele>58.04</ele>
        <time>2014-03-30T08:23:25Z</time>
      </trkpt>
      <trkpt lat="49.23054" lon="1.40618">
        <ele>59.36</ele>
        <time>2014-03-30T08:23:31Z</time>
      </trkpt>
      <trkpt lat="49.23048" lon="1.40632">
        <ele>60.44</ele>
        <time>2014-03-30T08:23:37Z</time>
      </trkpt>
      <trkpt lat="49.23038" lon="1.40652">
        <ele>62.37</ele>
        <time>2014-03-30T08:23:45Z</time>
      </trkpt>
      <trkpt lat="49.23034" lon="1.4067">
        <ele>63.76</ele>
        <time>2014-03-30T08:23:52Z</time>
      </trkpt>
      <trkpt lat="49.23034" lon="1.4069">
        <ele>64.28</ele>
        <time>2014-03-30T08:23:58Z</time>
      </trkpt>
      <trkpt lat="49.23035" lon="1.40713">
        <ele>65.41</ele>
        <time>2014-03-30T08:24:05Z</time>
      </trkpt>
      <trkpt lat="49.23034" lon="1.40733">
        <ele>66.51</ele>
        <time>2014-03-30T08:24:11Z</time>
      </trkpt>
      <trkpt lat="49.23037" lon="1.40755">
        <ele>67.51</ele>
        <time>2014-03-30T08:24:18Z</time>
      </trkpt>
      <trkpt lat="49.23041" lon="1.40782">
        <ele>69.02</ele>
        <time>2014-03-30T08:24:26Z</time>
      </trkpt>
      <trkpt lat="49.23044" lon="1.40806">
        <ele>70.21</ele>
        <time>2014-03-30T08:24:34Z</time>
      </trkpt>
      <trkpt lat="49.23051" lon="1.40825">
        <ele>71.21</ele>
        <time>2014-03-30T08:24:41Z</time>
      </trkpt>
      <trkpt lat="49.23058" lon="1.40846">
        <ele>72.51</ele>
        <time>2014-03-30T08:24:49Z</time>
      </trkpt>
      <trkpt lat="49.23059" lon="1.4085">
        <ele>73.05</ele>
        <time>2014-03-30T08:24:51Z</time>
      </trkpt>
      <trkpt lat="49.23062" lon="1.40868">
        <ele>74.33</ele>
        <time>2014-03-30T08:24:58Z</time>
      </trkpt>
      <trkpt lat="49.23062" lon="1.40873">
        <ele>74.69</ele>
        <time>2014-03-30T08:25:00Z</time>
      </trkpt>
      <trkpt lat="49.23066" lon="1.40886">
        <ele>75.51</ele>
        <time>2014-03-30T08:25:05Z</time>
      </trkpt>
      <trkpt lat="49.23068" lon="1.40904">
        <ele>76.82</ele>
        <time>2014-03-30T08:25:12Z</time>
      </trkpt>
      <trkpt lat="49.23071" lon="1.40917">
        <ele>77.6</ele>
        <time>2014-03-30T08:25:17Z</time>
      </trkpt>
      <trkpt lat="49.23072" lon="1.40927">
        <ele>78.28</ele>
        <time>2014-03-30T08:25:21Z</time>
      </trkpt>
      <trkpt lat="49.23075" lon="1.40933">
        <ele>79.12</ele>
        <time>2014-03-30T08:25:25Z</time>
      </trkpt>
      <trkpt lat="49.23079" lon="1.40952">
        <ele>80.61</ele>
        <time>2014-03-30T08:25:33Z</time>
      </trkpt>
      <trkpt lat="49.23083" lon="1.40966">
        <ele>81.41</ele>
        <time>2014-03-30T08:25:39Z</time>
      </trkpt>
      <trkpt lat="49.23086" lon="1.40981">
        <ele>82.78</ele>
        <time>2014-03-30T08:25:45Z</time>
      </trkpt>
      <trkpt lat="49.23087" lon="1.40996">
        <ele>83.64</ele>
        <time>2014-03-30T08:25:51Z</time>
      </trkpt>
      <trkpt lat="49.23088" lon="1.41002">
        <ele>84.17</ele>
        <time>2014-03-30T08:25:54Z</time>
      </trkpt>
      <trkpt lat="49.23087" lon="1.41019">
        <ele>85.55</ele>
        <time>2014-03-30T08:26:01Z</time>
      </trkpt>
      <trkpt lat="49.23086" lon="1.41042">
        <ele>87.07</ele>
        <time>2014-03-30T08:26:09Z</time>
      </trkpt>
      <trkpt lat="49.23088" lon="1.41061">
        <ele>88.58</ele>
        <time>2014-03-30T08:26:17Z</time>
      </trkpt>
      <trkpt lat="49.23089" lon="1.41073">
        <ele>89.59</ele>
        <time>2014-03-30T08:26:22Z</time>
      </trkpt>
      <trkpt lat="49.23093" lon="1.4109">
        <ele>91.29</ele>
        <time>2014-03-30T08:26:31Z</time>
      </trkpt>
      <trkpt lat="49.23097" lon="1.41108">
        <ele>93.13</ele>
        <time>2014-03-30T08:26:38Z</time>
      </trkpt>
      <trkpt lat="49.23104" lon="1.41127">
        <ele>94.69</ele>
        <time>2014-03-30T08:26:46Z</time>
      </trkpt>
      <trkpt lat="49.23109" lon="1.4114">
        <ele>96.14</ele>
        <time>2014-03-30T08:26:52Z</time>
      </trkpt>
      <trkpt lat="49.23114" lon="1.41155">
        <ele>97.55</ele>
        <time>2014-03-30T08:26:59Z</time>
      </trkpt>
      <trkpt lat="49.23115" lon="1.4116">
        <ele>98.25</ele>
        <time>2014-03-30T08:27:02Z</time>
      </trkpt>
      <trkpt lat="49.23122" lon="1.41177">
        <ele>99.89</ele>
        <time>2014-03-30T08:27:09Z</time>
      </trkpt>
      <trkpt lat="49.23127" lon="1.41191">
        <ele>101.25</ele>
        <time>2014-03-30T08:27:16Z</time>
      </trkpt>
      <trkpt lat="49.23134" lon="1.41201">
        <ele>103.06</ele>
        <time>2014-03-30T08:27:23Z</time>
      </trkpt>
      <trkpt lat="49.23141" lon="1.41211">
        <ele>104.21</ele>
        <time>2014-03-30T08:27:29Z</time>
      </trkpt>
      <trkpt lat="49.23148" lon="1.41227">
        <ele>106.31</ele>
        <time>2014-03-30T08:27:38Z</time>
      </trkpt>
      <trkpt lat="49.23151" lon="1.41235">
        <ele>107.75</ele>
        <time>2014-03-30T08:27:44Z</time>
      </trkpt>
      <trkpt lat="49.23155" lon="1.41247">
        <ele>109.69</ele>
        <time>2014-03-30T08:27:52Z</time>
      </trkpt>
      <trkpt lat="49.2316" lon="1.4126">
        <ele>111.59</ele>
        <time>2014-03-30T08:27:59Z</time>
      </trkpt>
      <trkpt lat="49.23165" lon="1.41272">
        <ele>113.25</ele>
        <time>2014-03-30T08:28:06Z</time>
      </trkpt>
      <trkpt lat="49.23173" lon="1.41289">
        <ele>115.22</ele>
        <time>2014-03-30T08:28:13Z</time>
      </trkpt>
      <trkpt lat="49.23177" lon="1.41303">
        <ele>117.26</ele>
        <time>2014-03-30T08:28:21Z</time>
      </trkpt>
      <trkpt lat="49.23181" lon="1.4131">
        <ele>118.39</ele>
        <time>2014-03-30T08:28:27Z</time>
      </trkpt>
      <trkpt lat="49.23191" lon="1.41318">
        <ele>119.63</ele>
        <time>2014-03-30T08:28:35Z</time>
      </trkpt>
      <trkpt lat="49.23197" lon="1.41325">
        <ele>120.09</ele>
        <time>2014-03-30T08:28:39Z</time>
      </trkpt>
      <trkpt lat="49.2321" lon="1.41332">
        <ele>120.77</ele>
        <time>2014-03-30T08:28:45Z</time>
      </trkpt>
      <trkpt lat="49.23222" lon="1.41331">
        <ele>121.88</ele>
        <time>2014-03-30T08:28:52Z</time>
      </trkpt>
      <trkpt lat="49.23221" lon="1.41325">
        <ele>122.36</ele>
        <time>2014-03-30T08:28:56Z</time>
      </trkpt>
      <trkpt lat="49.2322" lon="1.41298">
        <ele>123.02</ele>
        <time>2014-03-30T08:29:05Z</time>
      </trkpt>
      <trkpt lat="49.2322" lon="1.41282">
        <ele>124.16</ele>
        <time>2014-03-30T08:29:11Z</time>
      </trkpt>
      <trkpt lat="49.23216" lon="1.41261">
        <ele>125.09</ele>
        <time>2014-03-30T08:29:19Z</time>
      </trkpt>
      <trkpt lat="49.23214" lon="1.41243">
        <ele>126.11</ele>
        <time>2014-03-30T08:29:25Z</time>
      </trkpt>
      <trkpt lat="49.23212" lon="1.4123">
        <ele>126.68</ele>
        <time>2014-03-30T08:29:29Z</time>
      </trkpt>
      <trkpt lat="49.23207" lon="1.4121">
        <ele>127.61</ele>
        <time>2014-03-30T08:29:36Z</time>
      </trkpt>
      <trkpt lat="49.23204" lon="1.41188">
        <ele>128.29</ele>
        <time>2014-03-30T08:29:42Z</time>
      </trkpt>
      <trkpt lat="49.23205" lon="1.41176">
        <ele>128.66</ele>
        <time>2014-03-30T08:29:45Z</time>
      </trkpt>
      <trkpt lat="49.23207" lon="1.41169">
        <ele>128.93</ele>
        <time>2014-03-30T08:29:47Z</time>
      </trkpt>
      <trkpt lat="49.23214" lon="1.41167">
        <ele>129.44</ele>
        <time>2014-03-30T08:29:51Z</time>
      </trkpt>
      <trkpt lat="49.23216" lon="1.4117">
        <ele>130.21</ele>
        <time>2014-03-30T08:29:53Z</time>
      </trkpt>
      <trkpt lat="49.23221" lon="1.41191">
        <ele>131.59</ele>
        <time>2014-03-30T08:30:00Z</time>
      </trkpt>
      <trkpt lat="49.23223" lon="1.41198">
        <ele>132.06</ele>
        <time>2014-03-30T08:30:02Z</time>
      </trkpt>
      <trkpt lat="49.23226" lon="1.41211">
        <ele>132.51</ele>
        <time>2014-03-30T08:30:07Z</time>
      </trkpt>
      <trkpt lat="49.23238" lon="1.41234">
        <ele>134.64</ele>
        <time>2014-03-30T08:30:16Z</time>
      </trkpt>
      <trkpt lat="49.23248" lon="1.41255">
        <ele>135.74</ele>
        <time>2014-03-30T08:30:23Z</time>
      </trkpt>
      <trkpt lat="49.23255" lon="1.41267">
        <ele>136.58</ele>
        <time>2014-03-30T08:30:27Z</time>
      </trkpt>
      <trkpt lat="49.2326" lon="1.41278">
        <ele>137.69</ele>
        <time>2014-03-30T08:30:32Z</time>
      </trkpt>
      <trkpt lat="49.23264" lon="1.41291">
        <ele>138.53</ele>
        <time>2014-03-30T08:30:37Z</time>
      </trkpt>
      <trkpt lat="49.23272" lon="1.41313">
        <ele>140.01</ele>
        <time>2014-03-30T08:30:43Z</time>
      </trkpt>
      <trkpt lat="49.2328" lon="1.4134">
        <ele>140.84</ele>
        <time>2014-03-30T08:30:51Z</time>
      </trkpt>
      <trkpt lat="49.23287" lon="1.41364">
        <ele>142.51</ele>
        <time>2014-03-30T08:30:58Z</time>
      </trkpt>
      <trkpt lat="49.23291" lon="1.41388">
        <ele>143.65</ele>
        <time>2014-03-30T08:31:05Z</time>
      </trkpt>
      <trkpt lat="49.23292" lon="1.41423">
        <ele>145.2</ele>
        <time>2014-03-30T08:31:14Z</time>
      </trkpt>
      <trkpt lat="49.23295" lon="1.41456">
        <ele>147.27</ele>
        <time>2014-03-30T08:31:23Z</time>
      </trkpt>
      <trkpt lat="49.23296" lon="1.41482">
        <ele>148.94</ele>
        <time>2014-03-30T08:31:31Z</time>
      </trkpt>
      <trkpt lat="49.23295" lon="1.41511">
        <ele>149.88</ele>
        <time>2014-03-30T08:31:39Z</time>
      </trkpt>
      <trkpt lat="49.23293" lon="1.41535">
        <ele>151.14</ele>
        <time>2014-03-30T08:31:47Z</time>
      </trkpt>
      <trkpt lat="49.23288" lon="1.41558">
        <ele>152.53</ele>
        <time>2014-03-30T08:31:54Z</time>
      </trkpt>
      <trkpt lat="49.23279" lon="1.41578">
        <ele>153.52</ele>
        <time>2014-03-30T08:32:00Z</time>
      </trkpt>
      <trkpt lat="49.23271" lon="1.41597">
        <ele>154.99</ele>
        <time>2014-03-30T08:32:06Z</time>
      </trkpt>
      <trkpt lat="49.23274" lon="1.41607">
        <ele>155.04</ele>
        <time>2014-03-30T08:32:10Z</time>
      </trkpt>
      <trkpt lat="49.23294" lon="1.41603">
        <ele>155.07</ele>
        <time>2014-03-30T08:32:19Z</time>
      </trkpt>
      <trkpt lat="49.2331" lon="1.41594">
        <ele>157.59</ele>
        <time>2014-03-30T08:32:26Z</time>
      </trkpt>
      <trkpt lat="49.23313" lon="1.41575">
        <ele>157.45</ele>
        <time>2014-03-30T08:32:31Z</time>
      </trkpt>
      <trkpt lat="49.23315" lon="1.41546">
        <ele>157.39</ele>
        <time>2014-03-30T08:32:38Z</time>
      </trkpt>
      <trkpt lat="49.23321" lon="1.41509">
        <ele>157.49</ele>
        <time>2014-03-30T08:32:46Z</time>
      </trkpt>
      <trkpt lat="49.23329" lon="1.41465">
        <ele>156.96</ele>
        <time>2014-03-30T08:32:55Z</time>
      </trkpt>
      <trkpt lat="49.23332" lon="1.41441">
        <ele>156.82</ele>
        <time>2014-03-30T08:33:01Z</time>
      </trkpt>
      <trkpt lat="49.23337" lon="1.41411">
        <ele>157.72</ele>
        <time>2014-03-30T08:33:09Z</time>
      </trkpt>
      <trkpt lat="49.23335" lon="1.41386">
        <ele>157.98</ele>
        <time>2014-03-30T08:33:14Z</time>
      </trkpt>
      <trkpt lat="49.23328" lon="1.41325">
        <ele>157.73</ele>
        <time>2014-03-30T08:33:24Z</time>
      </trkpt>
      <trkpt lat="49.23323" lon="1.41255">
        <ele>157.6</ele>
        <time>2014-03-30T08:33:35Z</time>
      </trkpt>
      <trkpt lat="49.23319" lon="1.41224">
        <ele>157.26</ele>
        <time>2014-03-30T08:33:40Z</time>
      </trkpt>
      <trkpt lat="49.23313" lon="1.41162">
        <ele>155.79</ele>
        <time>2014-03-30T08:33:50Z</time>
      </trkpt>
      <trkpt lat="49.23316" lon="1.41153">
        <ele>155.63</ele>
        <time>2014-03-30T08:33:52Z</time>
      </trkpt>
      <trkpt lat="49.23333" lon="1.4115">
        <ele>155.26</ele>
        <time>2014-03-30T08:33:57Z</time>
      </trkpt>
      <trkpt lat="49.23362" lon="1.4115">
        <ele>155.38</ele>
        <time>2014-03-30T08:34:05Z</time>
      </trkpt>
      <trkpt lat="49.23389" lon="1.41148">
        <ele>156.43</ele>
        <time>2014-03-30T08:34:13Z</time>
      </trkpt>
      <trkpt lat="49.23422" lon="1.41145">
        <ele>157.49</ele>
        <time>2014-03-30T08:34:23Z</time>
      </trkpt>
      <trkpt lat="49.23446" lon="1.41139">
        <ele>157.66</ele>
        <time>2014-03-30T08:34:31Z</time>
      </trkpt>
      <trkpt lat="49.2348" lon="1.41128">
        <ele>159</ele>
        <time>2014-03-30T08:34:42Z</time>
      </trkpt>
      <trkpt lat="49.23501" lon="1.41109">
        <ele>159.93</ele>
        <time>2014-03-30T08:34:49Z</time>
      </trkpt>
      <trkpt lat="49.23517" lon="1.41074">
        <ele>160.57</ele>
        <time>2014-03-30T08:34:57Z</time>
      </trkpt>
      <trkpt lat="49.23532" lon="1.41032">
        <ele>160.5</ele>
        <time>2014-03-30T08:35:05Z</time>
      </trkpt>
      <trkpt lat="49.23544" lon="1.40992">
        <ele>160.24</ele>
        <time>2014-03-30T08:35:12Z</time>
      </trkpt>
      <trkpt lat="49.23563" lon="1.40941">
        <ele>159.74</ele>
        <time>2014-03-30T08:35:22Z</time>
      </trkpt>
      <trkpt lat="49.23569" lon="1.40918">
        <ele>160.44</ele>
        <time>2014-03-30T08:35:28Z</time>
      </trkpt>
      <trkpt lat="49.23566" lon="1.40902">
        <ele>159.83</ele>
        <time>2014-03-30T08:35:33Z</time>
      </trkpt>
      <trkpt lat="49.23571" lon="1.40879">
        <ele>159.31</ele>
        <time>2014-03-30T08:35:38Z</time>
      </trkpt>
      <trkpt lat="49.23561" lon="1.40838">
        <ele>157.59</ele>
        <time>2014-03-30T08:35:44Z</time>
      </trkpt>
      <trkpt lat="49.23557" lon="1.4082">
        <ele>156.63</ele>
        <time>2014-03-30T08:35:46Z</time>
      </trkpt>
      <trkpt lat="49.23545" lon="1.4079">
        <ele>153.9</ele>
        <time>2014-03-30T08:35:49Z</time>
      </trkpt>
      <trkpt lat="49.23539" lon="1.40769">
        <ele>152.82</ele>
        <time>2014-03-30T08:35:51Z</time>
      </trkpt>
      <trkpt lat="49.23535" lon="1.40729">
        <ele>149.33</ele>
        <time>2014-03-30T08:35:56Z</time>
      </trkpt>
      <trkpt lat="49.2354" lon="1.4071">
        <ele>148.2</ele>
        <time>2014-03-30T08:36:01Z</time>
      </trkpt>
      <trkpt lat="49.23542" lon="1.40707">
        <ele>147.68</ele>
        <time>2014-03-30T08:36:02Z</time>
      </trkpt>
      <trkpt lat="49.23548" lon="1.40695">
        <ele>146.21</ele>
        <time>2014-03-30T08:36:05Z</time>
      </trkpt>
      <trkpt lat="49.23558" lon="1.40679">
        <ele>144.47</ele>
        <time>2014-03-30T08:36:09Z</time>
      </trkpt>
      <trkpt lat="49.23569" lon="1.40664">
        <ele>144.55</ele>
        <time>2014-03-30T08:36:14Z</time>
      </trkpt>
      <trkpt lat="49.23581" lon="1.40642">
        <ele>144</ele>
        <time>2014-03-30T08:36:19Z</time>
      </trkpt>
      <trkpt lat="49.23602" lon="1.40618">
        <ele>142.14</ele>
        <time>2014-03-30T08:36:25Z</time>
      </trkpt>
      <trkpt lat="49.23614" lon="1.40615">
        <ele>141.77</ele>
        <time>2014-03-30T08:36:28Z</time>
      </trkpt>
      <trkpt lat="49.23622" lon="1.40611">
        <ele>140.04</ele>
        <time>2014-03-30T08:36:30Z</time>
      </trkpt>
      <trkpt lat="49.23641" lon="1.40602">
        <ele>134.94</ele>
        <time>2014-03-30T08:36:34Z</time>
      </trkpt>
      <trkpt lat="49.23659" lon="1.40602">
        <ele>131.11</ele>
        <time>2014-03-30T08:36:38Z</time>
      </trkpt>
      <trkpt lat="49.23669" lon="1.40598">
        <ele>130.03</ele>
        <time>2014-03-30T08:36:40Z</time>
      </trkpt>
      <trkpt lat="49.2368" lon="1.40592">
        <ele>128.19</ele>
        <time>2014-03-30T08:36:42Z</time>
      </trkpt>
      <trkpt lat="49.23688" lon="1.40586">
        <ele>127.07</ele>
        <time>2014-03-30T08:36:44Z</time>
      </trkpt>
      <trkpt lat="49.23699" lon="1.40579">
        <ele>124.73</ele>
        <time>2014-03-30T08:36:47Z</time>
      </trkpt>
      <trkpt lat="49.2371" lon="1.40588">
        <ele>122.54</ele>
        <time>2014-03-30T08:36:51Z</time>
      </trkpt>
      <trkpt lat="49.23719" lon="1.40603">
        <ele>119.32</ele>
        <time>2014-03-30T08:36:55Z</time>
      </trkpt>
      <trkpt lat="49.23721" lon="1.40605">
        <ele>118.32</ele>
        <time>2014-03-30T08:36:56Z</time>
      </trkpt>
      <trkpt lat="49.23737" lon="1.4062">
        <ele>111.57</ele>
        <time>2014-03-30T08:37:01Z</time>
      </trkpt>
      <trkpt lat="49.23742" lon="1.40628">
        <ele>108.19</ele>
        <time>2014-03-30T08:37:03Z</time>
      </trkpt>
      <trkpt lat="49.23746" lon="1.40634">
        <ele>106.16</ele>
        <time>2014-03-30T08:37:05Z</time>
      </trkpt>
      <trkpt lat="49.23754" lon="1.40627">
        <ele>101.62</ele>
        <time>2014-03-30T08:37:10Z</time>
      </trkpt>
      <trkpt lat="49.23752" lon="1.40619">
        <ele>100.74</ele>
        <time>2014-03-30T08:37:12Z</time>
      </trkpt>
      <trkpt lat="49.23751" lon="1.40615">
        <ele>100.41</ele>
        <time>2014-03-30T08:37:13Z</time>
      </trkpt>
      <trkpt lat="49.23752" lon="1.40583">
        <ele>101.35</ele>
        <time>2014-03-30T08:37:21Z</time>
      </trkpt>
      <trkpt lat="49.23752" lon="1.40548">
        <ele>103.55</ele>
        <time>2014-03-30T08:37:29Z</time>
      </trkpt>
      <trkpt lat="49.23753" lon="1.40514">
        <ele>104.57</ele>
        <time>2014-03-30T08:37:38Z</time>
      </trkpt>
      <trkpt lat="49.2376" lon="1.40484">
        <ele>103.64</ele>
        <time>2014-03-30T08:37:45Z</time>
      </trkpt>
      <trkpt lat="49.23763" lon="1.40478">
        <ele>103.16</ele>
        <time>2014-03-30T08:37:46Z</time>
      </trkpt>
      <trkpt lat="49.23783" lon="1.40466">
        <ele>99.86</ele>
        <time>2014-03-30T08:37:50Z</time>
      </trkpt>
      <trkpt lat="49.23803" lon="1.40434">
        <ele>97.14</ele>
        <time>2014-03-30T08:37:55Z</time>
      </trkpt>
      <trkpt lat="49.23815" lon="1.40412">
        <ele>93.87</ele>
        <time>2014-03-30T08:37:58Z</time>
      </trkpt>
      <trkpt lat="49.23822" lon="1.40397">
        <ele>92.78</ele>
        <time>2014-03-30T08:38:00Z</time>
      </trkpt>
      <trkpt lat="49.23839" lon="1.40364">
        <ele>89.24</ele>
        <time>2014-03-30T08:38:04Z</time>
      </trkpt>
      <trkpt lat="49.23845" lon="1.40349">
        <ele>88.24</ele>
        <time>2014-03-30T08:38:06Z</time>
      </trkpt>
      <trkpt lat="49.23859" lon="1.40317">
        <ele>85.51</ele>
        <time>2014-03-30T08:38:10Z</time>
      </trkpt>
      <trkpt lat="49.23875" lon="1.40293">
        <ele>81.56</ele>
        <time>2014-03-30T08:38:13Z</time>
      </trkpt>
      <trkpt lat="49.23886" lon="1.40279">
        <ele>79.08</ele>
        <time>2014-03-30T08:38:16Z</time>
      </trkpt>
      <trkpt lat="49.23895" lon="1.40275">
        <ele>78.67</ele>
        <time>2014-03-30T08:38:18Z</time>
      </trkpt>
      <trkpt lat="49.23909" lon="1.40261">
        <ele>74.99</ele>
        <time>2014-03-30T08:38:22Z</time>
      </trkpt>
      <trkpt lat="49.23912" lon="1.4026">
        <ele>73.7</ele>
        <time>2014-03-30T08:38:23Z</time>
      </trkpt>
      <trkpt lat="49.23932" lon="1.40237">
        <ele>68.98</ele>
        <time>2014-03-30T08:38:28Z</time>
      </trkpt>
      <trkpt lat="49.2394" lon="1.40229">
        <ele>65.24</ele>
        <time>2014-03-30T08:38:30Z</time>
      </trkpt>
      <trkpt lat="49.23946" lon="1.4022">
        <ele>60.58</ele>
        <time>2014-03-30T08:38:32Z</time>
      </trkpt>
      <trkpt lat="49.2395" lon="1.40206">
        <ele>57.12</ele>
        <time>2014-03-30T08:38:35Z</time>
      </trkpt>
      <trkpt lat="49.2395" lon="1.40191">
        <ele>53.68</ele>
        <time>2014-03-30T08:38:38Z</time>
      </trkpt>
      <trkpt lat="49.23956" lon="1.40193">
        <ele>51.16</ele>
        <time>2014-03-30T08:38:41Z</time>
      </trkpt>
      <trkpt lat="49.23962" lon="1.40202">
        <ele>49.7</ele>
        <time>2014-03-30T08:38:43Z</time>
      </trkpt>
      <trkpt lat="49.23972" lon="1.40238">
        <ele>46.17</ele>
        <time>2014-03-30T08:38:48Z</time>
      </trkpt>
      <trkpt lat="49.23972" lon="1.40253">
        <ele>44.61</ele>
        <time>2014-03-30T08:38:51Z</time>
      </trkpt>
      <trkpt lat="49.2396" lon="1.4027">
        <ele>46.37</ele>
        <time>2014-03-30T08:38:57Z</time>
      </trkpt>
      <trkpt lat="49.23959" lon="1.40272">
        <ele>46.7</ele>
        <time>2014-03-30T08:38:58Z</time>
      </trkpt>
      <trkpt lat="49.23947" lon="1.40288">
        <ele>48.58</ele>
        <time>2014-03-30T08:39:06Z</time>
      </trkpt>
      <trkpt lat="49.23933" lon="1.40303">
        <ele>50.68</ele>
        <time>2014-03-30T08:39:14Z</time>
      </trkpt>
      <trkpt lat="49.23927" lon="1.40311">
        <ele>52.33</ele>
        <time>2014-03-30T08:39:19Z</time>
      </trkpt>
      <trkpt lat="49.23919" lon="1.40323">
        <ele>54.58</ele>
        <time>2014-03-30T08:39:27Z</time>
      </trkpt>
      <trkpt lat="49.23912" lon="1.40333">
        <ele>56.35</ele>
        <time>2014-03-30T08:39:33Z</time>
      </trkpt>
      <trkpt lat="49.23903" lon="1.40344">
        <ele>58.59</ele>
        <time>2014-03-30T08:39:41Z</time>
      </trkpt>
      <trkpt lat="49.23896" lon="1.40356">
        <ele>60.52</ele>
        <time>2014-03-30T08:39:48Z</time>
      </trkpt>
      <trkpt lat="49.23885" lon="1.40372">
        <ele>63.31</ele>
        <time>2014-03-30T08:39:58Z</time>
      </trkpt>
      <trkpt lat="49.23877" lon="1.40382">
        <ele>65.18</ele>
        <time>2014-03-30T08:40:05Z</time>
      </trkpt>
      <trkpt lat="49.23875" lon="1.40385">
        <ele>65.67</ele>
        <time>2014-03-30T08:40:07Z</time>
      </trkpt>
      <trkpt lat="49.23869" lon="1.40395">
        <ele>67.3</ele>
        <time>2014-03-30T08:40:13Z</time>
      </trkpt>
      <trkpt lat="49.23864" lon="1.404">
        <ele>68.49</ele>
        <time>2014-03-30T08:40:17Z</time>
      </trkpt>
      <trkpt lat="49.23858" lon="1.40414">
        <ele>70.05</ele>
        <time>2014-03-30T08:40:24Z</time>
      </trkpt>
      <trkpt lat="49.23848" lon="1.40427">
        <ele>71.9</ele>
        <time>2014-03-30T08:40:32Z</time>
      </trkpt>
      <trkpt lat="49.23838" lon="1.40441">
        <ele>73.43</ele>
        <time>2014-03-30T08:40:40Z</time>
      </trkpt>
      <trkpt lat="49.23831" lon="1.40459">
        <ele>75.29</ele>
        <time>2014-03-30T08:40:48Z</time>
      </trkpt>
      <trkpt lat="49.2382" lon="1.40472">
        <ele>77.44</ele>
        <time>2014-03-30T08:40:57Z</time>
      </trkpt>
      <trkpt lat="49.23809" lon="1.40488">
        <ele>79.9</ele>
        <time>2014-03-30T08:41:07Z</time>
      </trkpt>
      <trkpt lat="49.23801" lon="1.40506">
        <ele>82.11</ele>
        <time>2014-03-30T08:41:16Z</time>
      </trkpt>
      <trkpt lat="49.23794" lon="1.40525">
        <ele>84.63</ele>
        <time>2014-03-30T08:41:25Z</time>
      </trkpt>
      <trkpt lat="49.23788" lon="1.40542">
        <ele>87.02</ele>
        <time>2014-03-30T08:41:34Z</time>
      </trkpt>
      <trkpt lat="49.23778" lon="1.4056">
        <ele>90.02</ele>
        <time>2014-03-30T08:41:45Z</time>
      </trkpt>
      <trkpt lat="49.23771" lon="1.40571">
        <ele>92.23</ele>
        <time>2014-03-30T08:41:53Z</time>
      </trkpt>
      <trkpt lat="49.23765" lon="1.40588">
        <ele>94.08</ele>
        <time>2014-03-30T08:42:01Z</time>
      </trkpt>
      <trkpt lat="49.23759" lon="1.40602">
        <ele>96.25</ele>
        <time>2014-03-30T08:42:09Z</time>
      </trkpt>
      <trkpt lat="49.23755" lon="1.40612">
        <ele>97.82</ele>
        <time>2014-03-30T08:42:15Z</time>
      </trkpt>
      <trkpt lat="49.2375" lon="1.40633">
        <ele>100.58</ele>
        <time>2014-03-30T08:42:25Z</time>
      </trkpt>
      <trkpt lat="49.23753" lon="1.40647">
        <ele>102.23</ele>
        <time>2014-03-30T08:42:32Z</time>
      </trkpt>
      <trkpt lat="49.23764" lon="1.40653">
        <ele>103.91</ele>
        <time>2014-03-30T08:42:40Z</time>
      </trkpt>
      <trkpt lat="49.23775" lon="1.40654">
        <ele>105.27</ele>
        <time>2014-03-30T08:42:46Z</time>
      </trkpt>
      <trkpt lat="49.23791" lon="1.40658">
        <ele>107.41</ele>
        <time>2014-03-30T08:42:55Z</time>
      </trkpt>
      <trkpt lat="49.23808" lon="1.40662">
        <ele>109.93</ele>
        <time>2014-03-30T08:43:04Z</time>
      </trkpt>
      <trkpt lat="49.23822" lon="1.40662">
        <ele>111.95</ele>
        <time>2014-03-30T08:43:12Z</time>
      </trkpt>
      <trkpt lat="49.23835" lon="1.40659">
        <ele>113.26</ele>
        <time>2014-03-30T08:43:19Z</time>
      </trkpt>
      <trkpt lat="49.23851" lon="1.40651">
        <ele>114.8</ele>
        <time>2014-03-30T08:43:27Z</time>
      </trkpt>
      <trkpt lat="49.23869" lon="1.40646">
        <ele>116.62</ele>
        <time>2014-03-30T08:43:36Z</time>
      </trkpt>
      <trkpt lat="49.23886" lon="1.40646">
        <ele>118.52</ele>
        <time>2014-03-30T08:43:45Z</time>
      </trkpt>
      <trkpt lat="49.23899" lon="1.40655">
        <ele>120.04</ele>
        <time>2014-03-30T08:43:52Z</time>
      </trkpt>
      <trkpt lat="49.23902" lon="1.40672">
        <ele>121.56</ele>
        <time>2014-03-30T08:43:58Z</time>
      </trkpt>
      <trkpt lat="49.23896" lon="1.40694">
        <ele>123.52</ele>
        <time>2014-03-30T08:44:06Z</time>
      </trkpt>
      <trkpt lat="49.23889" lon="1.40715">
        <ele>125.19</ele>
        <time>2014-03-30T08:44:14Z</time>
      </trkpt>
      <trkpt lat="49.23884" lon="1.40729">
        <ele>126.29</ele>
        <time>2014-03-30T08:44:20Z</time>
      </trkpt>
      <trkpt lat="49.23878" lon="1.4075">
        <ele>128.42</ele>
        <time>2014-03-30T08:44:28Z</time>
      </trkpt>
      <trkpt lat="49.23874" lon="1.40769">
        <ele>130.55</ele>
        <time>2014-03-30T08:44:36Z</time>
      </trkpt>
      <trkpt lat="49.2387" lon="1.40785">
        <ele>132.61</ele>
        <time>2014-03-30T08:44:43Z</time>
      </trkpt>
      <trkpt lat="49.23867" lon="1.40799">
        <ele>134.54</ele>
        <time>2014-03-30T08:44:49Z</time>
      </trkpt>
      <trkpt lat="49.23863" lon="1.40813">
        <ele>136.53</ele>
        <time>2014-03-30T08:44:55Z</time>
      </trkpt>
      <trkpt lat="49.23859" lon="1.40825">
        <ele>138.23</ele>
        <time>2014-03-30T08:45:01Z</time>
      </trkpt>
      <trkpt lat="49.23856" lon="1.40844">
        <ele>141.2</ele>
        <time>2014-03-30T08:45:10Z</time>
      </trkpt>
      <trkpt lat="49.23856" lon="1.40851">
        <ele>141.77</ele>
        <time>2014-03-30T08:45:12Z</time>
      </trkpt>
      <trkpt lat="49.23855" lon="1.40877">
        <ele>144.19</ele>
        <time>2014-03-30T08:45:20Z</time>
      </trkpt>
      <trkpt lat="49.23857" lon="1.40904">
        <ele>146.29</ele>
        <time>2014-03-30T08:45:28Z</time>
      </trkpt>
      <trkpt lat="49.2386" lon="1.40927">
        <ele>148.17</ele>
        <time>2014-03-30T08:45:36Z</time>
      </trkpt>
      <trkpt lat="49.23859" lon="1.40949">
        <ele>150.05</ele>
        <time>2014-03-30T08:45:44Z</time>
      </trkpt>
      <trkpt lat="49.23856" lon="1.40969">
        <ele>152.05</ele>
        <time>2014-03-30T08:45:51Z</time>
      </trkpt>
      <trkpt lat="49.23846" lon="1.40988">
        <ele>154.61</ele>
        <time>2014-03-30T08:45:59Z</time>
      </trkpt>
      <trkpt lat="49.23833" lon="1.41004">
        <ele>157.13</ele>
        <time>2014-03-30T08:46:07Z</time>
      </trkpt>
      <trkpt lat="49.23823" lon="1.41018">
        <ele>158.72</ele>
        <time>2014-03-30T08:46:13Z</time>
      </trkpt>
      <trkpt lat="49.23808" lon="1.41045">
        <ele>159.97</ele>
        <time>2014-03-30T08:46:22Z</time>
      </trkpt>
      <trkpt lat="49.23797" lon="1.41065">
        <ele>160.59</ele>
        <time>2014-03-30T08:46:29Z</time>
      </trkpt>
      <trkpt lat="49.23781" lon="1.41087">
        <ele>160.81</ele>
        <time>2014-03-30T08:46:36Z</time>
      </trkpt>
      <trkpt lat="49.23762" lon="1.41124">
        <ele>161.7</ele>
        <time>2014-03-30T08:46:44Z</time>
      </trkpt>
      <trkpt lat="49.23747" lon="1.41175">
        <ele>162.04</ele>
        <time>2014-03-30T08:46:52Z</time>
      </trkpt>
      <trkpt lat="49.23731" lon="1.41231">
        <ele>162.6</ele>
        <time>2014-03-30T08:47:00Z</time>
      </trkpt>
      <trkpt lat="49.23722" lon="1.4127">
        <ele>162.78</ele>
        <time>2014-03-30T08:47:05Z</time>
      </trkpt>
      <trkpt lat="49.23717" lon="1.41291">
        <ele>163.41</ele>
        <time>2014-03-30T08:47:08Z</time>
      </trkpt>
      <trkpt lat="49.23716" lon="1.41304">
        <ele>163.31</ele>
        <time>2014-03-30T08:47:10Z</time>
      </trkpt>
      <trkpt lat="49.23713" lon="1.41327">
        <ele>162.08</ele>
        <time>2014-03-30T08:47:13Z</time>
      </trkpt>
      <trkpt lat="49.23709" lon="1.41349">
        <ele>161.04</ele>
        <time>2014-03-30T08:47:16Z</time>
      </trkpt>
      <trkpt lat="49.23698" lon="1.41409">
        <ele>160.81</ele>
        <time>2014-03-30T08:47:24Z</time>
      </trkpt>
      <trkpt lat="49.23694" lon="1.41432">
        <ele>160.39</ele>
        <time>2014-03-30T08:47:27Z</time>
      </trkpt>
      <trkpt lat="49.23685" lon="1.41492">
        <ele>160.27</ele>
        <time>2014-03-30T08:47:34Z</time>
      </trkpt>
      <trkpt lat="49.23684" lon="1.41554">
        <ele>160</ele>
        <time>2014-03-30T08:47:41Z</time>
      </trkpt>
      <trkpt lat="49.23685" lon="1.41607">
        <ele>159.92</ele>
        <time>2014-03-30T08:47:47Z</time>
      </trkpt>
      <trkpt lat="49.23687" lon="1.41624">
        <ele>159.82</ele>
        <time>2014-03-30T08:47:49Z</time>
      </trkpt>
      <trkpt lat="49.2369" lon="1.41667">
        <ele>159.93</ele>
        <time>2014-03-30T08:47:54Z</time>
      </trkpt>
      <trkpt lat="49.23705" lon="1.41692">
        <ele>159.98</ele>
        <time>2014-03-30T08:47:58Z</time>
      </trkpt>
      <trkpt lat="49.2371" lon="1.41692">
        <ele>160.01</ele>
        <time>2014-03-30T08:47:59Z</time>
      </trkpt>
      <trkpt lat="49.23771" lon="1.41685">
        <ele>157.99</ele>
        <time>2014-03-30T08:48:09Z</time>
      </trkpt>
      <trkpt lat="49.23841" lon="1.41683">
        <ele>155.22</ele>
        <time>2014-03-30T08:48:19Z</time>
      </trkpt>
      <trkpt lat="49.23894" lon="1.41681">
        <ele>152.2</ele>
        <time>2014-03-30T08:48:26Z</time>
      </trkpt>
      <trkpt lat="49.23902" lon="1.41681">
        <ele>151.98</ele>
        <time>2014-03-30T08:48:27Z</time>
      </trkpt>
      <trkpt lat="49.23959" lon="1.4168">
        <ele>149.84</ele>
        <time>2014-03-30T08:48:34Z</time>
      </trkpt>
      <trkpt lat="49.24014" lon="1.41686">
        <ele>147.23</ele>
        <time>2014-03-30T08:48:41Z</time>
      </trkpt>
      <trkpt lat="49.24022" lon="1.41686">
        <ele>146.94</ele>
        <time>2014-03-30T08:48:42Z</time>
      </trkpt>
      <trkpt lat="49.24029" lon="1.41687">
        <ele>146.92</ele>
        <time>2014-03-30T08:48:43Z</time>
      </trkpt>
      <trkpt lat="49.24061" lon="1.41694">
        <ele>144.06</ele>
        <time>2014-03-30T08:48:48Z</time>
      </trkpt>
      <trkpt lat="49.24089" lon="1.41692">
        <ele>142.92</ele>
        <time>2014-03-30T08:48:52Z</time>
      </trkpt>
      <trkpt lat="49.24111" lon="1.41695">
        <ele>139.91</ele>
        <time>2014-03-30T08:48:55Z</time>
      </trkpt>
      <trkpt lat="49.24134" lon="1.41712">
        <ele>137.13</ele>
        <time>2014-03-30T08:49:00Z</time>
      </trkpt>
      <trkpt lat="49.24139" lon="1.41718">
        <ele>136.44</ele>
        <time>2014-03-30T08:49:01Z</time>
      </trkpt>
      <trkpt lat="49.24159" lon="1.4175">
        <ele>132.22</ele>
        <time>2014-03-30T08:49:05Z</time>
      </trkpt>
      <trkpt lat="49.2417" lon="1.41768">
        <ele>128.87</ele>
        <time>2014-03-30T08:49:07Z</time>
      </trkpt>
      <trkpt lat="49.24183" lon="1.41785">
        <ele>125.86</ele>
        <time>2014-03-30T08:49:09Z</time>
      </trkpt>
      <trkpt lat="49.24208" lon="1.41818">
        <ele>122.21</ele>
        <time>2014-03-30T08:49:13Z</time>
      </trkpt>
      <trkpt lat="49.24228" lon="1.41843">
        <ele>118.15</ele>
        <time>2014-03-30T08:49:16Z</time>
      </trkpt>
      <trkpt lat="49.24234" lon="1.4185">
        <ele>117.32</ele>
        <time>2014-03-30T08:49:17Z</time>
      </trkpt>
      <trkpt lat="49.24242" lon="1.41867">
        <ele>116.49</ele>
        <time>2014-03-30T08:49:19Z</time>
      </trkpt>
      <trkpt lat="49.24256" lon="1.41892">
        <ele>114.16</ele>
        <time>2014-03-30T08:49:22Z</time>
      </trkpt>
      <trkpt lat="49.24264" lon="1.41909">
        <ele>112.26</ele>
        <time>2014-03-30T08:49:24Z</time>
      </trkpt>
      <trkpt lat="49.24277" lon="1.4193">
        <ele>109.23</ele>
        <time>2014-03-30T08:49:27Z</time>
      </trkpt>
      <trkpt lat="49.24288" lon="1.41954">
        <ele>107.63</ele>
        <time>2014-03-30T08:49:30Z</time>
      </trkpt>
      <trkpt lat="49.24294" lon="1.4199">
        <ele>101.99</ele>
        <time>2014-03-30T08:49:34Z</time>
      </trkpt>
      <trkpt lat="49.24307" lon="1.42037">
        <ele>96.96</ele>
        <time>2014-03-30T08:49:39Z</time>
      </trkpt>
      <trkpt lat="49.24321" lon="1.42067">
        <ele>92.98</ele>
        <time>2014-03-30T08:49:42Z</time>
      </trkpt>
      <trkpt lat="49.24334" lon="1.42098">
        <ele>89.04</ele>
        <time>2014-03-30T08:49:46Z</time>
      </trkpt>
      <trkpt lat="49.24337" lon="1.42114">
        <ele>86.96</ele>
        <time>2014-03-30T08:49:49Z</time>
      </trkpt>
      <trkpt lat="49.2433" lon="1.42125">
        <ele>84.53</ele>
        <time>2014-03-30T08:49:51Z</time>
      </trkpt>
      <trkpt lat="49.24314" lon="1.42147">
        <ele>79.88</ele>
        <time>2014-03-30T08:49:55Z</time>
      </trkpt>
      <trkpt lat="49.24305" lon="1.4216">
        <ele>76.64</ele>
        <time>2014-03-30T08:49:57Z</time>
      </trkpt>
      <trkpt lat="49.24292" lon="1.42178">
        <ele>72.22</ele>
        <time>2014-03-30T08:50:00Z</time>
      </trkpt>
      <trkpt lat="49.24294" lon="1.42204">
        <ele>69.51</ele>
        <time>2014-03-30T08:50:04Z</time>
      </trkpt>
      <trkpt lat="49.24301" lon="1.4222">
        <ele>67.65</ele>
        <time>2014-03-30T08:50:06Z</time>
      </trkpt>
      <trkpt lat="49.24319" lon="1.42253">
        <ele>63.9</ele>
        <time>2014-03-30T08:50:10Z</time>
      </trkpt>
      <trkpt lat="49.24335" lon="1.42284">
        <ele>62.08</ele>
        <time>2014-03-30T08:50:13Z</time>
      </trkpt>
      <trkpt lat="49.24373" lon="1.42321">
        <ele>59.11</ele>
        <time>2014-03-30T08:50:18Z</time>
      </trkpt>
      <trkpt lat="49.24411" lon="1.42337">
        <ele>55.15</ele>
        <time>2014-03-30T08:50:24Z</time>
      </trkpt>
      <trkpt lat="49.24424" lon="1.42337">
        <ele>53.41</ele>
        <time>2014-03-30T08:50:26Z</time>
      </trkpt>
      <trkpt lat="49.24448" lon="1.42345">
        <ele>48.14</ele>
        <time>2014-03-30T08:50:29Z</time>
      </trkpt>
      <trkpt lat="49.24489" lon="1.42351">
        <ele>45.72</ele>
        <time>2014-03-30T08:50:33Z</time>
      </trkpt>
      <trkpt lat="49.24508" lon="1.42352">
        <ele>41.11</ele>
        <time>2014-03-30T08:50:35Z</time>
      </trkpt>
      <trkpt lat="49.24535" lon="1.42365">
        <ele>36.75</ele>
        <time>2014-03-30T08:50:40Z</time>
      </trkpt>
      <trkpt lat="49.24537" lon="1.42366">
        <ele>36.54</ele>
        <time>2014-03-30T08:50:41Z</time>
      </trkpt>
      <trkpt lat="49.24543" lon="1.42366">
        <ele>36.29</ele>
        <time>2014-03-30T08:50:45Z</time>
      </trkpt>
      <trkpt lat="49.24544" lon="1.42351">
        <ele>36.28</ele>
        <time>2014-03-30T08:50:50Z</time>
      </trkpt>
      <trkpt lat="49.24543" lon="1.42311">
        <ele>35.11</ele>
        <time>2014-03-30T08:50:56Z</time>
      </trkpt>
      <trkpt lat="49.24557" lon="1.42293">
        <ele>33.64</ele>
        <time>2014-03-30T08:51:00Z</time>
      </trkpt>
      <trkpt lat="49.24609" lon="1.42267">
        <ele>31.48</ele>
        <time>2014-03-30T08:51:08Z</time>
      </trkpt>
      <trkpt lat="49.24656" lon="1.42246">
        <ele>28.96</ele>
        <time>2014-03-30T08:51:15Z</time>
      </trkpt>
      <trkpt lat="49.24686" lon="1.42229">
        <ele>29.02</ele>
        <time>2014-03-30T08:51:21Z</time>
      </trkpt>
      <trkpt lat="49.24689" lon="1.42224">
        <ele>29.08</ele>
        <time>2014-03-30T08:51:22Z</time>
      </trkpt>
      <trkpt lat="49.24719" lon="1.42197">
        <ele>29.21</ele>
        <time>2014-03-30T08:51:30Z</time>
      </trkpt>
      <trkpt lat="49.24749" lon="1.42197">
        <ele>30.09</ele>
        <time>2014-03-30T08:51:38Z</time>
      </trkpt>
      <trkpt lat="49.24754" lon="1.42204">
        <ele>30.18</ele>
        <time>2014-03-30T08:51:40Z</time>
      </trkpt>
      <trkpt lat="49.24758" lon="1.42238">
        <ele>30.3</ele>
        <time>2014-03-30T08:51:47Z</time>
      </trkpt>
      <trkpt lat="49.24756" lon="1.42268">
        <ele>30.56</ele>
        <time>2014-03-30T08:51:53Z</time>
      </trkpt>
      <trkpt lat="49.24754" lon="1.42286">
        <ele>30.78</ele>
        <time>2014-03-30T08:51:58Z</time>
      </trkpt>
      <trkpt lat="49.24752" lon="1.42289">
        <ele>30.77</ele>
        <time>2014-03-30T08:52:04Z</time>
      </trkpt>
      <trkpt lat="49.24751" lon="1.42288">
        <ele>30.84</ele>
        <time>2014-03-30T08:52:21Z</time>
      </trkpt>
      <trkpt lat="49.2475" lon="1.42288">
        <ele>30.74</ele>
        <time>2014-03-30T08:52:32Z</time>
      </trkpt>
      <trkpt lat="49.2475" lon="1.42288">
        <ele>31.14</ele>
        <time>2014-03-30T08:52:46Z</time>
      </trkpt>
      <trkpt lat="49.2475" lon="1.42289">
        <ele>30.88</ele>
        <time>2014-03-30T08:53:00Z</time>
      </trkpt>
      <trkpt lat="49.24749" lon="1.42288">
        <ele>31.32</ele>
        <time>2014-03-30T08:53:14Z</time>
      </trkpt>
      <trkpt lat="49.24748" lon="1.42288">
        <ele>31.43</ele>
        <time>2014-03-30T08:53:27Z</time>
      </trkpt>
      <trkpt lat="49.24748" lon="1.42288">
        <ele>31.3</ele>
        <time>2014-03-30T08:53:36Z</time>
      </trkpt>
      <trkpt lat="49.24747" lon="1.42288">
        <ele>31.44</ele>
        <time>2014-03-30T08:53:43Z</time>
      </trkpt>
      <trkpt lat="49.24746" lon="1.42289">
        <ele>31.84</ele>
        <time>2014-03-30T08:53:51Z</time>
      </trkpt>
      <trkpt lat="49.24748" lon="1.4229">
        <ele>31.75</ele>
        <time>2014-03-30T08:54:04Z</time>
      </trkpt>
      <trkpt lat="49.24749" lon="1.4229">
        <ele>31.41</ele>
        <time>2014-03-30T08:54:19Z</time>
      </trkpt>
      <trkpt lat="49.24748" lon="1.42289">
        <ele>31.3</ele>
        <time>2014-03-30T08:54:30Z</time>
      </trkpt>
      <trkpt lat="49.24746" lon="1.42292">
        <ele>30.99</ele>
        <time>2014-03-30T08:54:43Z</time>
      </trkpt>
      <trkpt lat="49.24747" lon="1.42292">
        <ele>31.44</ele>
        <time>2014-03-30T08:54:56Z</time>
      </trkpt>
      <trkpt lat="49.24748" lon="1.42291">
        <ele>30.84</ele>
        <time>2014-03-30T08:55:07Z</time>
      </trkpt>
      <trkpt lat="49.24747" lon="1.42291">
        <ele>31.27</ele>
        <time>2014-03-30T08:55:22Z</time>
      </trkpt>
      <trkpt lat="49.24746" lon="1.4229">
        <ele>31.23</ele>
        <time>2014-03-30T08:55:36Z</time>
      </trkpt>
      <trkpt lat="49.24746" lon="1.42289">
        <ele>32.22</ele>
        <time>2014-03-30T08:55:49Z</time>
      </trkpt>
      <trkpt lat="49.24748" lon="1.42285">
        <ele>31.41</ele>
        <time>2014-03-30T08:56:01Z</time>
      </trkpt>
      <trkpt lat="49.24749" lon="1.42285">
        <ele>30.99</ele>
        <time>2014-03-30T08:56:16Z</time>
      </trkpt>
      <trkpt lat="49.24751" lon="1.42285">
        <ele>31.28</ele>
        <time>2014-03-30T08:56:28Z</time>
      </trkpt>
      <trkpt lat="49.2475" lon="1.42282">
        <ele>31.18</ele>
        <time>2014-03-30T08:56:38Z</time>
      </trkpt>
      <trkpt lat="49.24751" lon="1.42275">
        <ele>31.16</ele>
        <time>2014-03-30T08:56:48Z</time>
      </trkpt>
      <trkpt lat="49.24758" lon="1.42268">
        <ele>31.14</ele>
        <time>2014-03-30T08:56:59Z</time>
      </trkpt>
      <trkpt lat="49.24757" lon="1.42258">
        <ele>31.22</ele>
        <time>2014-03-30T08:57:08Z</time>
      </trkpt>
      <trkpt lat="49.24756" lon="1.42227">
        <ele>31.15</ele>
        <time>2014-03-30T08:57:15Z</time>
      </trkpt>
      <trkpt lat="49.24753" lon="1.422">
        <ele>30.91</ele>
        <time>2014-03-30T08:57:21Z</time>
      </trkpt>
      <trkpt lat="49.2475" lon="1.42193">
        <ele>30.91</ele>
        <time>2014-03-30T08:57:23Z</time>
      </trkpt>
      <trkpt lat="49.2473" lon="1.42188">
        <ele>30.66</ele>
        <time>2014-03-30T08:57:29Z</time>
      </trkpt>
      <trkpt lat="49.24709" lon="1.42199">
        <ele>29.81</ele>
        <time>2014-03-30T08:57:35Z</time>
      </trkpt>
      <trkpt lat="49.24694" lon="1.42207">
        <ele>29.75</ele>
        <time>2014-03-30T08:57:40Z</time>
      </trkpt>
      <trkpt lat="49.2468" lon="1.42213">
        <ele>29.69</ele>
        <time>2014-03-30T08:57:45Z</time>
      </trkpt>
      <trkpt lat="49.24662" lon="1.42235">
        <ele>29.59</ele>
        <time>2014-03-30T08:57:51Z</time>
      </trkpt>
      <trkpt lat="49.24623" lon="1.42252">
        <ele>30.83</ele>
        <time>2014-03-30T08:58:02Z</time>
      </trkpt>
      <trkpt lat="49.24604" lon="1.42263">
        <ele>31.52</ele>
        <time>2014-03-30T08:58:08Z</time>
      </trkpt>
      <trkpt lat="49.24578" lon="1.42275">
        <ele>32.34</ele>
        <time>2014-03-30T08:58:17Z</time>
      </trkpt>
      <trkpt lat="49.2456" lon="1.42284">
        <ele>33.59</ele>
        <time>2014-03-30T08:58:24Z</time>
      </trkpt>
      <trkpt lat="49.2454" lon="1.423">
        <ele>35.17</ele>
        <time>2014-03-30T08:58:32Z</time>
      </trkpt>
      <trkpt lat="49.24539" lon="1.42334">
        <ele>35.91</ele>
        <time>2014-03-30T08:58:39Z</time>
      </trkpt>
      <trkpt lat="49.24541" lon="1.4235">
        <ele>36.24</ele>
        <time>2014-03-30T08:58:43Z</time>
      </trkpt>
      <trkpt lat="49.24532" lon="1.42355">
        <ele>37.1</ele>
        <time>2014-03-30T08:58:48Z</time>
      </trkpt>
      <trkpt lat="49.24528" lon="1.42353">
        <ele>37.41</ele>
        <time>2014-03-30T08:58:50Z</time>
      </trkpt>
      <trkpt lat="49.24515" lon="1.42343">
        <ele>39.45</ele>
        <time>2014-03-30T08:58:58Z</time>
      </trkpt>
      <trkpt lat="49.24511" lon="1.42343">
        <ele>40.22</ele>
        <time>2014-03-30T08:59:01Z</time>
      </trkpt>
      <trkpt lat="49.24499" lon="1.42345">
        <ele>41.95</ele>
        <time>2014-03-30T08:59:08Z</time>
      </trkpt>
      <trkpt lat="49.24495" lon="1.42345">
        <ele>42.41</ele>
        <time>2014-03-30T08:59:10Z</time>
      </trkpt>
      <trkpt lat="49.2448" lon="1.42345">
        <ele>44.13</ele>
        <time>2014-03-30T08:59:18Z</time>
      </trkpt>
      <trkpt lat="49.24464" lon="1.42343">
        <ele>46.37</ele>
        <time>2014-03-30T08:59:28Z</time>
      </trkpt>
      <trkpt lat="49.24449" lon="1.4234">
        <ele>47.88</ele>
        <time>2014-03-30T08:59:35Z</time>
      </trkpt>
      <trkpt lat="49.24434" lon="1.42334">
        <ele>50</ele>
        <time>2014-03-30T08:59:44Z</time>
      </trkpt>
      <trkpt lat="49.24425" lon="1.4233">
        <ele>51.54</ele>
        <time>2014-03-30T08:59:51Z</time>
      </trkpt>
      <trkpt lat="49.24418" lon="1.42326">
        <ele>52.78</ele>
        <time>2014-03-30T08:59:56Z</time>
      </trkpt>
      <trkpt lat="49.24405" lon="1.4233">
        <ele>54.61</ele>
        <time>2014-03-30T09:00:04Z</time>
      </trkpt>
      <trkpt lat="49.24393" lon="1.42327">
        <ele>55.75</ele>
        <time>2014-03-30T09:00:10Z</time>
      </trkpt>
      <trkpt lat="49.2439" lon="1.42324">
        <ele>56.66</ele>
        <time>2014-03-30T09:00:12Z</time>
      </trkpt>
      <trkpt lat="49.24377" lon="1.42316">
        <ele>58.1</ele>
        <time>2014-03-30T09:00:20Z</time>
      </trkpt>
      <trkpt lat="49.24367" lon="1.42312">
        <ele>58.82</ele>
        <time>2014-03-30T09:00:25Z</time>
      </trkpt>
      <trkpt lat="49.24351" lon="1.42301">
        <ele>59.94</ele>
        <time>2014-03-30T09:00:32Z</time>
      </trkpt>
      <trkpt lat="49.24337" lon="1.42287">
        <ele>61.08</ele>
        <time>2014-03-30T09:00:39Z</time>
      </trkpt>
      <trkpt lat="49.24327" lon="1.42269">
        <ele>62.48</ele>
        <time>2014-03-30T09:00:47Z</time>
      </trkpt>
      <trkpt lat="49.24324" lon="1.42265">
        <ele>63.09</ele>
        <time>2014-03-30T09:00:49Z</time>
      </trkpt>
      <trkpt lat="49.24314" lon="1.42243">
        <ele>65.13</ele>
        <time>2014-03-30T09:00:58Z</time>
      </trkpt>
      <trkpt lat="49.24306" lon="1.42229">
        <ele>66.35</ele>
        <time>2014-03-30T09:01:05Z</time>
      </trkpt>
      <trkpt lat="49.24297" lon="1.42212">
        <ele>67.5</ele>
        <time>2014-03-30T09:01:12Z</time>
      </trkpt>
      <trkpt lat="49.24289" lon="1.42194">
        <ele>68.89</ele>
        <time>2014-03-30T09:01:20Z</time>
      </trkpt>
      <trkpt lat="49.24288" lon="1.42182">
        <ele>70.75</ele>
        <time>2014-03-30T09:01:25Z</time>
      </trkpt>
      <trkpt lat="49.24298" lon="1.42168">
        <ele>72.27</ele>
        <time>2014-03-30T09:01:35Z</time>
      </trkpt>
      <trkpt lat="49.24303" lon="1.42161">
        <ele>73.47</ele>
        <time>2014-03-30T09:01:41Z</time>
      </trkpt>
      <trkpt lat="49.24303" lon="1.4216">
        <ele>73.17</ele>
        <time>2014-03-30T09:01:53Z</time>
      </trkpt>
      <trkpt lat="49.24302" lon="1.42159">
        <ele>73.33</ele>
        <time>2014-03-30T09:02:06Z</time>
      </trkpt>
      <trkpt lat="49.24301" lon="1.42157">
        <ele>73.26</ele>
        <time>2014-03-30T09:02:24Z</time>
      </trkpt>
      <trkpt lat="49.24302" lon="1.42157">
        <ele>73.21</ele>
        <time>2014-03-30T09:02:38Z</time>
      </trkpt>
      <trkpt lat="49.24303" lon="1.42157">
        <ele>73.45</ele>
        <time>2014-03-30T09:02:52Z</time>
      </trkpt>
      <trkpt lat="49.24304" lon="1.42157">
        <ele>73.17</ele>
        <time>2014-03-30T09:03:08Z</time>
      </trkpt>
      <trkpt lat="49.24305" lon="1.42157">
        <ele>73.85</ele>
        <time>2014-03-30T09:03:25Z</time>
      </trkpt>
      <trkpt lat="49.24305" lon="1.42158">
        <ele>73.24</ele>
        <time>2014-03-30T09:03:39Z</time>
      </trkpt>
      <trkpt lat="49.24304" lon="1.42158">
        <ele>73.04</ele>
        <time>2014-03-30T09:03:55Z</time>
      </trkpt>
      <trkpt lat="49.24304" lon="1.42157">
        <ele>73.76</ele>
        <time>2014-03-30T09:04:10Z</time>
      </trkpt>
      <trkpt lat="49.24305" lon="1.42158">
        <ele>73.68</ele>
        <time>2014-03-30T09:04:26Z</time>
      </trkpt>
      <trkpt lat="49.24305" lon="1.42159">
        <ele>73.44</ele>
        <time>2014-03-30T09:04:41Z</time>
      </trkpt>
      <trkpt lat="49.24304" lon="1.42158">
        <ele>72.44</ele>
        <time>2014-03-30T09:04:55Z</time>
      </trkpt>
      <trkpt lat="49.24305" lon="1.42161">
        <ele>72.87</ele>
        <time>2014-03-30T09:05:07Z</time>
      </trkpt>
      <trkpt lat="49.24305" lon="1.4216">
        <ele>72.84</ele>
        <time>2014-03-30T09:05:36Z</time>
      </trkpt>
      <trkpt lat="49.24305" lon="1.4216">
        <ele>72.95</ele>
        <time>2014-03-30T09:06:25Z</time>
      </trkpt>
      <trkpt lat="49.24304" lon="1.42161">
        <ele>73.4</ele>
        <time>2014-03-30T09:06:52Z</time>
      </trkpt>
      <trkpt lat="49.243" lon="1.42166">
        <ele>72.48</ele>
        <time>2014-03-30T09:07:35Z</time>
      </trkpt>
      <trkpt lat="49.243" lon="1.42167">
        <ele>73.05</ele>
        <time>2014-03-30T09:07:48Z</time>
      </trkpt>
      <trkpt lat="49.243" lon="1.42165">
        <ele>72.54</ele>
        <time>2014-03-30T09:08:01Z</time>
      </trkpt>
      <trkpt lat="49.243" lon="1.42166">
        <ele>72.7</ele>
        <time>2014-03-30T09:08:14Z</time>
      </trkpt>
      <trkpt lat="49.243" lon="1.42166">
        <ele>73.39</ele>
        <time>2014-03-30T09:08:29Z</time>
      </trkpt>
      <trkpt lat="49.24301" lon="1.42165">
        <ele>72.66</ele>
        <time>2014-03-30T09:08:40Z</time>
      </trkpt>
      <trkpt lat="49.24303" lon="1.42163">
        <ele>73.63</ele>
        <time>2014-03-30T09:08:51Z</time>
      </trkpt>
      <trkpt lat="49.24311" lon="1.42152">
        <ele>75.63</ele>
        <time>2014-03-30T09:09:03Z</time>
      </trkpt>
      <trkpt lat="49.24319" lon="1.42141">
        <ele>77.98</ele>
        <time>2014-03-30T09:09:10Z</time>
      </trkpt>
      <trkpt lat="49.2432" lon="1.42137">
        <ele>79.11</ele>
        <time>2014-03-30T09:09:15Z</time>
      </trkpt>
      <trkpt lat="49.24323" lon="1.42135">
        <ele>80.03</ele>
        <time>2014-03-30T09:09:27Z</time>
      </trkpt>
      <trkpt lat="49.24327" lon="1.42128">
        <ele>81.78</ele>
        <time>2014-03-30T09:09:37Z</time>
      </trkpt>
      <trkpt lat="49.24333" lon="1.42122">
        <ele>83.38</ele>
        <time>2014-03-30T09:09:48Z</time>
      </trkpt>
      <trkpt lat="49.24339" lon="1.42107">
        <ele>85.55</ele>
        <time>2014-03-30T09:09:57Z</time>
      </trkpt>
      <trkpt lat="49.24338" lon="1.42093">
        <ele>87.08</ele>
        <time>2014-03-30T09:10:05Z</time>
      </trkpt>
      <trkpt lat="49.2433" lon="1.42078">
        <ele>88.62</ele>
        <time>2014-03-30T09:10:14Z</time>
      </trkpt>
      <trkpt lat="49.24324" lon="1.42064">
        <ele>89.87</ele>
        <time>2014-03-30T09:10:22Z</time>
      </trkpt>
      <trkpt lat="49.24319" lon="1.42049">
        <ele>91.79</ele>
        <time>2014-03-30T09:10:31Z</time>
      </trkpt>
      <trkpt lat="49.24318" lon="1.42045">
        <ele>92.08</ele>
        <time>2014-03-30T09:10:33Z</time>
      </trkpt>
      <trkpt lat="49.24309" lon="1.42025">
        <ele>94.22</ele>
        <time>2014-03-30T09:10:43Z</time>
      </trkpt>
      <trkpt lat="49.24301" lon="1.4201">
        <ele>95.84</ele>
        <time>2014-03-30T09:10:52Z</time>
      </trkpt>
      <trkpt lat="49.24296" lon="1.41997">
        <ele>97.33</ele>
        <time>2014-03-30T09:11:00Z</time>
      </trkpt>
      <trkpt lat="49.24294" lon="1.41985">
        <ele>99.66</ele>
        <time>2014-03-30T09:11:07Z</time>
      </trkpt>
      <trkpt lat="49.24293" lon="1.41973">
        <ele>101.69</ele>
        <time>2014-03-30T09:11:13Z</time>
      </trkpt>
      <trkpt lat="49.24292" lon="1.41967">
        <ele>102.07</ele>
        <time>2014-03-30T09:11:16Z</time>
      </trkpt>
      <trkpt lat="49.24288" lon="1.41948">
        <ele>104.16</ele>
        <time>2014-03-30T09:11:26Z</time>
      </trkpt>
      <trkpt lat="49.24283" lon="1.41934">
        <ele>105.84</ele>
        <time>2014-03-30T09:11:34Z</time>
      </trkpt>
      <trkpt lat="49.24274" lon="1.41924">
        <ele>107.38</ele>
        <time>2014-03-30T09:11:41Z</time>
      </trkpt>
      <trkpt lat="49.24263" lon="1.41911">
        <ele>108.49</ele>
        <time>2014-03-30T09:11:50Z</time>
      </trkpt>
      <trkpt lat="49.24257" lon="1.41896">
        <ele>110</ele>
        <time>2014-03-30T09:11:59Z</time>
      </trkpt>
      <trkpt lat="49.24249" lon="1.41882">
        <ele>111.97</ele>
        <time>2014-03-30T09:12:08Z</time>
      </trkpt>
      <trkpt lat="49.24241" lon="1.41869">
        <ele>113.27</ele>
        <time>2014-03-30T09:12:15Z</time>
      </trkpt>
      <trkpt lat="49.24232" lon="1.41848">
        <ele>115.39</ele>
        <time>2014-03-30T09:12:25Z</time>
      </trkpt>
      <trkpt lat="49.2422" lon="1.41831">
        <ele>116.71</ele>
        <time>2014-03-30T09:12:34Z</time>
      </trkpt>
      <trkpt lat="49.24207" lon="1.41814">
        <ele>118.32</ele>
        <time>2014-03-30T09:12:44Z</time>
      </trkpt>
      <trkpt lat="49.24195" lon="1.41799">
        <ele>119.96</ele>
        <time>2014-03-30T09:12:54Z</time>
      </trkpt>
      <trkpt lat="49.24184" lon="1.41783">
        <ele>122.08</ele>
        <time>2014-03-30T09:13:04Z</time>
      </trkpt>
      <trkpt lat="49.24174" lon="1.4177">
        <ele>124.01</ele>
        <time>2014-03-30T09:13:13Z</time>
      </trkpt>
      <trkpt lat="49.24165" lon="1.41756">
        <ele>125.72</ele>
        <time>2014-03-30T09:13:21Z</time>
      </trkpt>
      <trkpt lat="49.24163" lon="1.41753">
        <ele>126.19</ele>
        <time>2014-03-30T09:13:23Z</time>
      </trkpt>
      <trkpt lat="49.24155" lon="1.41741">
        <ele>128.74</ele>
        <time>2014-03-30T09:13:30Z</time>
      </trkpt>
      <trkpt lat="49.24147" lon="1.41729">
        <ele>131.76</ele>
        <time>2014-03-30T09:13:38Z</time>
      </trkpt>
      <trkpt lat="49.2414" lon="1.41717">
        <ele>134.05</ele>
        <time>2014-03-30T09:13:46Z</time>
      </trkpt>
      <trkpt lat="49.24127" lon="1.41704">
        <ele>136.77</ele>
        <time>2014-03-30T09:13:57Z</time>
      </trkpt>
      <trkpt lat="49.24124" lon="1.41703">
        <ele>136.99</ele>
        <time>2014-03-30T09:13:59Z</time>
      </trkpt>
      <trkpt lat="49.24119" lon="1.41696">
        <ele>137.81</ele>
        <time>2014-03-30T09:14:03Z</time>
      </trkpt>
      <trkpt lat="49.24104" lon="1.41692">
        <ele>139.39</ele>
        <time>2014-03-30T09:14:11Z</time>
      </trkpt>
      <trkpt lat="49.24081" lon="1.41691">
        <ele>141.52</ele>
        <time>2014-03-30T09:14:22Z</time>
      </trkpt>
      <trkpt lat="49.24062" lon="1.41692">
        <ele>143.03</ele>
        <time>2014-03-30T09:14:32Z</time>
      </trkpt>
      <trkpt lat="49.24042" lon="1.41689">
        <ele>145.19</ele>
        <time>2014-03-30T09:14:43Z</time>
      </trkpt>
      <trkpt lat="49.24028" lon="1.41685">
        <ele>146.56</ele>
        <time>2014-03-30T09:14:52Z</time>
      </trkpt>
      <trkpt lat="49.24006" lon="1.41681">
        <ele>147.87</ele>
        <time>2014-03-30T09:15:00Z</time>
      </trkpt>
      <trkpt lat="49.23982" lon="1.41677">
        <ele>148.68</ele>
        <time>2014-03-30T09:15:09Z</time>
      </trkpt>
      <trkpt lat="49.23951" lon="1.41676">
        <ele>150.39</ele>
        <time>2014-03-30T09:15:19Z</time>
      </trkpt>
      <trkpt lat="49.2392" lon="1.41677">
        <ele>151.7</ele>
        <time>2014-03-30T09:15:29Z</time>
      </trkpt>
      <trkpt lat="49.23892" lon="1.41678">
        <ele>153.38</ele>
        <time>2014-03-30T09:15:38Z</time>
      </trkpt>
      <trkpt lat="49.23867" lon="1.41677">
        <ele>154.52</ele>
        <time>2014-03-30T09:15:46Z</time>
      </trkpt>
      <trkpt lat="49.23841" lon="1.41677">
        <ele>155.77</ele>
        <time>2014-03-30T09:15:54Z</time>
      </trkpt>
      <trkpt lat="49.23807" lon="1.41678">
        <ele>157.17</ele>
        <time>2014-03-30T09:16:04Z</time>
      </trkpt>
      <trkpt lat="49.23776" lon="1.41681">
        <ele>158.12</ele>
        <time>2014-03-30T09:16:13Z</time>
      </trkpt>
      <trkpt lat="49.23749" lon="1.41681">
        <ele>158.95</ele>
        <time>2014-03-30T09:16:21Z</time>
      </trkpt>
      <trkpt lat="49.23702" lon="1.41683">
        <ele>160.12</ele>
        <time>2014-03-30T09:16:33Z</time>
      </trkpt>
      <trkpt lat="49.23698" lon="1.41682">
        <ele>160.08</ele>
        <time>2014-03-30T09:16:34Z</time>
      </trkpt>
      <trkpt lat="49.23691" lon="1.41655">
        <ele>160.08</ele>
        <time>2014-03-30T09:16:39Z</time>
      </trkpt>
      <trkpt lat="49.23685" lon="1.41569">
        <ele>160.47</ele>
        <time>2014-03-30T09:16:51Z</time>
      </trkpt>
      <trkpt lat="49.23686" lon="1.41499">
        <ele>160.91</ele>
        <time>2014-03-30T09:17:00Z</time>
      </trkpt>
      <trkpt lat="49.23695" lon="1.41435">
        <ele>161.14</ele>
        <time>2014-03-30T09:17:08Z</time>
      </trkpt>
      <trkpt lat="49.23709" lon="1.41361">
        <ele>161.36</ele>
        <time>2014-03-30T09:17:17Z</time>
      </trkpt>
      <trkpt lat="49.23721" lon="1.41294">
        <ele>161.87</ele>
        <time>2014-03-30T09:17:25Z</time>
      </trkpt>
      <trkpt lat="49.23738" lon="1.41218">
        <ele>161.85</ele>
        <time>2014-03-30T09:17:34Z</time>
      </trkpt>
      <trkpt lat="49.23748" lon="1.41184">
        <ele>161.88</ele>
        <time>2014-03-30T09:17:38Z</time>
      </trkpt>
      <trkpt lat="49.23758" lon="1.41147">
        <ele>161.42</ele>
        <time>2014-03-30T09:17:44Z</time>
      </trkpt>
      <trkpt lat="49.2377" lon="1.41149">
        <ele>161.38</ele>
        <time>2014-03-30T09:17:47Z</time>
      </trkpt>
      <trkpt lat="49.23779" lon="1.41153">
        <ele>161.17</ele>
        <time>2014-03-30T09:17:49Z</time>
      </trkpt>
      <trkpt lat="49.23792" lon="1.41158">
        <ele>161.23</ele>
        <time>2014-03-30T09:17:52Z</time>
      </trkpt>
      <trkpt lat="49.23801" lon="1.41159">
        <ele>161.02</ele>
        <time>2014-03-30T09:17:54Z</time>
      </trkpt>
      <trkpt lat="49.23841" lon="1.4117">
        <ele>160.23</ele>
        <time>2014-03-30T09:18:02Z</time>
      </trkpt>
      <trkpt lat="49.23863" lon="1.41183">
        <ele>159.03</ele>
        <time>2014-03-30T09:18:06Z</time>
      </trkpt>
      <trkpt lat="49.23887" lon="1.412">
        <ele>158.52</ele>
        <time>2014-03-30T09:18:11Z</time>
      </trkpt>
      <trkpt lat="49.2389" lon="1.412">
        <ele>158.2</ele>
        <time>2014-03-30T09:18:12Z</time>
      </trkpt>
      <trkpt lat="49.23912" lon="1.41187">
        <ele>155.22</ele>
        <time>2014-03-30T09:18:19Z</time>
      </trkpt>
      <trkpt lat="49.23916" lon="1.41185">
        <ele>154.95</ele>
        <time>2014-03-30T09:18:20Z</time>
      </trkpt>
      <trkpt lat="49.23931" lon="1.41182">
        <ele>152.65</ele>
        <time>2014-03-30T09:18:25Z</time>
      </trkpt>
      <trkpt lat="49.23934" lon="1.41181">
        <ele>152.16</ele>
        <time>2014-03-30T09:18:27Z</time>
      </trkpt>
      <trkpt lat="49.23938" lon="1.41178">
        <ele>150.85</ele>
        <time>2014-03-30T09:18:29Z</time>
      </trkpt>
      <trkpt lat="49.23953" lon="1.41173">
        <ele>146.81</ele>
        <time>2014-03-30T09:18:34Z</time>
      </trkpt>
      <trkpt lat="49.23972" lon="1.41169">
        <ele>143.57</ele>
        <time>2014-03-30T09:18:39Z</time>
      </trkpt>
      <trkpt lat="49.23974" lon="1.41166">
        <ele>142.93</ele>
        <time>2014-03-30T09:18:41Z</time>
      </trkpt>
      <trkpt lat="49.23979" lon="1.4116">
        <ele>141.84</ele>
        <time>2014-03-30T09:18:44Z</time>
      </trkpt>
      <trkpt lat="49.23983" lon="1.41155">
        <ele>140.42</ele>
        <time>2014-03-30T09:18:46Z</time>
      </trkpt>
      <trkpt lat="49.23995" lon="1.41147">
        <ele>135.73</ele>
        <time>2014-03-30T09:18:52Z</time>
      </trkpt>
      <trkpt lat="49.24007" lon="1.4115">
        <ele>132.44</ele>
        <time>2014-03-30T09:18:58Z</time>
      </trkpt>
      <trkpt lat="49.24018" lon="1.41153">
        <ele>128.25</ele>
        <time>2014-03-30T09:19:04Z</time>
      </trkpt>
      <trkpt lat="49.24019" lon="1.41154">
        <ele>127.61</ele>
        <time>2014-03-30T09:19:05Z</time>
      </trkpt>
      <trkpt lat="49.24022" lon="1.4116">
        <ele>126.96</ele>
        <time>2014-03-30T09:19:07Z</time>
      </trkpt>
      <trkpt lat="49.24034" lon="1.41176">
        <ele>125.17</ele>
        <time>2014-03-30T09:19:14Z</time>
      </trkpt>
      <trkpt lat="49.24042" lon="1.41196">
        <ele>123.76</ele>
        <time>2014-03-30T09:19:20Z</time>
      </trkpt>
      <trkpt lat="49.24052" lon="1.41202">
        <ele>121.37</ele>
        <time>2014-03-30T09:19:25Z</time>
      </trkpt>
      <trkpt lat="49.24057" lon="1.41206">
        <ele>119.27</ele>
        <time>2014-03-30T09:19:29Z</time>
      </trkpt>
      <trkpt lat="49.24065" lon="1.41211">
        <ele>117.62</ele>
        <time>2014-03-30T09:19:36Z</time>
      </trkpt>
      <trkpt lat="49.24069" lon="1.41215">
        <ele>116.75</ele>
        <time>2014-03-30T09:19:39Z</time>
      </trkpt>
      <trkpt lat="49.24077" lon="1.41211">
        <ele>114.2</ele>
        <time>2014-03-30T09:19:43Z</time>
      </trkpt>
      <trkpt lat="49.24084" lon="1.41207">
        <ele>110.93</ele>
        <time>2014-03-30T09:19:47Z</time>
      </trkpt>
      <trkpt lat="49.24095" lon="1.41204">
        <ele>107.35</ele>
        <time>2014-03-30T09:19:52Z</time>
      </trkpt>
      <trkpt lat="49.241" lon="1.41204">
        <ele>104.92</ele>
        <time>2014-03-30T09:19:56Z</time>
      </trkpt>
      <trkpt lat="49.24103" lon="1.41202">
        <ele>103.93</ele>
        <time>2014-03-30T09:19:58Z</time>
      </trkpt>
      <trkpt lat="49.2411" lon="1.41186">
        <ele>100.54</ele>
        <time>2014-03-30T09:20:04Z</time>
      </trkpt>
      <trkpt lat="49.24115" lon="1.41175">
        <ele>98.04</ele>
        <time>2014-03-30T09:20:07Z</time>
      </trkpt>
      <trkpt lat="49.24129" lon="1.41164">
        <ele>94.16</ele>
        <time>2014-03-30T09:20:11Z</time>
      </trkpt>
      <trkpt lat="49.24137" lon="1.41159">
        <ele>92.44</ele>
        <time>2014-03-30T09:20:14Z</time>
      </trkpt>
      <trkpt lat="49.2415" lon="1.41152">
        <ele>90.28</ele>
        <time>2014-03-30T09:20:18Z</time>
      </trkpt>
      <trkpt lat="49.24151" lon="1.41141">
        <ele>88.18</ele>
        <time>2014-03-30T09:20:22Z</time>
      </trkpt>
      <trkpt lat="49.24149" lon="1.41135">
        <ele>86.75</ele>
        <time>2014-03-30T09:20:24Z</time>
      </trkpt>
      <trkpt lat="49.24153" lon="1.41117">
        <ele>83.08</ele>
        <time>2014-03-30T09:20:28Z</time>
      </trkpt>
      <trkpt lat="49.24154" lon="1.41111">
        <ele>81.21</ele>
        <time>2014-03-30T09:20:29Z</time>
      </trkpt>
      <trkpt lat="49.24157" lon="1.41095">
        <ele>75.6</ele>
        <time>2014-03-30T09:20:32Z</time>
      </trkpt>
      <trkpt lat="49.24161" lon="1.41083">
        <ele>72.27</ele>
        <time>2014-03-30T09:20:35Z</time>
      </trkpt>
      <trkpt lat="49.24169" lon="1.41069">
        <ele>68.86</ele>
        <time>2014-03-30T09:20:39Z</time>
      </trkpt>
      <trkpt lat="49.24179" lon="1.41053">
        <ele>64.76</ele>
        <time>2014-03-30T09:20:43Z</time>
      </trkpt>
      <trkpt lat="49.24192" lon="1.41045">
        <ele>61.47</ele>
        <time>2014-03-30T09:20:47Z</time>
      </trkpt>
      <trkpt lat="49.24201" lon="1.41041">
        <ele>59.65</ele>
        <time>2014-03-30T09:20:50Z</time>
      </trkpt>
      <trkpt lat="49.24204" lon="1.41026">
        <ele>58.32</ele>
        <time>2014-03-30T09:20:54Z</time>
      </trkpt>
      <trkpt lat="49.24204" lon="1.41014">
        <ele>56.65</ele>
        <time>2014-03-30T09:20:56Z</time>
      </trkpt>
      <trkpt lat="49.24204" lon="1.40988">
        <ele>53.6</ele>
        <time>2014-03-30T09:21:01Z</time>
      </trkpt>
      <trkpt lat="49.24213" lon="1.40976">
        <ele>52.3</ele>
        <time>2014-03-30T09:21:05Z</time>
      </trkpt>
      <trkpt lat="49.24214" lon="1.40972">
        <ele>52.09</ele>
        <time>2014-03-30T09:21:06Z</time>
      </trkpt>
      <trkpt lat="49.2422" lon="1.40964">
        <ele>51.56</ele>
        <time>2014-03-30T09:21:10Z</time>
      </trkpt>
      <trkpt lat="49.24236" lon="1.40964">
        <ele>47.67</ele>
        <time>2014-03-30T09:21:17Z</time>
      </trkpt>
      <trkpt lat="49.24239" lon="1.40964">
        <ele>47.37</ele>
        <time>2014-03-30T09:21:18Z</time>
      </trkpt>
      <trkpt lat="49.24252" lon="1.40964">
        <ele>44.82</ele>
        <time>2014-03-30T09:21:22Z</time>
      </trkpt>
      <trkpt lat="49.24257" lon="1.40971">
        <ele>43.95</ele>
        <time>2014-03-30T09:21:24Z</time>
      </trkpt>
      <trkpt lat="49.24271" lon="1.4098">
        <ele>43.31</ele>
        <time>2014-03-30T09:21:30Z</time>
      </trkpt>
      <trkpt lat="49.24286" lon="1.40977">
        <ele>40.28</ele>
        <time>2014-03-30T09:21:36Z</time>
      </trkpt>
      <trkpt lat="49.24299" lon="1.41002">
        <ele>37.03</ele>
        <time>2014-03-30T09:21:42Z</time>
      </trkpt>
      <trkpt lat="49.24301" lon="1.41012">
        <ele>36.39</ele>
        <time>2014-03-30T09:21:44Z</time>
      </trkpt>
      <trkpt lat="49.2431" lon="1.41036">
        <ele>34.49</ele>
        <time>2014-03-30T09:21:49Z</time>
      </trkpt>
      <trkpt lat="49.24313" lon="1.41041">
        <ele>34.22</ele>
        <time>2014-03-30T09:21:50Z</time>
      </trkpt>
      <trkpt lat="49.24322" lon="1.41077">
        <ele>31.09</ele>
        <time>2014-03-30T09:21:55Z</time>
      </trkpt>
      <trkpt lat="49.24327" lon="1.41096">
        <ele>29.98</ele>
        <time>2014-03-30T09:22:00Z</time>
      </trkpt>
      <trkpt lat="49.24332" lon="1.41113">
        <ele>28.53</ele>
        <time>2014-03-30T09:22:05Z</time>
      </trkpt>
      <trkpt lat="49.2434" lon="1.41116">
        <ele>26.59</ele>
        <time>2014-03-30T09:22:09Z</time>
      </trkpt>
      <trkpt lat="49.24346" lon="1.41116">
        <ele>25.05</ele>
        <time>2014-03-30T09:22:15Z</time>
      </trkpt>
      <trkpt lat="49.24346" lon="1.41116">
        <ele>25.09</ele>
        <time>2014-03-30T09:22:30Z</time>
      </trkpt>
      <trkpt lat="49.24347" lon="1.41115">
        <ele>25.08</ele>
        <time>2014-03-30T09:22:31Z</time>
      </trkpt>
      <trkpt lat="49.24346" lon="1.41106">
        <ele>25.07</ele>
        <time>2014-03-30T09:22:35Z</time>
      </trkpt>
      <trkpt lat="49.24342" lon="1.41066">
        <ele>24.69</ele>
        <time>2014-03-30T09:22:42Z</time>
      </trkpt>
      <trkpt lat="49.24339" lon="1.41005">
        <ele>24.1</ele>
        <time>2014-03-30T09:22:50Z</time>
      </trkpt>
      <trkpt lat="49.24334" lon="1.40944">
        <ele>24.77</ele>
        <time>2014-03-30T09:22:57Z</time>
      </trkpt>
      <trkpt lat="49.24319" lon="1.40876">
        <ele>23.74</ele>
        <time>2014-03-30T09:23:05Z</time>
      </trkpt>
      <trkpt lat="49.24292" lon="1.40764">
        <ele>23.32</ele>
        <time>2014-03-30T09:23:19Z</time>
      </trkpt>
      <trkpt lat="49.24289" lon="1.40731">
        <ele>22.79</ele>
        <time>2014-03-30T09:23:24Z</time>
      </trkpt>
      <trkpt lat="49.24292" lon="1.407">
        <ele>22.84</ele>
        <time>2014-03-30T09:23:30Z</time>
      </trkpt>
      <trkpt lat="49.24284" lon="1.40692">
        <ele>23.47</ele>
        <time>2014-03-30T09:23:35Z</time>
      </trkpt>
      <trkpt lat="49.24281" lon="1.40672">
        <ele>26.56</ele>
        <time>2014-03-30T09:23:43Z</time>
      </trkpt>
      <trkpt lat="49.24275" lon="1.40649">
        <ele>29.65</ele>
        <time>2014-03-30T09:23:52Z</time>
      </trkpt>
      <trkpt lat="49.24272" lon="1.40643">
        <ele>30.68</ele>
        <time>2014-03-30T09:23:55Z</time>
      </trkpt>
      <trkpt lat="49.24258" lon="1.40642">
        <ele>34.28</ele>
        <time>2014-03-30T09:24:04Z</time>
      </trkpt>
      <trkpt lat="49.24257" lon="1.40642">
        <ele>34.6</ele>
        <time>2014-03-30T09:24:05Z</time>
      </trkpt>
      <trkpt lat="49.24251" lon="1.40641">
        <ele>35.83</ele>
        <time>2014-03-30T09:24:08Z</time>
      </trkpt>
      <trkpt lat="49.24239" lon="1.40635">
        <ele>37.56</ele>
        <time>2014-03-30T09:24:15Z</time>
      </trkpt>
      <trkpt lat="49.24222" lon="1.40632">
        <ele>39.33</ele>
        <time>2014-03-30T09:24:24Z</time>
      </trkpt>
      <trkpt lat="49.24205" lon="1.40636">
        <ele>41.69</ele>
        <time>2014-03-30T09:24:34Z</time>
      </trkpt>
      <trkpt lat="49.2419" lon="1.40645">
        <ele>44.4</ele>
        <time>2014-03-30T09:24:45Z</time>
      </trkpt>
      <trkpt lat="49.24175" lon="1.40645">
        <ele>47.46</ele>
        <time>2014-03-30T09:24:56Z</time>
      </trkpt>
      <trkpt lat="49.24165" lon="1.4064">
        <ele>50.32</ele>
        <time>2014-03-30T09:25:04Z</time>
      </trkpt>
      <trkpt lat="49.24156" lon="1.40635">
        <ele>53.01</ele>
        <time>2014-03-30T09:25:11Z</time>
      </trkpt>
      <trkpt lat="49.24154" lon="1.40633">
        <ele>53.81</ele>
        <time>2014-03-30T09:25:13Z</time>
      </trkpt>
      <trkpt lat="49.24152" lon="1.40631">
        <ele>54.58</ele>
        <time>2014-03-30T09:25:15Z</time>
      </trkpt>
      <trkpt lat="49.24148" lon="1.40628">
        <ele>55.86</ele>
        <time>2014-03-30T09:25:19Z</time>
      </trkpt>
      <trkpt lat="49.24143" lon="1.40626">
        <ele>57.82</ele>
        <time>2014-03-30T09:25:28Z</time>
      </trkpt>
      <trkpt lat="49.2414" lon="1.40616">
        <ele>61.04</ele>
        <time>2014-03-30T09:25:38Z</time>
      </trkpt>
      <trkpt lat="49.24133" lon="1.4061">
        <ele>64.26</ele>
        <time>2014-03-30T09:25:50Z</time>
      </trkpt>
      <trkpt lat="49.24128" lon="1.40606">
        <ele>67.26</ele>
        <time>2014-03-30T09:26:02Z</time>
      </trkpt>
      <trkpt lat="49.24122" lon="1.40601">
        <ele>70.01</ele>
        <time>2014-03-30T09:26:14Z</time>
      </trkpt>
      <trkpt lat="49.24113" lon="1.40598">
        <ele>73.33</ele>
        <time>2014-03-30T09:26:28Z</time>
      </trkpt>
      <trkpt lat="49.24105" lon="1.40595">
        <ele>76.45</ele>
        <time>2014-03-30T09:26:43Z</time>
      </trkpt>
      <trkpt lat="49.24099" lon="1.4059">
        <ele>79.47</ele>
        <time>2014-03-30T09:26:55Z</time>
      </trkpt>
      <trkpt lat="49.24093" lon="1.40587">
        <ele>82.68</ele>
        <time>2014-03-30T09:27:07Z</time>
      </trkpt>
      <trkpt lat="49.24085" lon="1.40585">
        <ele>85.81</ele>
        <time>2014-03-30T09:27:19Z</time>
      </trkpt>
      <trkpt lat="49.24077" lon="1.40583">
        <ele>89.04</ele>
        <time>2014-03-30T09:27:33Z</time>
      </trkpt>
      <trkpt lat="49.24065" lon="1.40576">
        <ele>92.1</ele>
        <time>2014-03-30T09:27:46Z</time>
      </trkpt>
      <trkpt lat="49.24053" lon="1.40577">
        <ele>95.36</ele>
        <time>2014-03-30T09:28:00Z</time>
      </trkpt>
      <trkpt lat="49.24045" lon="1.40581">
        <ele>98.34</ele>
        <time>2014-03-30T09:28:15Z</time>
      </trkpt>
      <trkpt lat="49.24035" lon="1.40586">
        <ele>100.13</ele>
        <time>2014-03-30T09:28:29Z</time>
      </trkpt>
      <trkpt lat="49.24029" lon="1.40582">
        <ele>101.53</ele>
        <time>2014-03-30T09:28:36Z</time>
      </trkpt>
      <trkpt lat="49.24023" lon="1.40578">
        <ele>102.63</ele>
        <time>2014-03-30T09:28:46Z</time>
      </trkpt>
      <trkpt lat="49.2402" lon="1.40579">
        <ele>103</ele>
        <time>2014-03-30T09:28:51Z</time>
      </trkpt>
      <trkpt lat="49.24007" lon="1.40582">
        <ele>105.79</ele>
        <time>2014-03-30T09:29:01Z</time>
      </trkpt>
      <trkpt lat="49.2399" lon="1.40591">
        <ele>108.83</ele>
        <time>2014-03-30T09:29:14Z</time>
      </trkpt>
      <trkpt lat="49.23981" lon="1.40597">
        <ele>111.17</ele>
        <time>2014-03-30T09:29:22Z</time>
      </trkpt>
      <trkpt lat="49.23968" lon="1.40609">
        <ele>111.46</ele>
        <time>2014-03-30T09:29:33Z</time>
      </trkpt>
      <trkpt lat="49.23957" lon="1.4062">
        <ele>111.48</ele>
        <time>2014-03-30T09:29:42Z</time>
      </trkpt>
      <trkpt lat="49.23948" lon="1.40633">
        <ele>111.64</ele>
        <time>2014-03-30T09:29:52Z</time>
      </trkpt>
      <trkpt lat="49.23945" lon="1.4064">
        <ele>112.63</ele>
        <time>2014-03-30T09:30:01Z</time>
      </trkpt>
      <trkpt lat="49.23942" lon="1.40645">
        <ele>113.34</ele>
        <time>2014-03-30T09:30:09Z</time>
      </trkpt>
      <trkpt lat="49.23942" lon="1.40646">
        <ele>114.62</ele>
        <time>2014-03-30T09:30:21Z</time>
      </trkpt>
      <trkpt lat="49.23938" lon="1.40648">
        <ele>115.31</ele>
        <time>2014-03-30T09:30:30Z</time>
      </trkpt>
      <trkpt lat="49.23933" lon="1.40647">
        <ele>117.18</ele>
        <time>2014-03-30T09:30:40Z</time>
      </trkpt>
      <trkpt lat="49.23931" lon="1.40645">
        <ele>117.76</ele>
        <time>2014-03-30T09:30:50Z</time>
      </trkpt>
      <trkpt lat="49.23931" lon="1.40644">
        <ele>119.12</ele>
        <time>2014-03-30T09:31:03Z</time>
      </trkpt>
      <trkpt lat="49.2393" lon="1.40645">
        <ele>118.78</ele>
        <time>2014-03-30T09:31:18Z</time>
      </trkpt>
      <trkpt lat="49.23931" lon="1.40644">
        <ele>117.88</ele>
        <time>2014-03-30T09:31:29Z</time>
      </trkpt>
      <trkpt lat="49.23931" lon="1.40645">
        <ele>117.11</ele>
        <time>2014-03-30T09:31:37Z</time>
      </trkpt>
      <trkpt lat="49.23931" lon="1.40644">
        <ele>118.05</ele>
        <time>2014-03-30T09:31:51Z</time>
      </trkpt>
      <trkpt lat="49.23931" lon="1.40644">
        <ele>118.15</ele>
        <time>2014-03-30T09:32:02Z</time>
      </trkpt>
      <trkpt lat="49.23932" lon="1.40645">
        <ele>119.55</ele>
        <time>2014-03-30T09:32:12Z</time>
      </trkpt>
      <trkpt lat="49.23932" lon="1.40644">
        <ele>118.84</ele>
        <time>2014-03-30T09:32:21Z</time>
      </trkpt>
      <trkpt lat="49.23931" lon="1.40644">
        <ele>119.2</ele>
        <time>2014-03-30T09:32:28Z</time>
      </trkpt>
      <trkpt lat="49.23932" lon="1.40644">
        <ele>120.33</ele>
        <time>2014-03-30T09:32:39Z</time>
      </trkpt>
      <trkpt lat="49.23932" lon="1.40644">
        <ele>119.27</ele>
        <time>2014-03-30T09:32:47Z</time>
      </trkpt>
      <trkpt lat="49.23932" lon="1.40643">
        <ele>118.53</ele>
        <time>2014-03-30T09:32:55Z</time>
      </trkpt>
      <trkpt lat="49.23933" lon="1.40644">
        <ele>119.76</ele>
        <time>2014-03-30T09:33:09Z</time>
      </trkpt>
      <trkpt lat="49.23933" lon="1.40643">
        <ele>118.44</ele>
        <time>2014-03-30T09:33:16Z</time>
      </trkpt>
      <trkpt lat="49.23932" lon="1.40642">
        <ele>119.45</ele>
        <time>2014-03-30T09:33:27Z</time>
      </trkpt>
      <trkpt lat="49.23929" lon="1.40642">
        <ele>119.67</ele>
        <time>2014-03-30T09:33:34Z</time>
      </trkpt>
      <trkpt lat="49.2393" lon="1.40641">
        <ele>120.37</ele>
        <time>2014-03-30T09:33:44Z</time>
      </trkpt>
      <trkpt lat="49.2393" lon="1.4064">
        <ele>119.65</ele>
        <time>2014-03-30T09:33:56Z</time>
      </trkpt>
      <trkpt lat="49.2393" lon="1.4064">
        <ele>119.54</ele>
        <time>2014-03-30T09:34:03Z</time>
      </trkpt>
      <trkpt lat="49.23931" lon="1.40639">
        <ele>119.4</ele>
        <time>2014-03-30T09:34:17Z</time>
      </trkpt>
      <trkpt lat="49.23931" lon="1.40639">
        <ele>119.3</ele>
        <time>2014-03-30T09:34:30Z</time>
      </trkpt>
      <trkpt lat="49.23931" lon="1.4064">
        <ele>119.53</ele>
        <time>2014-03-30T09:34:43Z</time>
      </trkpt>
      <trkpt lat="49.2393" lon="1.40639">
        <ele>119.91</ele>
        <time>2014-03-30T09:34:52Z</time>
      </trkpt>
      <trkpt lat="49.23938" lon="1.40626">
        <ele>119.33</ele>
        <time>2014-03-30T09:34:57Z</time>
      </trkpt>
      <trkpt lat="49.23951" lon="1.40614">
        <ele>118.14</ele>
        <time>2014-03-30T09:35:00Z</time>
      </trkpt>
      <trkpt lat="49.23965" lon="1.406">
        <ele>116.54</ele>
        <time>2014-03-30T09:35:03Z</time>
      </trkpt>
      <trkpt lat="49.23987" lon="1.40581">
        <ele>113.73</ele>
        <time>2014-03-30T09:35:07Z</time>
      </trkpt>
      <trkpt lat="49.24006" lon="1.40573">
        <ele>110.58</ele>
        <time>2014-03-30T09:35:12Z</time>
      </trkpt>
      <trkpt lat="49.24012" lon="1.40572">
        <ele>108.55</ele>
        <time>2014-03-30T09:35:14Z</time>
      </trkpt>
      <trkpt lat="49.24025" lon="1.40564">
        <ele>104.15</ele>
        <time>2014-03-30T09:35:18Z</time>
      </trkpt>
      <trkpt lat="49.24038" lon="1.40557">
        <ele>100.09</ele>
        <time>2014-03-30T09:35:23Z</time>
      </trkpt>
      <trkpt lat="49.24047" lon="1.40548">
        <ele>96.54</ele>
        <time>2014-03-30T09:35:28Z</time>
      </trkpt>
      <trkpt lat="49.24052" lon="1.40541">
        <ele>93.46</ele>
        <time>2014-03-30T09:35:31Z</time>
      </trkpt>
      <trkpt lat="49.24058" lon="1.40535">
        <ele>90.4</ele>
        <time>2014-03-30T09:35:34Z</time>
      </trkpt>
      <trkpt lat="49.24063" lon="1.40533">
        <ele>86.83</ele>
        <time>2014-03-30T09:35:37Z</time>
      </trkpt>
      <trkpt lat="49.2407" lon="1.40524">
        <ele>82.96</ele>
        <time>2014-03-30T09:35:42Z</time>
      </trkpt>
      <trkpt lat="49.24078" lon="1.4052">
        <ele>78.75</ele>
        <time>2014-03-30T09:35:47Z</time>
      </trkpt>
      <trkpt lat="49.24081" lon="1.40517">
        <ele>77.45</ele>
        <time>2014-03-30T09:35:49Z</time>
      </trkpt>
      <trkpt lat="49.2409" lon="1.40503">
        <ele>72.62</ele>
        <time>2014-03-30T09:35:56Z</time>
      </trkpt>
      <trkpt lat="49.24096" lon="1.405">
        <ele>69.25</ele>
        <time>2014-03-30T09:36:00Z</time>
      </trkpt>
      <trkpt lat="49.24097" lon="1.40495">
        <ele>67.77</ele>
        <time>2014-03-30T09:36:02Z</time>
      </trkpt>
      <trkpt lat="49.24108" lon="1.40489">
        <ele>63.02</ele>
        <time>2014-03-30T09:36:07Z</time>
      </trkpt>
      <trkpt lat="49.24111" lon="1.40488">
        <ele>61.15</ele>
        <time>2014-03-30T09:36:09Z</time>
      </trkpt>
      <trkpt lat="49.24116" lon="1.40482">
        <ele>58.14</ele>
        <time>2014-03-30T09:36:13Z</time>
      </trkpt>
      <trkpt lat="49.24126" lon="1.40468">
        <ele>53.71</ele>
        <time>2014-03-30T09:36:19Z</time>
      </trkpt>
      <trkpt lat="49.24129" lon="1.40465">
        <ele>51.91</ele>
        <time>2014-03-30T09:36:21Z</time>
      </trkpt>
      <trkpt lat="49.24141" lon="1.40455">
        <ele>46.74</ele>
        <time>2014-03-30T09:36:27Z</time>
      </trkpt>
      <trkpt lat="49.2415" lon="1.40461">
        <ele>44.49</ele>
        <time>2014-03-30T09:36:33Z</time>
      </trkpt>
      <trkpt lat="49.24151" lon="1.40462">
        <ele>44.61</ele>
        <time>2014-03-30T09:36:46Z</time>
      </trkpt>
      <trkpt lat="49.24151" lon="1.40462">
        <ele>44.34</ele>
        <time>2014-03-30T09:36:59Z</time>
      </trkpt>
      <trkpt lat="49.24151" lon="1.40461">
        <ele>44.04</ele>
        <time>2014-03-30T09:37:00Z</time>
      </trkpt>
      <trkpt lat="49.24159" lon="1.4044">
        <ele>40.36</ele>
        <time>2014-03-30T09:37:06Z</time>
      </trkpt>
      <trkpt lat="49.24167" lon="1.40429">
        <ele>37.28</ele>
        <time>2014-03-30T09:37:09Z</time>
      </trkpt>
      <trkpt lat="49.24172" lon="1.40421">
        <ele>34</ele>
        <time>2014-03-30T09:37:11Z</time>
      </trkpt>
      <trkpt lat="49.24179" lon="1.4041">
        <ele>30.64</ele>
        <time>2014-03-30T09:37:14Z</time>
      </trkpt>
      <trkpt lat="49.24187" lon="1.404">
        <ele>27.63</ele>
        <time>2014-03-30T09:37:17Z</time>
      </trkpt>
      <trkpt lat="49.24192" lon="1.40397">
        <ele>25.78</ele>
        <time>2014-03-30T09:37:20Z</time>
      </trkpt>
      <trkpt lat="49.24192" lon="1.40396">
        <ele>25.41</ele>
        <time>2014-03-30T09:37:21Z</time>
      </trkpt>
      <trkpt lat="49.24203" lon="1.40381">
        <ele>24.15</ele>
        <time>2014-03-30T09:37:28Z</time>
      </trkpt>
      <trkpt lat="49.24207" lon="1.40362">
        <ele>23.98</ele>
        <time>2014-03-30T09:37:32Z</time>
      </trkpt>
      <trkpt lat="49.24209" lon="1.40344">
        <ele>24.47</ele>
        <time>2014-03-30T09:37:35Z</time>
      </trkpt>
      <trkpt lat="49.24211" lon="1.40325">
        <ele>24.05</ele>
        <time>2014-03-30T09:37:38Z</time>
      </trkpt>
      <trkpt lat="49.24215" lon="1.40318">
        <ele>23.12</ele>
        <time>2014-03-30T09:37:40Z</time>
      </trkpt>
      <trkpt lat="49.24221" lon="1.40302">
        <ele>22.82</ele>
        <time>2014-03-30T09:37:45Z</time>
      </trkpt>
      <trkpt lat="49.24221" lon="1.40279">
        <ele>22.43</ele>
        <time>2014-03-30T09:37:50Z</time>
      </trkpt>
      <trkpt lat="49.24222" lon="1.40275">
        <ele>22.38</ele>
        <time>2014-03-30T09:37:51Z</time>
      </trkpt>
      <trkpt lat="49.24237" lon="1.40235">
        <ele>22.86</ele>
        <time>2014-03-30T09:38:00Z</time>
      </trkpt>
      <trkpt lat="49.24239" lon="1.4023">
        <ele>22.92</ele>
        <time>2014-03-30T09:38:01Z</time>
      </trkpt>
      <trkpt lat="49.24242" lon="1.40203">
        <ele>23.49</ele>
        <time>2014-03-30T09:38:06Z</time>
      </trkpt>
      <trkpt lat="49.2424" lon="1.40185">
        <ele>22.68</ele>
        <time>2014-03-30T09:38:09Z</time>
      </trkpt>
      <trkpt lat="49.2422" lon="1.4011">
        <ele>22.37</ele>
        <time>2014-03-30T09:38:20Z</time>
      </trkpt>
      <trkpt lat="49.24218" lon="1.40103">
        <ele>22.06</ele>
        <time>2014-03-30T09:38:21Z</time>
      </trkpt>
      <trkpt lat="49.24208" lon="1.40079">
        <ele>21.7</ele>
        <time>2014-03-30T09:38:25Z</time>
      </trkpt>
      <trkpt lat="49.24196" lon="1.40052">
        <ele>21.65</ele>
        <time>2014-03-30T09:38:30Z</time>
      </trkpt>
      <trkpt lat="49.24178" lon="1.40014">
        <ele>21.61</ele>
        <time>2014-03-30T09:38:38Z</time>
      </trkpt>
      <trkpt lat="49.2417" lon="1.39993">
        <ele>21.26</ele>
        <time>2014-03-30T09:38:44Z</time>
      </trkpt>
      <trkpt lat="49.24165" lon="1.39982">
        <ele>21.13</ele>
        <time>2014-03-30T09:38:49Z</time>
      </trkpt>
      <trkpt lat="49.24153" lon="1.39955">
        <ele>21.02</ele>
        <time>2014-03-30T09:38:57Z</time>
      </trkpt>
      <trkpt lat="49.2415" lon="1.39947">
        <ele>20.77</ele>
        <time>2014-03-30T09:38:59Z</time>
      </trkpt>
      <trkpt lat="49.24161" lon="1.3993">
        <ele>20.57</ele>
        <time>2014-03-30T09:39:04Z</time>
      </trkpt>
      <trkpt lat="49.24181" lon="1.39914">
        <ele>20.39</ele>
        <time>2014-03-30T09:39:09Z</time>
      </trkpt>
      <trkpt lat="49.24203" lon="1.39892">
        <ele>19.97</ele>
        <time>2014-03-30T09:39:16Z</time>
      </trkpt>
      <trkpt lat="49.24209" lon="1.39886">
        <ele>19.86</ele>
        <time>2014-03-30T09:39:21Z</time>
      </trkpt>
      <trkpt lat="49.24222" lon="1.39876">
        <ele>20.25</ele>
        <time>2014-03-30T09:39:27Z</time>
      </trkpt>
      <trkpt lat="49.24255" lon="1.39851">
        <ele>20.43</ele>
        <time>2014-03-30T09:39:36Z</time>
      </trkpt>
      <trkpt lat="49.24276" lon="1.39837">
        <ele>20.24</ele>
        <time>2014-03-30T09:39:41Z</time>
      </trkpt>
      <trkpt lat="49.24322" lon="1.39814">
        <ele>20.69</ele>
        <time>2014-03-30T09:39:51Z</time>
      </trkpt>
      <trkpt lat="49.24352" lon="1.39797">
        <ele>20.14</ele>
        <time>2014-03-30T09:39:59Z</time>
      </trkpt>
      <trkpt lat="49.24356" lon="1.39795">
        <ele>20.11</ele>
        <time>2014-03-30T09:40:00Z</time>
      </trkpt>
      <trkpt lat="49.24382" lon="1.39781">
        <ele>20.79</ele>
        <time>2014-03-30T09:40:07Z</time>
      </trkpt>
      <trkpt lat="49.2439" lon="1.39778">
        <ele>21.24</ele>
        <time>2014-03-30T09:40:09Z</time>
      </trkpt>
      <trkpt lat="49.24401" lon="1.39769">
        <ele>21.14</ele>
        <time>2014-03-30T09:40:12Z</time>
      </trkpt>
      <trkpt lat="49.24429" lon="1.39733">
        <ele>21.4</ele>
        <time>2014-03-30T09:40:20Z</time>
      </trkpt>
      <trkpt lat="49.24449" lon="1.39702">
        <ele>20.95</ele>
        <time>2014-03-30T09:40:26Z</time>
      </trkpt>
      <trkpt lat="49.24478" lon="1.39644">
        <ele>20.63</ele>
        <time>2014-03-30T09:40:36Z</time>
      </trkpt>
      <trkpt lat="49.2449" lon="1.39624">
        <ele>20.82</ele>
        <time>2014-03-30T09:40:40Z</time>
      </trkpt>
      <trkpt lat="49.24514" lon="1.39594">
        <ele>20.59</ele>
        <time>2014-03-30T09:40:48Z</time>
      </trkpt>
      <trkpt lat="49.24525" lon="1.39591">
        <ele>20.82</ele>
        <time>2014-03-30T09:40:51Z</time>
      </trkpt>
      <trkpt lat="49.24542" lon="1.39572">
        <ele>20.9</ele>
        <time>2014-03-30T09:40:56Z</time>
      </trkpt>
      <trkpt lat="49.24545" lon="1.39569">
        <ele>21.15</ele>
        <time>2014-03-30T09:40:57Z</time>
      </trkpt>
      <trkpt lat="49.2456" lon="1.39584">
        <ele>22.12</ele>
        <time>2014-03-30T09:41:02Z</time>
      </trkpt>
      <trkpt lat="49.24582" lon="1.39617">
        <ele>23.6</ele>
        <time>2014-03-30T09:41:10Z</time>
      </trkpt>
      <trkpt lat="49.24597" lon="1.3964">
        <ele>24.25</ele>
        <time>2014-03-30T09:41:17Z</time>
      </trkpt>
      <trkpt lat="49.24589" lon="1.39658">
        <ele>25.11</ele>
        <time>2014-03-30T09:41:22Z</time>
      </trkpt>
      <trkpt lat="49.24587" lon="1.39663">
        <ele>25.3</ele>
        <time>2014-03-30T09:41:23Z</time>
      </trkpt>
      <trkpt lat="49.2458" lon="1.39683">
        <ele>25.16</ele>
        <time>2014-03-30T09:41:26Z</time>
      </trkpt>
      <trkpt lat="49.24574" lon="1.39719">
        <ele>25.2</ele>
        <time>2014-03-30T09:41:31Z</time>
      </trkpt>
      <trkpt lat="49.24575" lon="1.39746">
        <ele>25.16</ele>
        <time>2014-03-30T09:41:35Z</time>
      </trkpt>
      <trkpt lat="49.24589" lon="1.39798">
        <ele>25.58</ele>
        <time>2014-03-30T09:41:44Z</time>
      </trkpt>
      <trkpt lat="49.24601" lon="1.39848">
        <ele>24.62</ele>
        <time>2014-03-30T09:41:51Z</time>
      </trkpt>
      <trkpt lat="49.24607" lon="1.39892">
        <ele>24.46</ele>
        <time>2014-03-30T09:41:57Z</time>
      </trkpt>
      <trkpt lat="49.24612" lon="1.39925">
        <ele>24.63</ele>
        <time>2014-03-30T09:42:03Z</time>
      </trkpt>
      <trkpt lat="49.24615" lon="1.39934">
        <ele>25.07</ele>
        <time>2014-03-30T09:42:06Z</time>
      </trkpt>
      <trkpt lat="49.24615" lon="1.39944">
        <ele>25.33</ele>
        <time>2014-03-30T09:42:13Z</time>
      </trkpt>
      <trkpt lat="49.24618" lon="1.39964">
        <ele>26.17</ele>
        <time>2014-03-30T09:42:25Z</time>
      </trkpt>
      <trkpt lat="49.2462" lon="1.39989">
        <ele>28.09</ele>
        <time>2014-03-30T09:42:33Z</time>
      </trkpt>
      <trkpt lat="49.24622" lon="1.40015">
        <ele>29.59</ele>
        <time>2014-03-30T09:42:41Z</time>
      </trkpt>
      <trkpt lat="49.24623" lon="1.40046">
        <ele>30.58</ele>
        <time>2014-03-30T09:42:48Z</time>
      </trkpt>
      <trkpt lat="49.24624" lon="1.40077">
        <ele>31.8</ele>
        <time>2014-03-30T09:42:56Z</time>
      </trkpt>
      <trkpt lat="49.24628" lon="1.401">
        <ele>33.23</ele>
        <time>2014-03-30T09:43:04Z</time>
      </trkpt>
      <trkpt lat="49.24633" lon="1.40115">
        <ele>35.02</ele>
        <time>2014-03-30T09:43:10Z</time>
      </trkpt>
      <trkpt lat="49.24646" lon="1.40131">
        <ele>37.44</ele>
        <time>2014-03-30T09:43:19Z</time>
      </trkpt>
      <trkpt lat="49.24658" lon="1.40141">
        <ele>40.06</ele>
        <time>2014-03-30T09:43:28Z</time>
      </trkpt>
      <trkpt lat="49.24667" lon="1.40147">
        <ele>41.61</ele>
        <time>2014-03-30T09:43:35Z</time>
      </trkpt>
      <trkpt lat="49.24673" lon="1.40161">
        <ele>42.72</ele>
        <time>2014-03-30T09:43:42Z</time>
      </trkpt>
      <trkpt lat="49.24677" lon="1.40183">
        <ele>44.17</ele>
        <time>2014-03-30T09:43:50Z</time>
      </trkpt>
      <trkpt lat="49.24683" lon="1.40205">
        <ele>45.64</ele>
        <time>2014-03-30T09:43:58Z</time>
      </trkpt>
      <trkpt lat="49.2469" lon="1.40225">
        <ele>47.28</ele>
        <time>2014-03-30T09:44:07Z</time>
      </trkpt>
      <trkpt lat="49.24693" lon="1.40243">
        <ele>48.73</ele>
        <time>2014-03-30T09:44:14Z</time>
      </trkpt>
      <trkpt lat="49.24696" lon="1.40259">
        <ele>50.08</ele>
        <time>2014-03-30T09:44:21Z</time>
      </trkpt>
      <trkpt lat="49.24697" lon="1.40262">
        <ele>50.19</ele>
        <time>2014-03-30T09:44:22Z</time>
      </trkpt>
      <trkpt lat="49.24707" lon="1.4028">
        <ele>51.96</ele>
        <time>2014-03-30T09:44:31Z</time>
      </trkpt>
      <trkpt lat="49.2472" lon="1.40296">
        <ele>53.39</ele>
        <time>2014-03-30T09:44:40Z</time>
      </trkpt>
      <trkpt lat="49.2473" lon="1.40304">
        <ele>55.18</ele>
        <time>2014-03-30T09:44:46Z</time>
      </trkpt>
      <trkpt lat="49.24741" lon="1.40315">
        <ele>56.67</ele>
        <time>2014-03-30T09:44:54Z</time>
      </trkpt>
      <trkpt lat="49.24751" lon="1.40325">
        <ele>58.13</ele>
        <time>2014-03-30T09:45:01Z</time>
      </trkpt>
      <trkpt lat="49.24763" lon="1.40338">
        <ele>60.29</ele>
        <time>2014-03-30T09:45:10Z</time>
      </trkpt>
      <trkpt lat="49.24771" lon="1.40348">
        <ele>62.3</ele>
        <time>2014-03-30T09:45:17Z</time>
      </trkpt>
      <trkpt lat="49.24785" lon="1.40361">
        <ele>64.14</ele>
        <time>2014-03-30T09:45:26Z</time>
      </trkpt>
      <trkpt lat="49.24793" lon="1.40374">
        <ele>66.16</ele>
        <time>2014-03-30T09:45:34Z</time>
      </trkpt>
      <trkpt lat="49.24801" lon="1.40385">
        <ele>68.14</ele>
        <time>2014-03-30T09:45:41Z</time>
      </trkpt>
      <trkpt lat="49.24808" lon="1.4039">
        <ele>69.78</ele>
        <time>2014-03-30T09:45:48Z</time>
      </trkpt>
      <trkpt lat="49.2482" lon="1.40401">
        <ele>72.42</ele>
        <time>2014-03-30T09:45:57Z</time>
      </trkpt>
      <trkpt lat="49.24827" lon="1.40407">
        <ele>74</ele>
        <time>2014-03-30T09:46:03Z</time>
      </trkpt>
      <trkpt lat="49.24831" lon="1.40421">
        <ele>76.05</ele>
        <time>2014-03-30T09:46:11Z</time>
      </trkpt>
      <trkpt lat="49.24836" lon="1.40431">
        <ele>78.27</ele>
        <time>2014-03-30T09:46:18Z</time>
      </trkpt>
      <trkpt lat="49.24844" lon="1.4043">
        <ele>80.23</ele>
        <time>2014-03-30T09:46:26Z</time>
      </trkpt>
      <trkpt lat="49.24852" lon="1.40421">
        <ele>82.6</ele>
        <time>2014-03-30T09:46:35Z</time>
      </trkpt>
      <trkpt lat="49.24858" lon="1.40414">
        <ele>84.63</ele>
        <time>2014-03-30T09:46:42Z</time>
      </trkpt>
      <trkpt lat="49.24866" lon="1.40403">
        <ele>86.98</ele>
        <time>2014-03-30T09:46:51Z</time>
      </trkpt>
      <trkpt lat="49.24873" lon="1.40395">
        <ele>88.76</ele>
        <time>2014-03-30T09:46:58Z</time>
      </trkpt>
      <trkpt lat="49.24881" lon="1.40384">
        <ele>90.61</ele>
        <time>2014-03-30T09:47:06Z</time>
      </trkpt>
      <trkpt lat="49.24885" lon="1.40376">
        <ele>92.25</ele>
        <time>2014-03-30T09:47:13Z</time>
      </trkpt>
      <trkpt lat="49.24893" lon="1.40367">
        <ele>94.45</ele>
        <time>2014-03-30T09:47:21Z</time>
      </trkpt>
      <trkpt lat="49.24905" lon="1.40354">
        <ele>96.11</ele>
        <time>2014-03-30T09:47:29Z</time>
      </trkpt>
      <trkpt lat="49.24909" lon="1.40349">
        <ele>96.96</ele>
        <time>2014-03-30T09:47:32Z</time>
      </trkpt>
      <trkpt lat="49.24919" lon="1.40332">
        <ele>99.27</ele>
        <time>2014-03-30T09:47:41Z</time>
      </trkpt>
      <trkpt lat="49.24926" lon="1.40319">
        <ele>102.15</ele>
        <time>2014-03-30T09:47:48Z</time>
      </trkpt>
      <trkpt lat="49.2493" lon="1.40307">
        <ele>103.01</ele>
        <time>2014-03-30T09:47:54Z</time>
      </trkpt>
      <trkpt lat="49.24937" lon="1.40288">
        <ele>104.99</ele>
        <time>2014-03-30T09:48:03Z</time>
      </trkpt>
      <trkpt lat="49.24939" lon="1.40281">
        <ele>105.76</ele>
        <time>2014-03-30T09:48:06Z</time>
      </trkpt>
      <trkpt lat="49.24942" lon="1.40259">
        <ele>107.36</ele>
        <time>2014-03-30T09:48:15Z</time>
      </trkpt>
      <trkpt lat="49.24944" lon="1.40236">
        <ele>109.3</ele>
        <time>2014-03-30T09:48:24Z</time>
      </trkpt>
      <trkpt lat="49.24947" lon="1.40214">
        <ele>111.16</ele>
        <time>2014-03-30T09:48:33Z</time>
      </trkpt>
      <trkpt lat="49.2495" lon="1.40187">
        <ele>112.75</ele>
        <time>2014-03-30T09:48:43Z</time>
      </trkpt>
      <trkpt lat="49.24953" lon="1.40172">
        <ele>114.41</ele>
        <time>2014-03-30T09:48:50Z</time>
      </trkpt>
      <trkpt lat="49.24957" lon="1.40152">
        <ele>116.24</ele>
        <time>2014-03-30T09:48:58Z</time>
      </trkpt>
      <trkpt lat="49.24963" lon="1.40134">
        <ele>117.86</ele>
        <time>2014-03-30T09:49:07Z</time>
      </trkpt>
      <trkpt lat="49.24968" lon="1.40119">
        <ele>120.09</ele>
        <time>2014-03-30T09:49:14Z</time>
      </trkpt>
      <trkpt lat="49.24973" lon="1.40101">
        <ele>121.48</ele>
        <time>2014-03-30T09:49:22Z</time>
      </trkpt>
      <trkpt lat="49.24981" lon="1.40086">
        <ele>123.21</ele>
        <time>2014-03-30T09:49:30Z</time>
      </trkpt>
      <trkpt lat="49.24991" lon="1.40068">
        <ele>125.54</ele>
        <time>2014-03-30T09:49:39Z</time>
      </trkpt>
      <trkpt lat="49.24999" lon="1.4005">
        <ele>127.43</ele>
        <time>2014-03-30T09:49:48Z</time>
      </trkpt>
      <trkpt lat="49.25007" lon="1.40036">
        <ele>129.29</ele>
        <time>2014-03-30T09:49:55Z</time>
      </trkpt>
      <trkpt lat="49.25015" lon="1.40016">
        <ele>131.05</ele>
        <time>2014-03-30T09:50:03Z</time>
      </trkpt>
      <trkpt lat="49.25022" lon="1.39995">
        <ele>133.32</ele>
        <time>2014-03-30T09:50:12Z</time>
      </trkpt>
      <trkpt lat="49.25028" lon="1.39978">
        <ele>134.6</ele>
        <time>2014-03-30T09:50:19Z</time>
      </trkpt>
      <trkpt lat="49.25036" lon="1.3996">
        <ele>136.04</ele>
        <time>2014-03-30T09:50:28Z</time>
      </trkpt>
      <trkpt lat="49.25044" lon="1.39947">
        <ele>138.19</ele>
        <time>2014-03-30T09:50:35Z</time>
      </trkpt>
      <trkpt lat="49.25051" lon="1.39932">
        <ele>140.22</ele>
        <time>2014-03-30T09:50:42Z</time>
      </trkpt>
      <trkpt lat="49.25062" lon="1.39914">
        <ele>143.59</ele>
        <time>2014-03-30T09:50:51Z</time>
      </trkpt>
      <trkpt lat="49.25058" lon="1.399">
        <ele>144.26</ele>
        <time>2014-03-30T09:50:56Z</time>
      </trkpt>
      <trkpt lat="49.25044" lon="1.39865">
        <ele>145.37</ele>
        <time>2014-03-30T09:51:07Z</time>
      </trkpt>
      <trkpt lat="49.25034" lon="1.39818">
        <ele>145.86</ele>
        <time>2014-03-30T09:51:17Z</time>
      </trkpt>
      <trkpt lat="49.25023" lon="1.3977">
        <ele>146.08</ele>
        <time>2014-03-30T09:51:26Z</time>
      </trkpt>
      <trkpt lat="49.2501" lon="1.39714">
        <ele>146.78</ele>
        <time>2014-03-30T09:51:35Z</time>
      </trkpt>
      <trkpt lat="49.25007" lon="1.39701">
        <ele>146.73</ele>
        <time>2014-03-30T09:51:37Z</time>
      </trkpt>
      <trkpt lat="49.24997" lon="1.39646">
        <ele>147.44</ele>
        <time>2014-03-30T09:51:45Z</time>
      </trkpt>
      <trkpt lat="49.24987" lon="1.39579">
        <ele>148.17</ele>
        <time>2014-03-30T09:51:56Z</time>
      </trkpt>
      <trkpt lat="49.24977" lon="1.39529">
        <ele>148.05</ele>
        <time>2014-03-30T09:52:04Z</time>
      </trkpt>
      <trkpt lat="49.2497" lon="1.39474">
        <ele>148.84</ele>
        <time>2014-03-30T09:52:14Z</time>
      </trkpt>
      <trkpt lat="49.24969" lon="1.39464">
        <ele>149.04</ele>
        <time>2014-03-30T09:52:16Z</time>
      </trkpt>
      <trkpt lat="49.24963" lon="1.39443">
        <ele>149.01</ele>
        <time>2014-03-30T09:52:22Z</time>
      </trkpt>
      <trkpt lat="49.24962" lon="1.39439">
        <ele>148.87</ele>
        <time>2014-03-30T09:52:23Z</time>
      </trkpt>
      <trkpt lat="49.24954" lon="1.39401">
        <ele>148.73</ele>
        <time>2014-03-30T09:52:32Z</time>
      </trkpt>
      <trkpt lat="49.24948" lon="1.39374">
        <ele>147.84</ele>
        <time>2014-03-30T09:52:37Z</time>
      </trkpt>
      <trkpt lat="49.24938" lon="1.39363">
        <ele>145.83</ele>
        <time>2014-03-30T09:52:41Z</time>
      </trkpt>
      <trkpt lat="49.24936" lon="1.39357">
        <ele>145.07</ele>
        <time>2014-03-30T09:52:43Z</time>
      </trkpt>
      <trkpt lat="49.24935" lon="1.39346">
        <ele>144.33</ele>
        <time>2014-03-30T09:52:45Z</time>
      </trkpt>
      <trkpt lat="49.24932" lon="1.39314">
        <ele>139.34</ele>
        <time>2014-03-30T09:52:50Z</time>
      </trkpt>
      <trkpt lat="49.2493" lon="1.39285">
        <ele>134.37</ele>
        <time>2014-03-30T09:52:55Z</time>
      </trkpt>
      <trkpt lat="49.24926" lon="1.39258">
        <ele>130.77</ele>
        <time>2014-03-30T09:52:59Z</time>
      </trkpt>
      <trkpt lat="49.24928" lon="1.39237">
        <ele>128.21</ele>
        <time>2014-03-30T09:53:03Z</time>
      </trkpt>
      <trkpt lat="49.24927" lon="1.39209">
        <ele>129.01</ele>
        <time>2014-03-30T09:53:10Z</time>
      </trkpt>
      <trkpt lat="49.24932" lon="1.3919">
        <ele>128.34</ele>
        <time>2014-03-30T09:53:15Z</time>
      </trkpt>
      <trkpt lat="49.24934" lon="1.3917">
        <ele>125.27</ele>
        <time>2014-03-30T09:53:19Z</time>
      </trkpt>
      <trkpt lat="49.24935" lon="1.39157">
        <ele>124.19</ele>
        <time>2014-03-30T09:53:21Z</time>
      </trkpt>
      <trkpt lat="49.24933" lon="1.39137">
        <ele>122.26</ele>
        <time>2014-03-30T09:53:25Z</time>
      </trkpt>
      <trkpt lat="49.24926" lon="1.39115">
        <ele>118.09</ele>
        <time>2014-03-30T09:53:30Z</time>
      </trkpt>
      <trkpt lat="49.24923" lon="1.39102">
        <ele>115.03</ele>
        <time>2014-03-30T09:53:33Z</time>
      </trkpt>
      <trkpt lat="49.24923" lon="1.391">
        <ele>114.32</ele>
        <time>2014-03-30T09:53:35Z</time>
      </trkpt>
      <trkpt lat="49.24924" lon="1.39087">
        <ele>111.03</ele>
        <time>2014-03-30T09:53:43Z</time>
      </trkpt>
      <trkpt lat="49.24926" lon="1.39076">
        <ele>107.64</ele>
        <time>2014-03-30T09:53:48Z</time>
      </trkpt>
      <trkpt lat="49.24926" lon="1.39067">
        <ele>104.32</ele>
        <time>2014-03-30T09:53:52Z</time>
      </trkpt>
      <trkpt lat="49.24926" lon="1.39061">
        <ele>101.22</ele>
        <time>2014-03-30T09:53:57Z</time>
      </trkpt>
      <trkpt lat="49.24927" lon="1.3906">
        <ele>100.61</ele>
        <time>2014-03-30T09:54:12Z</time>
      </trkpt>
      <trkpt lat="49.24927" lon="1.3906">
        <ele>100.8</ele>
        <time>2014-03-30T09:54:26Z</time>
      </trkpt>
      <trkpt lat="49.24927" lon="1.3906">
        <ele>100.71</ele>
        <time>2014-03-30T09:54:47Z</time>
      </trkpt>
      <trkpt lat="49.24927" lon="1.3906">
        <ele>99.32</ele>
        <time>2014-03-30T09:55:23Z</time>
      </trkpt>
      <trkpt lat="49.24928" lon="1.39066">
        <ele>98.1</ele>
        <time>2014-03-30T09:55:51Z</time>
      </trkpt>
      <trkpt lat="49.2493" lon="1.39067">
        <ele>95.91</ele>
        <time>2014-03-30T09:56:02Z</time>
      </trkpt>
      <trkpt lat="49.24937" lon="1.3907">
        <ele>94.31</ele>
        <time>2014-03-30T09:56:06Z</time>
      </trkpt>
      <trkpt lat="49.24954" lon="1.39079">
        <ele>92.08</ele>
        <time>2014-03-30T09:56:13Z</time>
      </trkpt>
      <trkpt lat="49.24967" lon="1.39087">
        <ele>89.26</ele>
        <time>2014-03-30T09:56:18Z</time>
      </trkpt>
      <trkpt lat="49.24977" lon="1.39088">
        <ele>85.79</ele>
        <time>2014-03-30T09:56:23Z</time>
      </trkpt>
      <trkpt lat="49.24985" lon="1.3909">
        <ele>81.71</ele>
        <time>2014-03-30T09:56:27Z</time>
      </trkpt>
      <trkpt lat="49.24992" lon="1.39096">
        <ele>78.93</ele>
        <time>2014-03-30T09:56:32Z</time>
      </trkpt>
      <trkpt lat="49.24995" lon="1.39098">
        <ele>76.59</ele>
        <time>2014-03-30T09:56:36Z</time>
      </trkpt>
      <trkpt lat="49.24996" lon="1.39087">
        <ele>74.4</ele>
        <time>2014-03-30T09:56:45Z</time>
      </trkpt>
      <trkpt lat="49.24996" lon="1.39084">
        <ele>73.69</ele>
        <time>2014-03-30T09:56:47Z</time>
      </trkpt>
      <trkpt lat="49.24993" lon="1.39075">
        <ele>71.02</ele>
        <time>2014-03-30T09:56:56Z</time>
      </trkpt>
      <trkpt lat="49.24998" lon="1.39073">
        <ele>68.86</ele>
        <time>2014-03-30T09:57:04Z</time>
      </trkpt>
      <trkpt lat="49.25001" lon="1.39071">
        <ele>65.62</ele>
        <time>2014-03-30T09:57:08Z</time>
      </trkpt>
      <trkpt lat="49.25002" lon="1.3907">
        <ele>65.05</ele>
        <time>2014-03-30T09:57:09Z</time>
      </trkpt>
      <trkpt lat="49.25006" lon="1.39068">
        <ele>61.73</ele>
        <time>2014-03-30T09:57:13Z</time>
      </trkpt>
      <trkpt lat="49.25016" lon="1.39055">
        <ele>58.45</ele>
        <time>2014-03-30T09:57:20Z</time>
      </trkpt>
      <trkpt lat="49.2502" lon="1.39043">
        <ele>56.7</ele>
        <time>2014-03-30T09:57:23Z</time>
      </trkpt>
      <trkpt lat="49.25026" lon="1.39044">
        <ele>56.41</ele>
        <time>2014-03-30T09:57:29Z</time>
      </trkpt>
      <trkpt lat="49.25029" lon="1.39045">
        <ele>57.16</ele>
        <time>2014-03-30T09:57:41Z</time>
      </trkpt>
      <trkpt lat="49.25028" lon="1.39047">
        <ele>56.38</ele>
        <time>2014-03-30T09:57:55Z</time>
      </trkpt>
      <trkpt lat="49.2503" lon="1.39045">
        <ele>56.39</ele>
        <time>2014-03-30T09:58:08Z</time>
      </trkpt>
      <trkpt lat="49.25031" lon="1.39045">
        <ele>56.88</ele>
        <time>2014-03-30T09:58:22Z</time>
      </trkpt>
      <trkpt lat="49.2503" lon="1.39045">
        <ele>56.92</ele>
        <time>2014-03-30T09:58:39Z</time>
      </trkpt>
      <trkpt lat="49.2503" lon="1.39046">
        <ele>56.41</ele>
        <time>2014-03-30T09:58:55Z</time>
      </trkpt>
      <trkpt lat="49.25029" lon="1.39045">
        <ele>56.69</ele>
        <time>2014-03-30T09:59:13Z</time>
      </trkpt>
      <trkpt lat="49.25029" lon="1.39043">
        <ele>56.65</ele>
        <time>2014-03-30T09:59:26Z</time>
      </trkpt>
      <trkpt lat="49.25029" lon="1.39041">
        <ele>57.51</ele>
        <time>2014-03-30T09:59:44Z</time>
      </trkpt>
      <trkpt lat="49.25029" lon="1.3904">
        <ele>57.32</ele>
        <time>2014-03-30T09:59:59Z</time>
      </trkpt>
      <trkpt lat="49.25029" lon="1.39039">
        <ele>56.7</ele>
        <time>2014-03-30T10:00:14Z</time>
      </trkpt>
      <trkpt lat="49.2503" lon="1.39039">
        <ele>57.05</ele>
        <time>2014-03-30T10:00:29Z</time>
      </trkpt>
      <trkpt lat="49.25029" lon="1.39039">
        <ele>55.91</ele>
        <time>2014-03-30T10:00:44Z</time>
      </trkpt>
      <trkpt lat="49.25029" lon="1.39041">
        <ele>56.32</ele>
        <time>2014-03-30T10:00:59Z</time>
      </trkpt>
      <trkpt lat="49.2503" lon="1.39039">
        <ele>56.2</ele>
        <time>2014-03-30T10:01:17Z</time>
      </trkpt>
      <trkpt lat="49.25029" lon="1.39038">
        <ele>56.05</ele>
        <time>2014-03-30T10:01:34Z</time>
      </trkpt>
      <trkpt lat="49.25028" lon="1.39037">
        <ele>56.99</ele>
        <time>2014-03-30T10:01:49Z</time>
      </trkpt>
      <trkpt lat="49.25027" lon="1.39037">
        <ele>56.99</ele>
        <time>2014-03-30T10:02:07Z</time>
      </trkpt>
      <trkpt lat="49.25026" lon="1.39039">
        <ele>57.06</ele>
        <time>2014-03-30T10:02:25Z</time>
      </trkpt>
      <trkpt lat="49.25025" lon="1.39037">
        <ele>56.74</ele>
        <time>2014-03-30T10:02:38Z</time>
      </trkpt>
      <trkpt lat="49.25022" lon="1.39038">
        <ele>56.26</ele>
        <time>2014-03-30T10:02:53Z</time>
      </trkpt>
      <trkpt lat="49.25022" lon="1.39039">
        <ele>56.21</ele>
        <time>2014-03-30T10:03:10Z</time>
      </trkpt>
      <trkpt lat="49.25021" lon="1.39039">
        <ele>55.99</ele>
        <time>2014-03-30T10:03:25Z</time>
      </trkpt>
      <trkpt lat="49.25021" lon="1.39039">
        <ele>56.07</ele>
        <time>2014-03-30T10:03:42Z</time>
      </trkpt>
      <trkpt lat="49.2502" lon="1.39039">
        <ele>56.47</ele>
        <time>2014-03-30T10:03:56Z</time>
      </trkpt>
      <trkpt lat="49.25019" lon="1.39043">
        <ele>56.91</ele>
        <time>2014-03-30T10:04:11Z</time>
      </trkpt>
      <trkpt lat="49.25018" lon="1.39046">
        <ele>56.74</ele>
        <time>2014-03-30T10:04:24Z</time>
      </trkpt>
      <trkpt lat="49.25025" lon="1.39046">
        <ele>57.98</ele>
        <time>2014-03-30T10:04:35Z</time>
      </trkpt>
      <trkpt lat="49.25029" lon="1.39044">
        <ele>61.24</ele>
        <time>2014-03-30T10:04:45Z</time>
      </trkpt>
      <trkpt lat="49.25035" lon="1.39039">
        <ele>64.53</ele>
        <time>2014-03-30T10:04:57Z</time>
      </trkpt>
      <trkpt lat="49.25043" lon="1.39029">
        <ele>66.21</ele>
        <time>2014-03-30T10:05:10Z</time>
      </trkpt>
      <trkpt lat="49.25051" lon="1.39023">
        <ele>69.44</ele>
        <time>2014-03-30T10:05:23Z</time>
      </trkpt>
      <trkpt lat="49.25053" lon="1.39021">
        <ele>72.71</ele>
        <time>2014-03-30T10:05:34Z</time>
      </trkpt>
      <trkpt lat="49.25056" lon="1.39014">
        <ele>75.79</ele>
        <time>2014-03-30T10:05:46Z</time>
      </trkpt>
      <trkpt lat="49.25058" lon="1.39006">
        <ele>78.42</ele>
        <time>2014-03-30T10:06:00Z</time>
      </trkpt>
      <trkpt lat="49.25059" lon="1.38999">
        <ele>80.23</ele>
        <time>2014-03-30T10:06:12Z</time>
      </trkpt>
      <trkpt lat="49.25062" lon="1.38994">
        <ele>79.72</ele>
        <time>2014-03-30T10:06:22Z</time>
      </trkpt>
      <trkpt lat="49.25062" lon="1.38994">
        <ele>79.7</ele>
        <time>2014-03-30T10:06:25Z</time>
      </trkpt>
      <trkpt lat="49.25071" lon="1.38971">
        <ele>76.81</ele>
        <time>2014-03-30T10:06:31Z</time>
      </trkpt>
      <trkpt lat="49.25076" lon="1.38948">
        <ele>76.5</ele>
        <time>2014-03-30T10:06:36Z</time>
      </trkpt>
      <trkpt lat="49.25076" lon="1.38942">
        <ele>77.42</ele>
        <time>2014-03-30T10:06:42Z</time>
      </trkpt>
      <trkpt lat="49.25078" lon="1.38933">
        <ele>80.46</ele>
        <time>2014-03-30T10:06:54Z</time>
      </trkpt>
      <trkpt lat="49.25079" lon="1.38922">
        <ele>82.69</ele>
        <time>2014-03-30T10:07:05Z</time>
      </trkpt>
      <trkpt lat="49.25082" lon="1.38911">
        <ele>85.95</ele>
        <time>2014-03-30T10:07:15Z</time>
      </trkpt>
      <trkpt lat="49.25079" lon="1.38902">
        <ele>89.18</ele>
        <time>2014-03-30T10:07:27Z</time>
      </trkpt>
      <trkpt lat="49.25075" lon="1.38898">
        <ele>90.49</ele>
        <time>2014-03-30T10:07:39Z</time>
      </trkpt>
      <trkpt lat="49.25076" lon="1.38895">
        <ele>90.41</ele>
        <time>2014-03-30T10:07:50Z</time>
      </trkpt>
      <trkpt lat="49.25079" lon="1.38872">
        <ele>88.45</ele>
        <time>2014-03-30T10:07:57Z</time>
      </trkpt>
      <trkpt lat="49.25085" lon="1.38855">
        <ele>85.67</ele>
        <time>2014-03-30T10:08:02Z</time>
      </trkpt>
      <trkpt lat="49.25087" lon="1.38832">
        <ele>83.76</ele>
        <time>2014-03-30T10:08:08Z</time>
      </trkpt>
      <trkpt lat="49.25089" lon="1.38816">
        <ele>86.09</ele>
        <time>2014-03-30T10:08:16Z</time>
      </trkpt>
      <trkpt lat="49.25091" lon="1.38806">
        <ele>88.12</ele>
        <time>2014-03-30T10:08:20Z</time>
      </trkpt>
      <trkpt lat="49.25093" lon="1.38801">
        <ele>89.01</ele>
        <time>2014-03-30T10:08:26Z</time>
      </trkpt>
      <trkpt lat="49.25095" lon="1.38792">
        <ele>92.22</ele>
        <time>2014-03-30T10:08:37Z</time>
      </trkpt>
      <trkpt lat="49.25097" lon="1.38781">
        <ele>95.53</ele>
        <time>2014-03-30T10:08:50Z</time>
      </trkpt>
      <trkpt lat="49.25098" lon="1.38772">
        <ele>97.96</ele>
        <time>2014-03-30T10:09:03Z</time>
      </trkpt>
      <trkpt lat="49.25098" lon="1.38767">
        <ele>100.03</ele>
        <time>2014-03-30T10:09:17Z</time>
      </trkpt>
      <trkpt lat="49.25097" lon="1.38759">
        <ele>102.56</ele>
        <time>2014-03-30T10:09:29Z</time>
      </trkpt>
      <trkpt lat="49.25096" lon="1.38753">
        <ele>104.26</ele>
        <time>2014-03-30T10:09:39Z</time>
      </trkpt>
      <trkpt lat="49.25093" lon="1.38744">
        <ele>106.95</ele>
        <time>2014-03-30T10:09:52Z</time>
      </trkpt>
      <trkpt lat="49.25087" lon="1.38742">
        <ele>108.16</ele>
        <time>2014-03-30T10:10:02Z</time>
      </trkpt>
      <trkpt lat="49.25091" lon="1.38741">
        <ele>108.96</ele>
        <time>2014-03-30T10:10:14Z</time>
      </trkpt>
      <trkpt lat="49.25093" lon="1.38733">
        <ele>108.37</ele>
        <time>2014-03-30T10:10:23Z</time>
      </trkpt>
      <trkpt lat="49.25099" lon="1.38737">
        <ele>107.89</ele>
        <time>2014-03-30T10:10:30Z</time>
      </trkpt>
      <trkpt lat="49.25099" lon="1.38738">
        <ele>108.2</ele>
        <time>2014-03-30T10:10:31Z</time>
      </trkpt>
      <trkpt lat="49.25109" lon="1.38749">
        <ele>108.84</ele>
        <time>2014-03-30T10:10:40Z</time>
      </trkpt>
      <trkpt lat="49.25117" lon="1.38757">
        <ele>109.88</ele>
        <time>2014-03-30T10:10:47Z</time>
      </trkpt>
      <trkpt lat="49.25127" lon="1.38763">
        <ele>110.76</ele>
        <time>2014-03-30T10:10:54Z</time>
      </trkpt>
      <trkpt lat="49.25128" lon="1.38764">
        <ele>110.96</ele>
        <time>2014-03-30T10:10:55Z</time>
      </trkpt>
      <trkpt lat="49.25134" lon="1.38769">
        <ele>111.37</ele>
        <time>2014-03-30T10:10:59Z</time>
      </trkpt>
      <trkpt lat="49.25146" lon="1.38777">
        <ele>113.55</ele>
        <time>2014-03-30T10:11:08Z</time>
      </trkpt>
      <trkpt lat="49.25154" lon="1.38779">
        <ele>114.55</ele>
        <time>2014-03-30T10:11:14Z</time>
      </trkpt>
      <trkpt lat="49.25167" lon="1.38784">
        <ele>115.42</ele>
        <time>2014-03-30T10:11:21Z</time>
      </trkpt>
      <trkpt lat="49.25169" lon="1.38786">
        <ele>115.61</ele>
        <time>2014-03-30T10:11:23Z</time>
      </trkpt>
      <trkpt lat="49.2517" lon="1.38789">
        <ele>115.86</ele>
        <time>2014-03-30T10:11:25Z</time>
      </trkpt>
      <trkpt lat="49.25175" lon="1.38803">
        <ele>115.88</ele>
        <time>2014-03-30T10:11:31Z</time>
      </trkpt>
      <trkpt lat="49.25176" lon="1.38804">
        <ele>116.13</ele>
        <time>2014-03-30T10:11:32Z</time>
      </trkpt>
      <trkpt lat="49.25183" lon="1.38814">
        <ele>118.33</ele>
        <time>2014-03-30T10:11:40Z</time>
      </trkpt>
      <trkpt lat="49.25189" lon="1.38828">
        <ele>120.17</ele>
        <time>2014-03-30T10:11:47Z</time>
      </trkpt>
      <trkpt lat="49.25192" lon="1.38838">
        <ele>121.92</ele>
        <time>2014-03-30T10:11:52Z</time>
      </trkpt>
      <trkpt lat="49.25195" lon="1.3885">
        <ele>124.1</ele>
        <time>2014-03-30T10:11:59Z</time>
      </trkpt>
      <trkpt lat="49.25196" lon="1.38853">
        <ele>125.36</ele>
        <time>2014-03-30T10:12:05Z</time>
      </trkpt>
      <trkpt lat="49.252" lon="1.38863">
        <ele>128.51</ele>
        <time>2014-03-30T10:12:19Z</time>
      </trkpt>
      <trkpt lat="49.25204" lon="1.38868">
        <ele>130.2</ele>
        <time>2014-03-30T10:12:30Z</time>
      </trkpt>
      <trkpt lat="49.25211" lon="1.38866">
        <ele>133.03</ele>
        <time>2014-03-30T10:12:42Z</time>
      </trkpt>
      <trkpt lat="49.25215" lon="1.38859">
        <ele>135.85</ele>
        <time>2014-03-30T10:12:58Z</time>
      </trkpt>
      <trkpt lat="49.25221" lon="1.38856">
        <ele>137.25</ele>
        <time>2014-03-30T10:13:11Z</time>
      </trkpt>
      <trkpt lat="49.25226" lon="1.38854">
        <ele>138.4</ele>
        <time>2014-03-30T10:13:15Z</time>
      </trkpt>
      <trkpt lat="49.2524" lon="1.38841">
        <ele>140.99</ele>
        <time>2014-03-30T10:13:25Z</time>
      </trkpt>
      <trkpt lat="49.25251" lon="1.38844">
        <ele>143.84</ele>
        <time>2014-03-30T10:13:32Z</time>
      </trkpt>
      <trkpt lat="49.25255" lon="1.38847">
        <ele>145.35</ele>
        <time>2014-03-30T10:13:35Z</time>
      </trkpt>
      <trkpt lat="49.25263" lon="1.38842">
        <ele>145.75</ele>
        <time>2014-03-30T10:13:41Z</time>
      </trkpt>
      <trkpt lat="49.25275" lon="1.38834">
        <ele>145.45</ele>
        <time>2014-03-30T10:13:47Z</time>
      </trkpt>
      <trkpt lat="49.25292" lon="1.38821">
        <ele>145.48</ele>
        <time>2014-03-30T10:13:56Z</time>
      </trkpt>
      <trkpt lat="49.25302" lon="1.388">
        <ele>144.68</ele>
        <time>2014-03-30T10:14:02Z</time>
      </trkpt>
      <trkpt lat="49.25309" lon="1.38772">
        <ele>142.04</ele>
        <time>2014-03-30T10:14:08Z</time>
      </trkpt>
      <trkpt lat="49.25309" lon="1.38771">
        <ele>141.62</ele>
        <time>2014-03-30T10:14:09Z</time>
      </trkpt>
      <trkpt lat="49.25309" lon="1.38762">
        <ele>140.85</ele>
        <time>2014-03-30T10:14:12Z</time>
      </trkpt>
      <trkpt lat="49.25313" lon="1.38731">
        <ele>140.27</ele>
        <time>2014-03-30T10:14:20Z</time>
      </trkpt>
      <trkpt lat="49.25322" lon="1.38706">
        <ele>139.89</ele>
        <time>2014-03-30T10:14:26Z</time>
      </trkpt>
      <trkpt lat="49.25319" lon="1.38682">
        <ele>136.78</ele>
        <time>2014-03-30T10:14:30Z</time>
      </trkpt>
      <trkpt lat="49.25318" lon="1.3867">
        <ele>133.56</ele>
        <time>2014-03-30T10:14:32Z</time>
      </trkpt>
      <trkpt lat="49.2531" lon="1.38651">
        <ele>129.07</ele>
        <time>2014-03-30T10:14:35Z</time>
      </trkpt>
      <trkpt lat="49.25295" lon="1.38621">
        <ele>125.66</ele>
        <time>2014-03-30T10:14:38Z</time>
      </trkpt>
      <trkpt lat="49.25286" lon="1.38604">
        <ele>123.19</ele>
        <time>2014-03-30T10:14:40Z</time>
      </trkpt>
      <trkpt lat="49.25272" lon="1.3855">
        <ele>117.73</ele>
        <time>2014-03-30T10:14:46Z</time>
      </trkpt>
      <trkpt lat="49.2527" lon="1.38543">
        <ele>116.76</ele>
        <time>2014-03-30T10:14:47Z</time>
      </trkpt>
      <trkpt lat="49.25269" lon="1.38514">
        <ele>114.88</ele>
        <time>2014-03-30T10:14:52Z</time>
      </trkpt>
      <trkpt lat="49.25271" lon="1.38508">
        <ele>114.86</ele>
        <time>2014-03-30T10:14:53Z</time>
      </trkpt>
      <trkpt lat="49.25275" lon="1.38472">
        <ele>112.26</ele>
        <time>2014-03-30T10:14:57Z</time>
      </trkpt>
      <trkpt lat="49.25274" lon="1.38448">
        <ele>114.2</ele>
        <time>2014-03-30T10:15:01Z</time>
      </trkpt>
      <trkpt lat="49.25275" lon="1.38415">
        <ele>115.84</ele>
        <time>2014-03-30T10:15:08Z</time>
      </trkpt>
      <trkpt lat="49.25285" lon="1.38395">
        <ele>116.09</ele>
        <time>2014-03-30T10:15:15Z</time>
      </trkpt>
      <trkpt lat="49.25293" lon="1.3837">
        <ele>116.09</ele>
        <time>2014-03-30T10:15:22Z</time>
      </trkpt>
      <trkpt lat="49.25295" lon="1.38353">
        <ele>117.71</ele>
        <time>2014-03-30T10:15:29Z</time>
      </trkpt>
      <trkpt lat="49.25296" lon="1.38347">
        <ele>118.46</ele>
        <time>2014-03-30T10:15:31Z</time>
      </trkpt>
      <trkpt lat="49.25291" lon="1.38333">
        <ele>119.47</ele>
        <time>2014-03-30T10:15:37Z</time>
      </trkpt>
      <trkpt lat="49.25293" lon="1.38315">
        <ele>119.45</ele>
        <time>2014-03-30T10:15:43Z</time>
      </trkpt>
      <trkpt lat="49.25295" lon="1.38311">
        <ele>119.41</ele>
        <time>2014-03-30T10:15:44Z</time>
      </trkpt>
      <trkpt lat="49.25311" lon="1.38289">
        <ele>115.81</ele>
        <time>2014-03-30T10:15:51Z</time>
      </trkpt>
      <trkpt lat="49.25318" lon="1.38274">
        <ele>112.85</ele>
        <time>2014-03-30T10:15:56Z</time>
      </trkpt>
      <trkpt lat="49.25319" lon="1.38272">
        <ele>112.24</ele>
        <time>2014-03-30T10:15:57Z</time>
      </trkpt>
      <trkpt lat="49.25317" lon="1.38259">
        <ele>108.36</ele>
        <time>2014-03-30T10:16:03Z</time>
      </trkpt>
      <trkpt lat="49.25317" lon="1.38246">
        <ele>104.34</ele>
        <time>2014-03-30T10:16:07Z</time>
      </trkpt>
      <trkpt lat="49.2532" lon="1.38228">
        <ele>100.96</ele>
        <time>2014-03-30T10:16:12Z</time>
      </trkpt>
      <trkpt lat="49.25322" lon="1.38215">
        <ele>97.52</ele>
        <time>2014-03-30T10:16:17Z</time>
      </trkpt>
      <trkpt lat="49.25321" lon="1.38205">
        <ele>94.59</ele>
        <time>2014-03-30T10:16:22Z</time>
      </trkpt>
      <trkpt lat="49.2532" lon="1.38197">
        <ele>91.6</ele>
        <time>2014-03-30T10:16:27Z</time>
      </trkpt>
      <trkpt lat="49.25319" lon="1.38195">
        <ele>90.36</ele>
        <time>2014-03-30T10:16:29Z</time>
      </trkpt>
      <trkpt lat="49.2532" lon="1.38189">
        <ele>88.86</ele>
        <time>2014-03-30T10:16:32Z</time>
      </trkpt>
      <trkpt lat="49.25318" lon="1.38186">
        <ele>85.91</ele>
        <time>2014-03-30T10:16:37Z</time>
      </trkpt>
      <trkpt lat="49.25313" lon="1.38187">
        <ele>83.87</ele>
        <time>2014-03-30T10:16:46Z</time>
      </trkpt>
      <trkpt lat="49.25313" lon="1.38183">
        <ele>81.6</ele>
        <time>2014-03-30T10:16:55Z</time>
      </trkpt>
      <trkpt lat="49.25317" lon="1.38162">
        <ele>78.11</ele>
        <time>2014-03-30T10:17:03Z</time>
      </trkpt>
      <trkpt lat="49.25318" lon="1.38157">
        <ele>77.04</ele>
        <time>2014-03-30T10:17:06Z</time>
      </trkpt>
      <trkpt lat="49.25317" lon="1.38151">
        <ele>75.18</ele>
        <time>2014-03-30T10:17:09Z</time>
      </trkpt>
      <trkpt lat="49.25316" lon="1.38143">
        <ele>72.61</ele>
        <time>2014-03-30T10:17:12Z</time>
      </trkpt>
      <trkpt lat="49.25318" lon="1.38124">
        <ele>69.58</ele>
        <time>2014-03-30T10:17:16Z</time>
      </trkpt>
      <trkpt lat="49.25329" lon="1.38116">
        <ele>70.03</ele>
        <time>2014-03-30T10:17:21Z</time>
      </trkpt>
      <trkpt lat="49.25345" lon="1.38108">
        <ele>69.01</ele>
        <time>2014-03-30T10:17:27Z</time>
      </trkpt>
      <trkpt lat="49.25356" lon="1.38104">
        <ele>67.38</ele>
        <time>2014-03-30T10:17:31Z</time>
      </trkpt>
      <trkpt lat="49.25369" lon="1.38099">
        <ele>65.34</ele>
        <time>2014-03-30T10:17:36Z</time>
      </trkpt>
      <trkpt lat="49.25377" lon="1.38101">
        <ele>64.87</ele>
        <time>2014-03-30T10:17:40Z</time>
      </trkpt>
      <trkpt lat="49.25385" lon="1.38102">
        <ele>64.89</ele>
        <time>2014-03-30T10:17:46Z</time>
      </trkpt>
      <trkpt lat="49.25384" lon="1.38103">
        <ele>65.02</ele>
        <time>2014-03-30T10:17:56Z</time>
      </trkpt>
      <trkpt lat="49.25384" lon="1.38104">
        <ele>65.18</ele>
        <time>2014-03-30T10:18:10Z</time>
      </trkpt>
      <trkpt lat="49.25386" lon="1.38105">
        <ele>65.15</ele>
        <time>2014-03-30T10:18:25Z</time>
      </trkpt>
      <trkpt lat="49.25386" lon="1.38106">
        <ele>65.31</ele>
        <time>2014-03-30T10:18:44Z</time>
      </trkpt>
      <trkpt lat="49.25386" lon="1.38105">
        <ele>66.07</ele>
        <time>2014-03-30T10:19:04Z</time>
      </trkpt>
      <trkpt lat="49.25387" lon="1.38104">
        <ele>65.07</ele>
        <time>2014-03-30T10:19:23Z</time>
      </trkpt>
      <trkpt lat="49.25388" lon="1.38105">
        <ele>66.26</ele>
        <time>2014-03-30T10:19:38Z</time>
      </trkpt>
      <trkpt lat="49.25388" lon="1.38106">
        <ele>64.84</ele>
        <time>2014-03-30T10:19:54Z</time>
      </trkpt>
      <trkpt lat="49.25388" lon="1.38107">
        <ele>64.86</ele>
        <time>2014-03-30T10:20:11Z</time>
      </trkpt>
      <trkpt lat="49.25388" lon="1.38107">
        <ele>64.96</ele>
        <time>2014-03-30T10:20:23Z</time>
      </trkpt>
      <trkpt lat="49.25389" lon="1.38108">
        <ele>65.84</ele>
        <time>2014-03-30T10:20:40Z</time>
      </trkpt>
      <trkpt lat="49.25394" lon="1.38108">
        <ele>65.41</ele>
        <time>2014-03-30T10:20:46Z</time>
      </trkpt>
      <trkpt lat="49.25412" lon="1.38105">
        <ele>64.39</ele>
        <time>2014-03-30T10:20:53Z</time>
      </trkpt>
      <trkpt lat="49.25422" lon="1.3809">
        <ele>60.77</ele>
        <time>2014-03-30T10:20:58Z</time>
      </trkpt>
      <trkpt lat="49.25426" lon="1.38086">
        <ele>59.35</ele>
        <time>2014-03-30T10:20:59Z</time>
      </trkpt>
      <trkpt lat="49.25436" lon="1.3807">
        <ele>53.13</ele>
        <time>2014-03-30T10:21:03Z</time>
      </trkpt>
      <trkpt lat="49.25444" lon="1.38065">
        <ele>50.04</ele>
        <time>2014-03-30T10:21:06Z</time>
      </trkpt>
      <trkpt lat="49.25457" lon="1.38065">
        <ele>47.56</ele>
        <time>2014-03-30T10:21:09Z</time>
      </trkpt>
      <trkpt lat="49.25488" lon="1.38073">
        <ele>46.23</ele>
        <time>2014-03-30T10:21:16Z</time>
      </trkpt>
      <trkpt lat="49.25506" lon="1.38086">
        <ele>46.79</ele>
        <time>2014-03-30T10:21:22Z</time>
      </trkpt>
      <trkpt lat="49.25521" lon="1.38098">
        <ele>48.46</ele>
        <time>2014-03-30T10:21:29Z</time>
      </trkpt>
      <trkpt lat="49.25539" lon="1.38108">
        <ele>48.68</ele>
        <time>2014-03-30T10:21:35Z</time>
      </trkpt>
      <trkpt lat="49.25552" lon="1.38114">
        <ele>47.6</ele>
        <time>2014-03-30T10:21:38Z</time>
      </trkpt>
      <trkpt lat="49.25576" lon="1.38128">
        <ele>46.94</ele>
        <time>2014-03-30T10:21:43Z</time>
      </trkpt>
      <trkpt lat="49.25585" lon="1.38137">
        <ele>46.12</ele>
        <time>2014-03-30T10:21:45Z</time>
      </trkpt>
      <trkpt lat="49.25603" lon="1.38152">
        <ele>44.49</ele>
        <time>2014-03-30T10:21:48Z</time>
      </trkpt>
      <trkpt lat="49.25621" lon="1.38169">
        <ele>42.86</ele>
        <time>2014-03-30T10:21:51Z</time>
      </trkpt>
      <trkpt lat="49.25644" lon="1.38181">
        <ele>39.37</ele>
        <time>2014-03-30T10:21:56Z</time>
      </trkpt>
      <trkpt lat="49.25641" lon="1.38168">
        <ele>36.48</ele>
        <time>2014-03-30T10:22:00Z</time>
      </trkpt>
      <trkpt lat="49.25638" lon="1.38159">
        <ele>33.4</ele>
        <time>2014-03-30T10:22:05Z</time>
      </trkpt>
      <trkpt lat="49.25643" lon="1.38157">
        <ele>30.76</ele>
        <time>2014-03-30T10:22:12Z</time>
      </trkpt>
      <trkpt lat="49.25646" lon="1.38146">
        <ele>27.38</ele>
        <time>2014-03-30T10:22:18Z</time>
      </trkpt>
      <trkpt lat="49.25637" lon="1.38134">
        <ele>26.86</ele>
        <time>2014-03-30T10:22:24Z</time>
      </trkpt>
      <trkpt lat="49.25635" lon="1.3813">
        <ele>26.81</ele>
        <time>2014-03-30T10:22:25Z</time>
      </trkpt>
      <trkpt lat="49.25623" lon="1.38112">
        <ele>26.52</ele>
        <time>2014-03-30T10:22:29Z</time>
      </trkpt>
      <trkpt lat="49.25615" lon="1.38098">
        <ele>25.97</ele>
        <time>2014-03-30T10:22:32Z</time>
      </trkpt>
      <trkpt lat="49.25598" lon="1.38057">
        <ele>26.11</ele>
        <time>2014-03-30T10:22:39Z</time>
      </trkpt>
      <trkpt lat="49.25585" lon="1.38021">
        <ele>25.86</ele>
        <time>2014-03-30T10:22:44Z</time>
      </trkpt>
      <trkpt lat="49.25565" lon="1.37996">
        <ele>25.61</ele>
        <time>2014-03-30T10:22:49Z</time>
      </trkpt>
      <trkpt lat="49.25518" lon="1.37971">
        <ele>24.83</ele>
        <time>2014-03-30T10:22:58Z</time>
      </trkpt>
      <trkpt lat="49.25468" lon="1.37956">
        <ele>24.51</ele>
        <time>2014-03-30T10:23:07Z</time>
      </trkpt>
      <trkpt lat="49.25422" lon="1.37948">
        <ele>24.19</ele>
        <time>2014-03-30T10:23:15Z</time>
      </trkpt>
      <trkpt lat="49.25406" lon="1.3795">
        <ele>24.15</ele>
        <time>2014-03-30T10:23:18Z</time>
      </trkpt>
      <trkpt lat="49.25394" lon="1.37951">
        <ele>24.57</ele>
        <time>2014-03-30T10:23:23Z</time>
      </trkpt>
      <trkpt lat="49.25394" lon="1.37949">
        <ele>24.92</ele>
        <time>2014-03-30T10:23:25Z</time>
      </trkpt>
      <trkpt lat="49.25396" lon="1.37934">
        <ele>25.34</ele>
        <time>2014-03-30T10:23:29Z</time>
      </trkpt>
      <trkpt lat="49.25402" lon="1.37895">
        <ele>25.58</ele>
        <time>2014-03-30T10:23:39Z</time>
      </trkpt>
      <trkpt lat="49.25415" lon="1.37873">
        <ele>26.45</ele>
        <time>2014-03-30T10:23:45Z</time>
      </trkpt>
      <trkpt lat="49.25432" lon="1.37868">
        <ele>27.75</ele>
        <time>2014-03-30T10:23:51Z</time>
      </trkpt>
      <trkpt lat="49.25458" lon="1.37866">
        <ele>29.89</ele>
        <time>2014-03-30T10:24:01Z</time>
      </trkpt>
      <trkpt lat="49.25475" lon="1.3786">
        <ele>31.51</ele>
        <time>2014-03-30T10:24:08Z</time>
      </trkpt>
      <trkpt lat="49.2548" lon="1.37856">
        <ele>32.21</ele>
        <time>2014-03-30T10:24:11Z</time>
      </trkpt>
      <trkpt lat="49.25487" lon="1.37854">
        <ele>33.13</ele>
        <time>2014-03-30T10:24:15Z</time>
      </trkpt>
      <trkpt lat="49.25502" lon="1.37848">
        <ele>35.76</ele>
        <time>2014-03-30T10:24:25Z</time>
      </trkpt>
      <trkpt lat="49.25513" lon="1.37849">
        <ele>36.99</ele>
        <time>2014-03-30T10:24:31Z</time>
      </trkpt>
      <trkpt lat="49.25524" lon="1.3785">
        <ele>39.18</ele>
        <time>2014-03-30T10:24:40Z</time>
      </trkpt>
      <trkpt lat="49.25539" lon="1.37853">
        <ele>41.59</ele>
        <time>2014-03-30T10:24:49Z</time>
      </trkpt>
      <trkpt lat="49.2555" lon="1.37856">
        <ele>43.28</ele>
        <time>2014-03-30T10:24:56Z</time>
      </trkpt>
      <trkpt lat="49.25559" lon="1.37858">
        <ele>45.31</ele>
        <time>2014-03-30T10:25:03Z</time>
      </trkpt>
      <trkpt lat="49.25564" lon="1.37858">
        <ele>46.07</ele>
        <time>2014-03-30T10:25:06Z</time>
      </trkpt>
      <trkpt lat="49.25575" lon="1.37856">
        <ele>48.26</ele>
        <time>2014-03-30T10:25:13Z</time>
      </trkpt>
      <trkpt lat="49.25588" lon="1.37863">
        <ele>50.86</ele>
        <time>2014-03-30T10:25:23Z</time>
      </trkpt>
      <trkpt lat="49.25597" lon="1.37864">
        <ele>53.18</ele>
        <time>2014-03-30T10:25:30Z</time>
      </trkpt>
      <trkpt lat="49.25602" lon="1.37865">
        <ele>53.95</ele>
        <time>2014-03-30T10:25:33Z</time>
      </trkpt>
      <trkpt lat="49.25612" lon="1.37874">
        <ele>56.3</ele>
        <time>2014-03-30T10:25:42Z</time>
      </trkpt>
      <trkpt lat="49.25616" lon="1.37875">
        <ele>57.19</ele>
        <time>2014-03-30T10:25:45Z</time>
      </trkpt>
      <trkpt lat="49.25626" lon="1.37882">
        <ele>60.11</ele>
        <time>2014-03-30T10:25:54Z</time>
      </trkpt>
      <trkpt lat="49.25635" lon="1.37887">
        <ele>62.51</ele>
        <time>2014-03-30T10:26:02Z</time>
      </trkpt>
      <trkpt lat="49.25642" lon="1.37876">
        <ele>62.86</ele>
        <time>2014-03-30T10:26:09Z</time>
      </trkpt>
      <trkpt lat="49.25654" lon="1.37875">
        <ele>64.06</ele>
        <time>2014-03-30T10:26:18Z</time>
      </trkpt>
      <trkpt lat="49.25657" lon="1.37875">
        <ele>64.19</ele>
        <time>2014-03-30T10:26:19Z</time>
      </trkpt>
      <trkpt lat="49.25662" lon="1.37877">
        <ele>65.01</ele>
        <time>2014-03-30T10:26:26Z</time>
      </trkpt>
      <trkpt lat="49.25666" lon="1.37876">
        <ele>66.22</ele>
        <time>2014-03-30T10:26:33Z</time>
      </trkpt>
      <trkpt lat="49.25668" lon="1.37878">
        <ele>66.57</ele>
        <time>2014-03-30T10:26:40Z</time>
      </trkpt>
      <trkpt lat="49.25673" lon="1.37879">
        <ele>67</ele>
        <time>2014-03-30T10:26:48Z</time>
      </trkpt>
      <trkpt lat="49.25679" lon="1.3788">
        <ele>68.1</ele>
        <time>2014-03-30T10:26:57Z</time>
      </trkpt>
      <trkpt lat="49.25685" lon="1.37879">
        <ele>69.71</ele>
        <time>2014-03-30T10:27:07Z</time>
      </trkpt>
      <trkpt lat="49.25692" lon="1.37881">
        <ele>70.82</ele>
        <time>2014-03-30T10:27:18Z</time>
      </trkpt>
      <trkpt lat="49.25699" lon="1.37884">
        <ele>72.62</ele>
        <time>2014-03-30T10:27:26Z</time>
      </trkpt>
      <trkpt lat="49.25705" lon="1.37871">
        <ele>75.37</ele>
        <time>2014-03-30T10:27:38Z</time>
      </trkpt>
      <trkpt lat="49.25709" lon="1.37862">
        <ele>76.28</ele>
        <time>2014-03-30T10:27:51Z</time>
      </trkpt>
      <trkpt lat="49.2571" lon="1.37853">
        <ele>77.61</ele>
        <time>2014-03-30T10:27:58Z</time>
      </trkpt>
      <trkpt lat="49.25717" lon="1.37831">
        <ele>79.79</ele>
        <time>2014-03-30T10:28:09Z</time>
      </trkpt>
      <trkpt lat="49.25721" lon="1.3782">
        <ele>81.39</ele>
        <time>2014-03-30T10:28:16Z</time>
      </trkpt>
      <trkpt lat="49.25722" lon="1.37819">
        <ele>81.48</ele>
        <time>2014-03-30T10:28:26Z</time>
      </trkpt>
      <trkpt lat="49.25724" lon="1.37818">
        <ele>81.61</ele>
        <time>2014-03-30T10:28:32Z</time>
      </trkpt>
      <trkpt lat="49.25725" lon="1.37808">
        <ele>83.3</ele>
        <time>2014-03-30T10:28:44Z</time>
      </trkpt>
      <trkpt lat="49.25726" lon="1.37785">
        <ele>86.44</ele>
        <time>2014-03-30T10:28:59Z</time>
      </trkpt>
      <trkpt lat="49.25727" lon="1.37766">
        <ele>89.1</ele>
        <time>2014-03-30T10:29:15Z</time>
      </trkpt>
      <trkpt lat="49.25726" lon="1.37755">
        <ele>89.95</ele>
        <time>2014-03-30T10:29:27Z</time>
      </trkpt>
      <trkpt lat="49.25724" lon="1.37748">
        <ele>91.38</ele>
        <time>2014-03-30T10:29:31Z</time>
      </trkpt>
      <trkpt lat="49.25722" lon="1.37722">
        <ele>94.69</ele>
        <time>2014-03-30T10:29:45Z</time>
      </trkpt>
      <trkpt lat="49.25721" lon="1.37697">
        <ele>97.83</ele>
        <time>2014-03-30T10:29:57Z</time>
      </trkpt>
      <trkpt lat="49.25718" lon="1.37675">
        <ele>100.23</ele>
        <time>2014-03-30T10:30:09Z</time>
      </trkpt>
      <trkpt lat="49.25715" lon="1.37647">
        <ele>103.29</ele>
        <time>2014-03-30T10:30:25Z</time>
      </trkpt>
      <trkpt lat="49.25711" lon="1.37622">
        <ele>105.74</ele>
        <time>2014-03-30T10:30:37Z</time>
      </trkpt>
      <trkpt lat="49.25711" lon="1.37595">
        <ele>108.8</ele>
        <time>2014-03-30T10:30:52Z</time>
      </trkpt>
      <trkpt lat="49.25709" lon="1.37575">
        <ele>110.76</ele>
        <time>2014-03-30T10:31:05Z</time>
      </trkpt>
      <trkpt lat="49.25709" lon="1.37544">
        <ele>112.74</ele>
        <time>2014-03-30T10:31:18Z</time>
      </trkpt>
      <trkpt lat="49.25708" lon="1.37534">
        <ele>113.65</ele>
        <time>2014-03-30T10:31:23Z</time>
      </trkpt>
      <trkpt lat="49.25711" lon="1.37514">
        <ele>114.98</ele>
        <time>2014-03-30T10:31:31Z</time>
      </trkpt>
      <trkpt lat="49.25714" lon="1.37503">
        <ele>115.25</ele>
        <time>2014-03-30T10:31:35Z</time>
      </trkpt>
      <trkpt lat="49.25714" lon="1.37489">
        <ele>115.99</ele>
        <time>2014-03-30T10:31:40Z</time>
      </trkpt>
      <trkpt lat="49.25718" lon="1.37471">
        <ele>117.18</ele>
        <time>2014-03-30T10:31:47Z</time>
      </trkpt>
      <trkpt lat="49.25717" lon="1.3745">
        <ele>118.15</ele>
        <time>2014-03-30T10:31:55Z</time>
      </trkpt>
      <trkpt lat="49.25716" lon="1.37436">
        <ele>118.95</ele>
        <time>2014-03-30T10:32:00Z</time>
      </trkpt>
      <trkpt lat="49.25714" lon="1.37413">
        <ele>120.38</ele>
        <time>2014-03-30T10:32:07Z</time>
      </trkpt>
      <trkpt lat="49.25712" lon="1.37394">
        <ele>121.32</ele>
        <time>2014-03-30T10:32:13Z</time>
      </trkpt>
      <trkpt lat="49.25712" lon="1.3737">
        <ele>122.99</ele>
        <time>2014-03-30T10:32:21Z</time>
      </trkpt>
      <trkpt lat="49.25709" lon="1.37349">
        <ele>124.62</ele>
        <time>2014-03-30T10:32:28Z</time>
      </trkpt>
      <trkpt lat="49.25706" lon="1.37337">
        <ele>125.07</ele>
        <time>2014-03-30T10:32:34Z</time>
      </trkpt>
      <trkpt lat="49.25708" lon="1.37315">
        <ele>126</ele>
        <time>2014-03-30T10:32:41Z</time>
      </trkpt>
      <trkpt lat="49.25724" lon="1.37265">
        <ele>128.08</ele>
        <time>2014-03-30T10:32:54Z</time>
      </trkpt>
      <trkpt lat="49.25736" lon="1.3722">
        <ele>129.92</ele>
        <time>2014-03-30T10:33:04Z</time>
      </trkpt>
      <trkpt lat="49.25749" lon="1.37168">
        <ele>131.95</ele>
        <time>2014-03-30T10:33:15Z</time>
      </trkpt>
      <trkpt lat="49.25764" lon="1.37114">
        <ele>133.71</ele>
        <time>2014-03-30T10:33:26Z</time>
      </trkpt>
      <trkpt lat="49.25778" lon="1.37062">
        <ele>135.31</ele>
        <time>2014-03-30T10:33:36Z</time>
      </trkpt>
      <trkpt lat="49.25782" lon="1.37045">
        <ele>136.01</ele>
        <time>2014-03-30T10:33:39Z</time>
      </trkpt>
      <trkpt lat="49.25803" lon="1.36976">
        <ele>138.61</ele>
        <time>2014-03-30T10:33:51Z</time>
      </trkpt>
      <trkpt lat="49.25818" lon="1.36924">
        <ele>140.06</ele>
        <time>2014-03-30T10:34:00Z</time>
      </trkpt>
      <trkpt lat="49.25838" lon="1.36853">
        <ele>141.42</ele>
        <time>2014-03-30T10:34:11Z</time>
      </trkpt>
      <trkpt lat="49.25861" lon="1.36774">
        <ele>142.57</ele>
        <time>2014-03-30T10:34:23Z</time>
      </trkpt>
      <trkpt lat="49.25884" lon="1.36689">
        <ele>143.65</ele>
        <time>2014-03-30T10:34:36Z</time>
      </trkpt>
      <trkpt lat="49.25897" lon="1.36636">
        <ele>144.7</ele>
        <time>2014-03-30T10:34:44Z</time>
      </trkpt>
      <trkpt lat="49.25898" lon="1.36629">
        <ele>144.87</ele>
        <time>2014-03-30T10:34:45Z</time>
      </trkpt>
      <trkpt lat="49.25896" lon="1.36566">
        <ele>144.58</ele>
        <time>2014-03-30T10:34:53Z</time>
      </trkpt>
      <trkpt lat="49.25884" lon="1.36483">
        <ele>144.65</ele>
        <time>2014-03-30T10:35:03Z</time>
      </trkpt>
      <trkpt lat="49.25871" lon="1.36398">
        <ele>145.32</ele>
        <time>2014-03-30T10:35:13Z</time>
      </trkpt>
      <trkpt lat="49.25869" lon="1.36389">
        <ele>145.56</ele>
        <time>2014-03-30T10:35:14Z</time>
      </trkpt>
      <trkpt lat="49.25854" lon="1.36296">
        <ele>146.26</ele>
        <time>2014-03-30T10:35:25Z</time>
      </trkpt>
      <trkpt lat="49.25841" lon="1.36221">
        <ele>146.75</ele>
        <time>2014-03-30T10:35:34Z</time>
      </trkpt>
      <trkpt lat="49.25837" lon="1.36188">
        <ele>146.63</ele>
        <time>2014-03-30T10:35:38Z</time>
      </trkpt>
      <trkpt lat="49.25843" lon="1.36148">
        <ele>146.59</ele>
        <time>2014-03-30T10:35:43Z</time>
      </trkpt>
      <trkpt lat="49.25859" lon="1.36136">
        <ele>146.35</ele>
        <time>2014-03-30T10:35:46Z</time>
      </trkpt>
      <trkpt lat="49.25939" lon="1.36127">
        <ele>144.92</ele>
        <time>2014-03-30T10:35:58Z</time>
      </trkpt>
      <trkpt lat="49.25994" lon="1.36118">
        <ele>143.14</ele>
        <time>2014-03-30T10:36:06Z</time>
      </trkpt>
      <trkpt lat="49.26029" lon="1.36145">
        <ele>141.44</ele>
        <time>2014-03-30T10:36:11Z</time>
      </trkpt>
      <trkpt lat="49.26052" lon="1.36168">
        <ele>139</ele>
        <time>2014-03-30T10:36:14Z</time>
      </trkpt>
      <trkpt lat="49.26098" lon="1.3624">
        <ele>135.71</ele>
        <time>2014-03-30T10:36:21Z</time>
      </trkpt>
      <trkpt lat="49.26135" lon="1.36302">
        <ele>132.59</ele>
        <time>2014-03-30T10:36:27Z</time>
      </trkpt>
      <trkpt lat="49.26165" lon="1.36337">
        <ele>128.98</ele>
        <time>2014-03-30T10:36:31Z</time>
      </trkpt>
      <trkpt lat="49.26174" lon="1.36345">
        <ele>128.46</ele>
        <time>2014-03-30T10:36:32Z</time>
      </trkpt>
      <trkpt lat="49.26223" lon="1.36375">
        <ele>123.79</ele>
        <time>2014-03-30T10:36:37Z</time>
      </trkpt>
      <trkpt lat="49.26252" lon="1.36394">
        <ele>120.1</ele>
        <time>2014-03-30T10:36:40Z</time>
      </trkpt>
      <trkpt lat="49.26304" lon="1.36424">
        <ele>117.94</ele>
        <time>2014-03-30T10:36:46Z</time>
      </trkpt>
      <trkpt lat="49.26311" lon="1.36428">
        <ele>117.44</ele>
        <time>2014-03-30T10:36:47Z</time>
      </trkpt>
      <trkpt lat="49.26324" lon="1.36431">
        <ele>116.91</ele>
        <time>2014-03-30T10:36:49Z</time>
      </trkpt>
      <trkpt lat="49.2635" lon="1.36462">
        <ele>115.98</ele>
        <time>2014-03-30T10:36:54Z</time>
      </trkpt>
      <trkpt lat="49.26374" lon="1.36518">
        <ele>111.16</ele>
        <time>2014-03-30T10:36:59Z</time>
      </trkpt>
      <trkpt lat="49.2638" lon="1.36532">
        <ele>110.89</ele>
        <time>2014-03-30T10:37:00Z</time>
      </trkpt>
      <trkpt lat="49.26391" lon="1.36562">
        <ele>108.76</ele>
        <time>2014-03-30T10:37:02Z</time>
      </trkpt>
      <trkpt lat="49.26408" lon="1.36629">
        <ele>104.07</ele>
        <time>2014-03-30T10:37:06Z</time>
      </trkpt>
      <trkpt lat="49.26413" lon="1.36646">
        <ele>102.58</ele>
        <time>2014-03-30T10:37:07Z</time>
      </trkpt>
      <trkpt lat="49.26428" lon="1.36697">
        <ele>97.51</ele>
        <time>2014-03-30T10:37:10Z</time>
      </trkpt>
      <trkpt lat="49.26441" lon="1.36742">
        <ele>93.58</ele>
        <time>2014-03-30T10:37:13Z</time>
      </trkpt>
      <trkpt lat="49.26444" lon="1.36753">
        <ele>92.61</ele>
        <time>2014-03-30T10:37:14Z</time>
      </trkpt>
      <trkpt lat="49.26467" lon="1.36789">
        <ele>88.55</ele>
        <time>2014-03-30T10:37:19Z</time>
      </trkpt>
      <trkpt lat="49.26479" lon="1.36821">
        <ele>87.11</ele>
        <time>2014-03-30T10:37:23Z</time>
      </trkpt>
      <trkpt lat="49.26483" lon="1.36843">
        <ele>86.6</ele>
        <time>2014-03-30T10:37:25Z</time>
      </trkpt>
      <trkpt lat="49.26497" lon="1.36917">
        <ele>82.24</ele>
        <time>2014-03-30T10:37:31Z</time>
      </trkpt>
      <trkpt lat="49.26511" lon="1.36991">
        <ele>78.84</ele>
        <time>2014-03-30T10:37:36Z</time>
      </trkpt>
      <trkpt lat="49.26518" lon="1.3704">
        <ele>75.47</ele>
        <time>2014-03-30T10:37:39Z</time>
      </trkpt>
      <trkpt lat="49.26524" lon="1.37093">
        <ele>70.64</ele>
        <time>2014-03-30T10:37:42Z</time>
      </trkpt>
      <trkpt lat="49.26529" lon="1.37128">
        <ele>67.44</ele>
        <time>2014-03-30T10:37:44Z</time>
      </trkpt>
      <trkpt lat="49.26531" lon="1.37146">
        <ele>66.1</ele>
        <time>2014-03-30T10:37:45Z</time>
      </trkpt>
      <trkpt lat="49.2653" lon="1.37202">
        <ele>61.69</ele>
        <time>2014-03-30T10:37:48Z</time>
      </trkpt>
      <trkpt lat="49.26524" lon="1.37272">
        <ele>58.06</ele>
        <time>2014-03-30T10:37:52Z</time>
      </trkpt>
      <trkpt lat="49.26518" lon="1.37333">
        <ele>55.84</ele>
        <time>2014-03-30T10:37:56Z</time>
      </trkpt>
      <trkpt lat="49.26507" lon="1.37396">
        <ele>54.92</ele>
        <time>2014-03-30T10:38:02Z</time>
      </trkpt>
      <trkpt lat="49.26504" lon="1.37425">
        <ele>54.38</ele>
        <time>2014-03-30T10:38:06Z</time>
      </trkpt>
      <trkpt lat="49.26509" lon="1.37469">
        <ele>53.78</ele>
        <time>2014-03-30T10:38:13Z</time>
      </trkpt>
      <trkpt lat="49.26508" lon="1.37505">
        <ele>53.75</ele>
        <time>2014-03-30T10:38:18Z</time>
      </trkpt>
      <trkpt lat="49.26515" lon="1.3755">
        <ele>52.37</ele>
        <time>2014-03-30T10:38:25Z</time>
      </trkpt>
      <trkpt lat="49.26516" lon="1.37557">
        <ele>52.39</ele>
        <time>2014-03-30T10:38:26Z</time>
      </trkpt>
      <trkpt lat="49.26525" lon="1.37609">
        <ele>52.11</ele>
        <time>2014-03-30T10:38:33Z</time>
      </trkpt>
      <trkpt lat="49.26532" lon="1.37636">
        <ele>51.09</ele>
        <time>2014-03-30T10:38:37Z</time>
      </trkpt>
      <trkpt lat="49.26538" lon="1.37669">
        <ele>50.56</ele>
        <time>2014-03-30T10:38:43Z</time>
      </trkpt>
      <trkpt lat="49.26541" lon="1.37693">
        <ele>50.19</ele>
        <time>2014-03-30T10:38:49Z</time>
      </trkpt>
      <trkpt lat="49.26538" lon="1.37722">
        <ele>50.36</ele>
        <time>2014-03-30T10:38:54Z</time>
      </trkpt>
      <trkpt lat="49.26537" lon="1.37746">
        <ele>51.12</ele>
        <time>2014-03-30T10:38:59Z</time>
      </trkpt>
      <trkpt lat="49.26537" lon="1.37783">
        <ele>52.1</ele>
        <time>2014-03-30T10:39:08Z</time>
      </trkpt>
      <trkpt lat="49.26537" lon="1.37786">
        <ele>52.05</ele>
        <time>2014-03-30T10:39:09Z</time>
      </trkpt>
      <trkpt lat="49.26536" lon="1.37804">
        <ele>51.58</ele>
        <time>2014-03-30T10:39:16Z</time>
      </trkpt>
      <trkpt lat="49.26533" lon="1.37805">
        <ele>51.72</ele>
        <time>2014-03-30T10:39:25Z</time>
      </trkpt>
      <trkpt lat="49.2653" lon="1.37787">
        <ele>51.94</ele>
        <time>2014-03-30T10:39:32Z</time>
      </trkpt>
      <trkpt lat="49.26527" lon="1.37753">
        <ele>51.09</ele>
        <time>2014-03-30T10:39:41Z</time>
      </trkpt>
      <trkpt lat="49.26529" lon="1.37738">
        <ele>50.55</ele>
        <time>2014-03-30T10:39:46Z</time>
      </trkpt>
      <trkpt lat="49.2653" lon="1.37727">
        <ele>50.49</ele>
        <time>2014-03-30T10:39:50Z</time>
      </trkpt>
      <trkpt lat="49.2653" lon="1.3771">
        <ele>50.09</ele>
        <time>2014-03-30T10:39:57Z</time>
      </trkpt>
      <trkpt lat="49.26532" lon="1.37705">
        <ele>49.9</ele>
        <time>2014-03-30T10:40:05Z</time>
      </trkpt>
      <trkpt lat="49.26533" lon="1.37704">
        <ele>49.67</ele>
        <time>2014-03-30T10:40:17Z</time>
      </trkpt>
      <trkpt lat="49.26532" lon="1.37705">
        <ele>49.87</ele>
        <time>2014-03-30T10:40:33Z</time>
      </trkpt>
      <trkpt lat="49.2653" lon="1.37703">
        <ele>50.07</ele>
        <time>2014-03-30T10:40:51Z</time>
      </trkpt>
      <trkpt lat="49.2653" lon="1.37704">
        <ele>49.65</ele>
        <time>2014-03-30T10:41:05Z</time>
      </trkpt>
      <trkpt lat="49.2653" lon="1.37705">
        <ele>50.44</ele>
        <time>2014-03-30T10:41:18Z</time>
      </trkpt>
      <trkpt lat="49.2653" lon="1.37705">
        <ele>49.78</ele>
        <time>2014-03-30T10:41:36Z</time>
      </trkpt>
      <trkpt lat="49.26529" lon="1.37706">
        <ele>49.72</ele>
        <time>2014-03-30T10:41:50Z</time>
      </trkpt>
      <trkpt lat="49.26529" lon="1.37709">
        <ele>50.23</ele>
        <time>2014-03-30T10:42:03Z</time>
      </trkpt>
      <trkpt lat="49.26528" lon="1.37709">
        <ele>51.05</ele>
        <time>2014-03-30T10:42:20Z</time>
      </trkpt>
      <trkpt lat="49.26528" lon="1.3771">
        <ele>49.89</ele>
        <time>2014-03-30T10:42:34Z</time>
      </trkpt>
      <trkpt lat="49.26528" lon="1.3771">
        <ele>50.07</ele>
        <time>2014-03-30T10:42:45Z</time>
      </trkpt>
      <trkpt lat="49.2653" lon="1.37712">
        <ele>50.44</ele>
        <time>2014-03-30T10:42:57Z</time>
      </trkpt>
      <trkpt lat="49.26528" lon="1.37714">
        <ele>50.5</ele>
        <time>2014-03-30T10:43:08Z</time>
      </trkpt>
      <trkpt lat="49.26529" lon="1.37716">
        <ele>50.56</ele>
        <time>2014-03-30T10:43:09Z</time>
      </trkpt>
      <trkpt lat="49.26527" lon="1.37741">
        <ele>50.86</ele>
        <time>2014-03-30T10:43:18Z</time>
      </trkpt>
      <trkpt lat="49.26528" lon="1.37759">
        <ele>51.23</ele>
        <time>2014-03-30T10:43:24Z</time>
      </trkpt>
      <trkpt lat="49.26529" lon="1.37779">
        <ele>52.12</ele>
        <time>2014-03-30T10:43:31Z</time>
      </trkpt>
      <trkpt lat="49.26532" lon="1.37806">
        <ele>52.16</ele>
        <time>2014-03-30T10:43:38Z</time>
      </trkpt>
      <trkpt lat="49.26532" lon="1.37837">
        <ele>51.41</ele>
        <time>2014-03-30T10:43:44Z</time>
      </trkpt>
      <trkpt lat="49.26534" lon="1.37865">
        <ele>51.74</ele>
        <time>2014-03-30T10:43:50Z</time>
      </trkpt>
      <trkpt lat="49.26535" lon="1.37889">
        <ele>51.96</ele>
        <time>2014-03-30T10:43:56Z</time>
      </trkpt>
      <trkpt lat="49.26536" lon="1.37917">
        <ele>51.43</ele>
        <time>2014-03-30T10:44:02Z</time>
      </trkpt>
      <trkpt lat="49.26537" lon="1.37937">
        <ele>52.28</ele>
        <time>2014-03-30T10:44:08Z</time>
      </trkpt>
      <trkpt lat="49.26537" lon="1.37959">
        <ele>52.91</ele>
        <time>2014-03-30T10:44:14Z</time>
      </trkpt>
      <trkpt lat="49.26539" lon="1.37993">
        <ele>53.74</ele>
        <time>2014-03-30T10:44:23Z</time>
      </trkpt>
      <trkpt lat="49.26538" lon="1.38032">
        <ele>53.58</ele>
        <time>2014-03-30T10:44:30Z</time>
      </trkpt>
      <trkpt lat="49.26537" lon="1.38069">
        <ele>53.47</ele>
        <time>2014-03-30T10:44:38Z</time>
      </trkpt>
      <trkpt lat="49.26528" lon="1.38099">
        <ele>53.95</ele>
        <time>2014-03-30T10:44:44Z</time>
      </trkpt>
      <trkpt lat="49.26526" lon="1.38124">
        <ele>55.78</ele>
        <time>2014-03-30T10:44:52Z</time>
      </trkpt>
      <trkpt lat="49.2653" lon="1.38137">
        <ele>57.75</ele>
        <time>2014-03-30T10:45:00Z</time>
      </trkpt>
      <trkpt lat="49.26533" lon="1.38156">
        <ele>59.81</ele>
        <time>2014-03-30T10:45:10Z</time>
      </trkpt>
      <trkpt lat="49.26536" lon="1.38163">
        <ele>60.63</ele>
        <time>2014-03-30T10:45:14Z</time>
      </trkpt>
      <trkpt lat="49.26542" lon="1.38181">
        <ele>62.48</ele>
        <time>2014-03-30T10:45:22Z</time>
      </trkpt>
      <trkpt lat="49.26552" lon="1.38205">
        <ele>64.37</ele>
        <time>2014-03-30T10:45:32Z</time>
      </trkpt>
      <trkpt lat="49.26557" lon="1.38219">
        <ele>66.17</ele>
        <time>2014-03-30T10:45:40Z</time>
      </trkpt>
      <trkpt lat="49.26562" lon="1.38233">
        <ele>67.95</ele>
        <time>2014-03-30T10:45:48Z</time>
      </trkpt>
      <trkpt lat="49.26567" lon="1.3825">
        <ele>69.33</ele>
        <time>2014-03-30T10:45:56Z</time>
      </trkpt>
      <trkpt lat="49.26568" lon="1.38264">
        <ele>70.81</ele>
        <time>2014-03-30T10:46:03Z</time>
      </trkpt>
      <trkpt lat="49.2657" lon="1.38276">
        <ele>71.71</ele>
        <time>2014-03-30T10:46:09Z</time>
      </trkpt>
      <trkpt lat="49.26571" lon="1.38295">
        <ele>73.6</ele>
        <time>2014-03-30T10:46:18Z</time>
      </trkpt>
      <trkpt lat="49.26573" lon="1.38313">
        <ele>75</ele>
        <time>2014-03-30T10:46:25Z</time>
      </trkpt>
      <trkpt lat="49.26573" lon="1.38316">
        <ele>75.24</ele>
        <time>2014-03-30T10:46:27Z</time>
      </trkpt>
      <trkpt lat="49.26574" lon="1.38339">
        <ele>77.18</ele>
        <time>2014-03-30T10:46:37Z</time>
      </trkpt>
      <trkpt lat="49.26573" lon="1.38342">
        <ele>77.47</ele>
        <time>2014-03-30T10:46:39Z</time>
      </trkpt>
      <trkpt lat="49.26571" lon="1.38352">
        <ele>78.8</ele>
        <time>2014-03-30T10:46:44Z</time>
      </trkpt>
      <trkpt lat="49.26568" lon="1.38364">
        <ele>79.77</ele>
        <time>2014-03-30T10:46:50Z</time>
      </trkpt>
      <trkpt lat="49.26564" lon="1.38377">
        <ele>81.67</ele>
        <time>2014-03-30T10:46:58Z</time>
      </trkpt>
      <trkpt lat="49.26564" lon="1.38378">
        <ele>82</ele>
        <time>2014-03-30T10:46:59Z</time>
      </trkpt>
      <trkpt lat="49.26559" lon="1.38396">
        <ele>83.85</ele>
        <time>2014-03-30T10:47:09Z</time>
      </trkpt>
      <trkpt lat="49.26559" lon="1.38398">
        <ele>84</ele>
        <time>2014-03-30T10:47:10Z</time>
      </trkpt>
      <trkpt lat="49.26559" lon="1.38403">
        <ele>84.65</ele>
        <time>2014-03-30T10:47:13Z</time>
      </trkpt>
      <trkpt lat="49.26556" lon="1.38413">
        <ele>85.73</ele>
        <time>2014-03-30T10:47:18Z</time>
      </trkpt>
      <trkpt lat="49.26556" lon="1.38426">
        <ele>86.68</ele>
        <time>2014-03-30T10:47:23Z</time>
      </trkpt>
      <trkpt lat="49.26554" lon="1.38447">
        <ele>88.16</ele>
        <time>2014-03-30T10:47:31Z</time>
      </trkpt>
      <trkpt lat="49.26548" lon="1.38463">
        <ele>90.02</ele>
        <time>2014-03-30T10:47:39Z</time>
      </trkpt>
      <trkpt lat="49.26547" lon="1.38467">
        <ele>90.46</ele>
        <time>2014-03-30T10:47:41Z</time>
      </trkpt>
      <trkpt lat="49.26545" lon="1.38482">
        <ele>91.97</ele>
        <time>2014-03-30T10:47:49Z</time>
      </trkpt>
      <trkpt lat="49.26545" lon="1.38485">
        <ele>92.23</ele>
        <time>2014-03-30T10:47:51Z</time>
      </trkpt>
      <trkpt lat="49.26545" lon="1.38508">
        <ele>93.77</ele>
        <time>2014-03-30T10:48:00Z</time>
      </trkpt>
      <trkpt lat="49.26544" lon="1.38526">
        <ele>95.29</ele>
        <time>2014-03-30T10:48:09Z</time>
      </trkpt>
      <trkpt lat="49.26544" lon="1.38534">
        <ele>95.84</ele>
        <time>2014-03-30T10:48:13Z</time>
      </trkpt>
      <trkpt lat="49.2654" lon="1.38538">
        <ele>96.95</ele>
        <time>2014-03-30T10:48:16Z</time>
      </trkpt>
      <trkpt lat="49.26538" lon="1.38535">
        <ele>97.37</ele>
        <time>2014-03-30T10:48:19Z</time>
      </trkpt>
      <trkpt lat="49.26537" lon="1.38519">
        <ele>97.99</ele>
        <time>2014-03-30T10:48:28Z</time>
      </trkpt>
      <trkpt lat="49.26534" lon="1.385">
        <ele>98.77</ele>
        <time>2014-03-30T10:48:35Z</time>
      </trkpt>
      <trkpt lat="49.26529" lon="1.38489">
        <ele>99.35</ele>
        <time>2014-03-30T10:48:41Z</time>
      </trkpt>
      <trkpt lat="49.26527" lon="1.38485">
        <ele>99.88</ele>
        <time>2014-03-30T10:48:44Z</time>
      </trkpt>
      <trkpt lat="49.26519" lon="1.38478">
        <ele>101.28</ele>
        <time>2014-03-30T10:48:51Z</time>
      </trkpt>
      <trkpt lat="49.26518" lon="1.38477">
        <ele>101.44</ele>
        <time>2014-03-30T10:48:52Z</time>
      </trkpt>
      <trkpt lat="49.26514" lon="1.38471">
        <ele>102.37</ele>
        <time>2014-03-30T10:48:56Z</time>
      </trkpt>
      <trkpt lat="49.26512" lon="1.38461">
        <ele>103.59</ele>
        <time>2014-03-30T10:49:01Z</time>
      </trkpt>
      <trkpt lat="49.26508" lon="1.38448">
        <ele>104.76</ele>
        <time>2014-03-30T10:49:08Z</time>
      </trkpt>
      <trkpt lat="49.26507" lon="1.38441">
        <ele>105.4</ele>
        <time>2014-03-30T10:49:11Z</time>
      </trkpt>
      <trkpt lat="49.26504" lon="1.38433">
        <ele>105.94</ele>
        <time>2014-03-30T10:49:14Z</time>
      </trkpt>
      <trkpt lat="49.26497" lon="1.38422">
        <ele>108.11</ele>
        <time>2014-03-30T10:49:21Z</time>
      </trkpt>
      <trkpt lat="49.26492" lon="1.38412">
        <ele>109.77</ele>
        <time>2014-03-30T10:49:27Z</time>
      </trkpt>
      <trkpt lat="49.26482" lon="1.38399">
        <ele>111.02</ele>
        <time>2014-03-30T10:49:34Z</time>
      </trkpt>
      <trkpt lat="49.26469" lon="1.38392">
        <ele>112.13</ele>
        <time>2014-03-30T10:49:41Z</time>
      </trkpt>
      <trkpt lat="49.26455" lon="1.3839">
        <ele>112.99</ele>
        <time>2014-03-30T10:49:48Z</time>
      </trkpt>
      <trkpt lat="49.2644" lon="1.38389">
        <ele>114.07</ele>
        <time>2014-03-30T10:49:55Z</time>
      </trkpt>
      <trkpt lat="49.26429" lon="1.38392">
        <ele>114.89</ele>
        <time>2014-03-30T10:50:00Z</time>
      </trkpt>
      <trkpt lat="49.26417" lon="1.38397">
        <ele>115.52</ele>
        <time>2014-03-30T10:50:06Z</time>
      </trkpt>
      <trkpt lat="49.26401" lon="1.38404">
        <ele>116.3</ele>
        <time>2014-03-30T10:50:13Z</time>
      </trkpt>
      <trkpt lat="49.2639" lon="1.38411">
        <ele>117.5</ele>
        <time>2014-03-30T10:50:19Z</time>
      </trkpt>
      <trkpt lat="49.26376" lon="1.38416">
        <ele>118.93</ele>
        <time>2014-03-30T10:50:26Z</time>
      </trkpt>
      <trkpt lat="49.26361" lon="1.38423">
        <ele>120.64</ele>
        <time>2014-03-30T10:50:33Z</time>
      </trkpt>
      <trkpt lat="49.26359" lon="1.38425">
        <ele>121.18</ele>
        <time>2014-03-30T10:50:35Z</time>
      </trkpt>
      <trkpt lat="49.26352" lon="1.38428">
        <ele>122.1</ele>
        <time>2014-03-30T10:50:39Z</time>
      </trkpt>
      <trkpt lat="49.26337" lon="1.3844">
        <ele>123.81</ele>
        <time>2014-03-30T10:50:47Z</time>
      </trkpt>
      <trkpt lat="49.26321" lon="1.3845">
        <ele>125.86</ele>
        <time>2014-03-30T10:50:56Z</time>
      </trkpt>
      <trkpt lat="49.26307" lon="1.3846">
        <ele>126.76</ele>
        <time>2014-03-30T10:51:03Z</time>
      </trkpt>
      <trkpt lat="49.26301" lon="1.38464">
        <ele>127.25</ele>
        <time>2014-03-30T10:51:06Z</time>
      </trkpt>
      <trkpt lat="49.26299" lon="1.38465">
        <ele>127.94</ele>
        <time>2014-03-30T10:51:08Z</time>
      </trkpt>
      <trkpt lat="49.2629" lon="1.38473">
        <ele>128.77</ele>
        <time>2014-03-30T10:51:14Z</time>
      </trkpt>
      <trkpt lat="49.26271" lon="1.38491">
        <ele>130.39</ele>
        <time>2014-03-30T10:51:24Z</time>
      </trkpt>
      <trkpt lat="49.26259" lon="1.3851">
        <ele>131.75</ele>
        <time>2014-03-30T10:51:31Z</time>
      </trkpt>
      <trkpt lat="49.26244" lon="1.38524">
        <ele>133.06</ele>
        <time>2014-03-30T10:51:38Z</time>
      </trkpt>
      <trkpt lat="49.26234" lon="1.38539">
        <ele>135.3</ele>
        <time>2014-03-30T10:51:45Z</time>
      </trkpt>
      <trkpt lat="49.26228" lon="1.38552">
        <ele>136.67</ele>
        <time>2014-03-30T10:51:51Z</time>
      </trkpt>
      <trkpt lat="49.26222" lon="1.38565">
        <ele>138.56</ele>
        <time>2014-03-30T10:51:57Z</time>
      </trkpt>
      <trkpt lat="49.26215" lon="1.38582">
        <ele>140.05</ele>
        <time>2014-03-30T10:52:04Z</time>
      </trkpt>
      <trkpt lat="49.26208" lon="1.38598">
        <ele>141.87</ele>
        <time>2014-03-30T10:52:11Z</time>
      </trkpt>
      <trkpt lat="49.26198" lon="1.38613">
        <ele>143.83</ele>
        <time>2014-03-30T10:52:19Z</time>
      </trkpt>
      <trkpt lat="49.2619" lon="1.38628">
        <ele>145.25</ele>
        <time>2014-03-30T10:52:25Z</time>
      </trkpt>
      <trkpt lat="49.26181" lon="1.3865">
        <ele>147.75</ele>
        <time>2014-03-30T10:52:34Z</time>
      </trkpt>
      <trkpt lat="49.26172" lon="1.38671">
        <ele>149.12</ele>
        <time>2014-03-30T10:52:42Z</time>
      </trkpt>
      <trkpt lat="49.26168" lon="1.38691">
        <ele>149.94</ele>
        <time>2014-03-30T10:52:49Z</time>
      </trkpt>
      <trkpt lat="49.2617" lon="1.38716">
        <ele>150.85</ele>
        <time>2014-03-30T10:52:56Z</time>
      </trkpt>
      <trkpt lat="49.26188" lon="1.38759">
        <ele>150.87</ele>
        <time>2014-03-30T10:53:09Z</time>
      </trkpt>
      <trkpt lat="49.26194" lon="1.38783">
        <ele>151.21</ele>
        <time>2014-03-30T10:53:15Z</time>
      </trkpt>
      <trkpt lat="49.26199" lon="1.38794">
        <ele>151.33</ele>
        <time>2014-03-30T10:53:17Z</time>
      </trkpt>
      <trkpt lat="49.26223" lon="1.38812">
        <ele>150.65</ele>
        <time>2014-03-30T10:53:23Z</time>
      </trkpt>
      <trkpt lat="49.26228" lon="1.38813">
        <ele>150.62</ele>
        <time>2014-03-30T10:53:24Z</time>
      </trkpt>
      <trkpt lat="49.26244" lon="1.38813">
        <ele>150.52</ele>
        <time>2014-03-30T10:53:27Z</time>
      </trkpt>
      <trkpt lat="49.26283" lon="1.38837">
        <ele>149.68</ele>
        <time>2014-03-30T10:53:34Z</time>
      </trkpt>
      <trkpt lat="49.26321" lon="1.38898">
        <ele>148.47</ele>
        <time>2014-03-30T10:53:43Z</time>
      </trkpt>
      <trkpt lat="49.26348" lon="1.38939">
        <ele>148.45</ele>
        <time>2014-03-30T10:53:50Z</time>
      </trkpt>
      <trkpt lat="49.26358" lon="1.38957">
        <ele>147.83</ele>
        <time>2014-03-30T10:53:53Z</time>
      </trkpt>
      <trkpt lat="49.26352" lon="1.38977">
        <ele>147.77</ele>
        <time>2014-03-30T10:53:57Z</time>
      </trkpt>
      <trkpt lat="49.2634" lon="1.38987">
        <ele>148.26</ele>
        <time>2014-03-30T10:54:00Z</time>
      </trkpt>
      <trkpt lat="49.26315" lon="1.39004">
        <ele>148.69</ele>
        <time>2014-03-30T10:54:06Z</time>
      </trkpt>
      <trkpt lat="49.26298" lon="1.39013">
        <ele>149.42</ele>
        <time>2014-03-30T10:54:10Z</time>
      </trkpt>
      <trkpt lat="49.26269" lon="1.39026">
        <ele>150.45</ele>
        <time>2014-03-30T10:54:17Z</time>
      </trkpt>
      <trkpt lat="49.2625" lon="1.39041">
        <ele>150.66</ele>
        <time>2014-03-30T10:54:22Z</time>
      </trkpt>
      <trkpt lat="49.26208" lon="1.39089">
        <ele>152.14</ele>
        <time>2014-03-30T10:54:34Z</time>
      </trkpt>
      <trkpt lat="49.26201" lon="1.39098">
        <ele>152.46</ele>
        <time>2014-03-30T10:54:36Z</time>
      </trkpt>
      <trkpt lat="49.26184" lon="1.3912">
        <ele>152.73</ele>
        <time>2014-03-30T10:54:41Z</time>
      </trkpt>
      <trkpt lat="49.2616" lon="1.39149">
        <ele>153.56</ele>
        <time>2014-03-30T10:54:48Z</time>
      </trkpt>
      <trkpt lat="49.2613" lon="1.39187">
        <ele>154.84</ele>
        <time>2014-03-30T10:54:57Z</time>
      </trkpt>
      <trkpt lat="49.26107" lon="1.39221">
        <ele>155.02</ele>
        <time>2014-03-30T10:55:04Z</time>
      </trkpt>
      <trkpt lat="49.26097" lon="1.3924">
        <ele>155.47</ele>
        <time>2014-03-30T10:55:07Z</time>
      </trkpt>
      <trkpt lat="49.26061" lon="1.39292">
        <ele>156.11</ele>
        <time>2014-03-30T10:55:17Z</time>
      </trkpt>
      <trkpt lat="49.26046" lon="1.39311">
        <ele>155.91</ele>
        <time>2014-03-30T10:55:21Z</time>
      </trkpt>
      <trkpt lat="49.26007" lon="1.39373">
        <ele>155.88</ele>
        <time>2014-03-30T10:55:32Z</time>
      </trkpt>
      <trkpt lat="49.25975" lon="1.3943">
        <ele>155.68</ele>
        <time>2014-03-30T10:55:42Z</time>
      </trkpt>
      <trkpt lat="49.25949" lon="1.39475">
        <ele>156.34</ele>
        <time>2014-03-30T10:55:50Z</time>
      </trkpt>
      <trkpt lat="49.25927" lon="1.39489">
        <ele>156.5</ele>
        <time>2014-03-30T10:55:55Z</time>
      </trkpt>
      <trkpt lat="49.25877" lon="1.39484">
        <ele>156.74</ele>
        <time>2014-03-30T10:56:04Z</time>
      </trkpt>
      <trkpt lat="49.25811" lon="1.39482">
        <ele>156.07</ele>
        <time>2014-03-30T10:56:15Z</time>
      </trkpt>
      <trkpt lat="49.25755" lon="1.395">
        <ele>155.13</ele>
        <time>2014-03-30T10:56:25Z</time>
      </trkpt>
      <trkpt lat="49.257" lon="1.39515">
        <ele>155.49</ele>
        <time>2014-03-30T10:56:35Z</time>
      </trkpt>
      <trkpt lat="49.2564" lon="1.39524">
        <ele>155.02</ele>
        <time>2014-03-30T10:56:45Z</time>
      </trkpt>
      <trkpt lat="49.25569" lon="1.39522">
        <ele>155.9</ele>
        <time>2014-03-30T10:56:57Z</time>
      </trkpt>
      <trkpt lat="49.25518" lon="1.39525">
        <ele>156.49</ele>
        <time>2014-03-30T10:57:06Z</time>
      </trkpt>
      <trkpt lat="49.25478" lon="1.3954">
        <ele>156.85</ele>
        <time>2014-03-30T10:57:14Z</time>
      </trkpt>
      <trkpt lat="49.2544" lon="1.39554">
        <ele>157.46</ele>
        <time>2014-03-30T10:57:22Z</time>
      </trkpt>
      <trkpt lat="49.25418" lon="1.39565">
        <ele>158.7</ele>
        <time>2014-03-30T10:57:27Z</time>
      </trkpt>
      <trkpt lat="49.25385" lon="1.3959">
        <ele>157.95</ele>
        <time>2014-03-30T10:57:35Z</time>
      </trkpt>
      <trkpt lat="49.2535" lon="1.39618">
        <ele>158.1</ele>
        <time>2014-03-30T10:57:43Z</time>
      </trkpt>
      <trkpt lat="49.25322" lon="1.39649">
        <ele>157.29</ele>
        <time>2014-03-30T10:57:50Z</time>
      </trkpt>
      <trkpt lat="49.25287" lon="1.39687">
        <ele>157.28</ele>
        <time>2014-03-30T10:57:58Z</time>
      </trkpt>
      <trkpt lat="49.25243" lon="1.39716">
        <ele>158.13</ele>
        <time>2014-03-30T10:58:07Z</time>
      </trkpt>
      <trkpt lat="49.25178" lon="1.39753">
        <ele>157.99</ele>
        <time>2014-03-30T10:58:19Z</time>
      </trkpt>
      <trkpt lat="49.25168" lon="1.3976">
        <ele>157.8</ele>
        <time>2014-03-30T10:58:21Z</time>
      </trkpt>
      <trkpt lat="49.25138" lon="1.398">
        <ele>158.07</ele>
        <time>2014-03-30T10:58:28Z</time>
      </trkpt>
      <trkpt lat="49.25103" lon="1.39842">
        <ele>155.07</ele>
        <time>2014-03-30T10:58:35Z</time>
      </trkpt>
      <trkpt lat="49.25093" lon="1.39858">
        <ele>153.67</ele>
        <time>2014-03-30T10:58:37Z</time>
      </trkpt>
      <trkpt lat="49.25079" lon="1.39885">
        <ele>153.26</ele>
        <time>2014-03-30T10:58:40Z</time>
      </trkpt>
      <trkpt lat="49.25057" lon="1.39903">
        <ele>148.91</ele>
        <time>2014-03-30T10:58:44Z</time>
      </trkpt>
      <trkpt lat="49.25047" lon="1.39884">
        <ele>147.55</ele>
        <time>2014-03-30T10:58:47Z</time>
      </trkpt>
      <trkpt lat="49.25045" lon="1.39876">
        <ele>147.62</ele>
        <time>2014-03-30T10:58:48Z</time>
      </trkpt>
      <trkpt lat="49.25026" lon="1.3979">
        <ele>148.83</ele>
        <time>2014-03-30T10:58:58Z</time>
      </trkpt>
      <trkpt lat="49.2501" lon="1.39723">
        <ele>149.66</ele>
        <time>2014-03-30T10:59:06Z</time>
      </trkpt>
      <trkpt lat="49.24994" lon="1.39633">
        <ele>150.55</ele>
        <time>2014-03-30T10:59:17Z</time>
      </trkpt>
      <trkpt lat="49.24979" lon="1.39557">
        <ele>150.17</ele>
        <time>2014-03-30T10:59:27Z</time>
      </trkpt>
      <trkpt lat="49.24971" lon="1.39504">
        <ele>150.78</ele>
        <time>2014-03-30T10:59:34Z</time>
      </trkpt>
      <trkpt lat="49.24963" lon="1.39448">
        <ele>151.37</ele>
        <time>2014-03-30T10:59:42Z</time>
      </trkpt>
      <trkpt lat="49.2496" lon="1.39428">
        <ele>151.82</ele>
        <time>2014-03-30T10:59:45Z</time>
      </trkpt>
      <trkpt lat="49.24954" lon="1.39402">
        <ele>152.09</ele>
        <time>2014-03-30T10:59:49Z</time>
      </trkpt>
      <trkpt lat="49.24952" lon="1.39389">
        <ele>151.57</ele>
        <time>2014-03-30T10:59:51Z</time>
      </trkpt>
      <trkpt lat="49.24947" lon="1.39371">
        <ele>150.75</ele>
        <time>2014-03-30T10:59:54Z</time>
      </trkpt>
      <trkpt lat="49.24934" lon="1.39355">
        <ele>147.34</ele>
        <time>2014-03-30T11:00:00Z</time>
      </trkpt>
      <trkpt lat="49.24926" lon="1.39354">
        <ele>144.05</ele>
        <time>2014-03-30T11:00:03Z</time>
      </trkpt>
      <trkpt lat="49.24917" lon="1.39363">
        <ele>141.22</ele>
        <time>2014-03-30T11:00:06Z</time>
      </trkpt>
      <trkpt lat="49.24911" lon="1.39368">
        <ele>140.17</ele>
        <time>2014-03-30T11:00:08Z</time>
      </trkpt>
      <trkpt lat="49.24894" lon="1.39385">
        <ele>136.64</ele>
        <time>2014-03-30T11:00:12Z</time>
      </trkpt>
      <trkpt lat="49.24886" lon="1.39392">
        <ele>135.93</ele>
        <time>2014-03-30T11:00:14Z</time>
      </trkpt>
      <trkpt lat="49.2487" lon="1.39396">
        <ele>133.38</ele>
        <time>2014-03-30T11:00:17Z</time>
      </trkpt>
      <trkpt lat="49.24852" lon="1.39407">
        <ele>131.38</ele>
        <time>2014-03-30T11:00:21Z</time>
      </trkpt>
      <trkpt lat="49.24842" lon="1.39414">
        <ele>128.23</ele>
        <time>2014-03-30T11:00:23Z</time>
      </trkpt>
      <trkpt lat="49.24823" lon="1.39442">
        <ele>124.15</ele>
        <time>2014-03-30T11:00:29Z</time>
      </trkpt>
      <trkpt lat="49.2482" lon="1.39447">
        <ele>123.17</ele>
        <time>2014-03-30T11:00:30Z</time>
      </trkpt>
      <trkpt lat="49.2481" lon="1.3946">
        <ele>118.97</ele>
        <time>2014-03-30T11:00:34Z</time>
      </trkpt>
      <trkpt lat="49.24802" lon="1.39465">
        <ele>115.7</ele>
        <time>2014-03-30T11:00:38Z</time>
      </trkpt>
      <trkpt lat="49.24793" lon="1.39477">
        <ele>113.55</ele>
        <time>2014-03-30T11:00:41Z</time>
      </trkpt>
      <trkpt lat="49.24779" lon="1.39495">
        <ele>111.73</ele>
        <time>2014-03-30T11:00:45Z</time>
      </trkpt>
      <trkpt lat="49.24772" lon="1.39503">
        <ele>111.35</ele>
        <time>2014-03-30T11:00:47Z</time>
      </trkpt>
      <trkpt lat="49.24757" lon="1.3953">
        <ele>109.5</ele>
        <time>2014-03-30T11:00:52Z</time>
      </trkpt>
      <trkpt lat="49.24743" lon="1.39545">
        <ele>105.84</ele>
        <time>2014-03-30T11:00:56Z</time>
      </trkpt>
      <trkpt lat="49.24739" lon="1.39547">
        <ele>104.85</ele>
        <time>2014-03-30T11:00:57Z</time>
      </trkpt>
      <trkpt lat="49.24725" lon="1.39555">
        <ele>99.88</ele>
        <time>2014-03-30T11:01:02Z</time>
      </trkpt>
      <trkpt lat="49.24721" lon="1.39558">
        <ele>97.02</ele>
        <time>2014-03-30T11:01:06Z</time>
      </trkpt>
      <trkpt lat="49.24713" lon="1.39564">
        <ele>93.12</ele>
        <time>2014-03-30T11:01:11Z</time>
      </trkpt>
      <trkpt lat="49.24704" lon="1.39571">
        <ele>89.55</ele>
        <time>2014-03-30T11:01:15Z</time>
      </trkpt>
      <trkpt lat="49.24696" lon="1.39582">
        <ele>86.14</ele>
        <time>2014-03-30T11:01:19Z</time>
      </trkpt>
      <trkpt lat="49.2468" lon="1.39596">
        <ele>80.81</ele>
        <time>2014-03-30T11:01:24Z</time>
      </trkpt>
      <trkpt lat="49.24675" lon="1.39604">
        <ele>77.25</ele>
        <time>2014-03-30T11:01:27Z</time>
      </trkpt>
      <trkpt lat="49.24674" lon="1.39604">
        <ele>76.45</ele>
        <time>2014-03-30T11:01:29Z</time>
      </trkpt>
      <trkpt lat="49.24672" lon="1.3961">
        <ele>74.69</ele>
        <time>2014-03-30T11:01:36Z</time>
      </trkpt>
      <trkpt lat="49.24669" lon="1.39616">
        <ele>71.53</ele>
        <time>2014-03-30T11:01:42Z</time>
      </trkpt>
      <trkpt lat="49.2467" lon="1.39624">
        <ele>68.38</ele>
        <time>2014-03-30T11:01:48Z</time>
      </trkpt>
      <trkpt lat="49.24664" lon="1.3964">
        <ele>64.96</ele>
        <time>2014-03-30T11:01:58Z</time>
      </trkpt>
      <trkpt lat="49.24655" lon="1.39661">
        <ele>61.73</ele>
        <time>2014-03-30T11:02:01Z</time>
      </trkpt>
      <trkpt lat="49.24647" lon="1.39684">
        <ele>59.65</ele>
        <time>2014-03-30T11:02:04Z</time>
      </trkpt>
      <trkpt lat="49.2464" lon="1.39708">
        <ele>59.47</ele>
        <time>2014-03-30T11:02:08Z</time>
      </trkpt>
      <trkpt lat="49.24642" lon="1.39717">
        <ele>60.83</ele>
        <time>2014-03-30T11:02:11Z</time>
      </trkpt>
      <trkpt lat="49.24644" lon="1.39722">
        <ele>61.4</ele>
        <time>2014-03-30T11:02:13Z</time>
      </trkpt>
      <trkpt lat="49.24641" lon="1.39735">
        <ele>61.41</ele>
        <time>2014-03-30T11:02:17Z</time>
      </trkpt>
      <trkpt lat="49.24639" lon="1.39753">
        <ele>59.01</ele>
        <time>2014-03-30T11:02:24Z</time>
      </trkpt>
      <trkpt lat="49.24639" lon="1.39763">
        <ele>56.28</ele>
        <time>2014-03-30T11:02:28Z</time>
      </trkpt>
      <trkpt lat="49.24639" lon="1.39766">
        <ele>55</ele>
        <time>2014-03-30T11:02:30Z</time>
      </trkpt>
      <trkpt lat="49.24637" lon="1.39769">
        <ele>52.39</ele>
        <time>2014-03-30T11:02:41Z</time>
      </trkpt>
      <trkpt lat="49.24635" lon="1.39767">
        <ele>51.79</ele>
        <time>2014-03-30T11:02:43Z</time>
      </trkpt>
      <trkpt lat="49.24631" lon="1.39756">
        <ele>49.57</ele>
        <time>2014-03-30T11:02:49Z</time>
      </trkpt>
      <trkpt lat="49.24626" lon="1.39759">
        <ele>48.03</ele>
        <time>2014-03-30T11:02:55Z</time>
      </trkpt>
      <trkpt lat="49.24625" lon="1.39768">
        <ele>44.86</ele>
        <time>2014-03-30T11:03:03Z</time>
      </trkpt>
      <trkpt lat="49.24623" lon="1.39776">
        <ele>42.59</ele>
        <time>2014-03-30T11:03:11Z</time>
      </trkpt>
      <trkpt lat="49.24623" lon="1.39777">
        <ele>42.32</ele>
        <time>2014-03-30T11:03:12Z</time>
      </trkpt>
      <trkpt lat="49.24622" lon="1.39783">
        <ele>41.28</ele>
        <time>2014-03-30T11:03:16Z</time>
      </trkpt>
      <trkpt lat="49.24622" lon="1.39788">
        <ele>38.8</ele>
        <time>2014-03-30T11:03:24Z</time>
      </trkpt>
      <trkpt lat="49.24621" lon="1.39789">
        <ele>38.5</ele>
        <time>2014-03-30T11:03:33Z</time>
      </trkpt>
      <trkpt lat="49.24614" lon="1.3979">
        <ele>35.41</ele>
        <time>2014-03-30T11:03:41Z</time>
      </trkpt>
      <trkpt lat="49.24608" lon="1.39794">
        <ele>31.48</ele>
        <time>2014-03-30T11:03:47Z</time>
      </trkpt>
      <trkpt lat="49.24606" lon="1.39794">
        <ele>30.25</ele>
        <time>2014-03-30T11:03:49Z</time>
      </trkpt>
      <trkpt lat="49.24603" lon="1.39794">
        <ele>28.75</ele>
        <time>2014-03-30T11:03:52Z</time>
      </trkpt>
      <trkpt lat="49.24603" lon="1.39791">
        <ele>28.31</ele>
        <time>2014-03-30T11:03:56Z</time>
      </trkpt>
      <trkpt lat="49.24604" lon="1.39785">
        <ele>28.8</ele>
        <time>2014-03-30T11:04:00Z</time>
      </trkpt>
      <trkpt lat="49.24604" lon="1.39779">
        <ele>28.67</ele>
        <time>2014-03-30T11:04:11Z</time>
      </trkpt>
      <trkpt lat="49.24602" lon="1.39783">
        <ele>28.82</ele>
        <time>2014-03-30T11:04:26Z</time>
      </trkpt>
      <trkpt lat="49.24601" lon="1.39794">
        <ele>29.6</ele>
        <time>2014-03-30T11:04:37Z</time>
      </trkpt>
      <trkpt lat="49.246" lon="1.39794">
        <ele>28.09</ele>
        <time>2014-03-30T11:04:50Z</time>
      </trkpt>
      <trkpt lat="49.24599" lon="1.39794">
        <ele>29.05</ele>
        <time>2014-03-30T11:05:07Z</time>
      </trkpt>
      <trkpt lat="49.24599" lon="1.39793">
        <ele>28.09</ele>
        <time>2014-03-30T11:05:21Z</time>
      </trkpt>
      <trkpt lat="49.24599" lon="1.39794">
        <ele>28.5</ele>
        <time>2014-03-30T11:05:35Z</time>
      </trkpt>
      <trkpt lat="49.24596" lon="1.39792">
        <ele>28.26</ele>
        <time>2014-03-30T11:05:46Z</time>
      </trkpt>
      <trkpt lat="49.24592" lon="1.39791">
        <ele>28.18</ele>
        <time>2014-03-30T11:05:58Z</time>
      </trkpt>
      <trkpt lat="49.24591" lon="1.39791">
        <ele>28.12</ele>
        <time>2014-03-30T11:05:59Z</time>
      </trkpt>
      <trkpt lat="49.24588" lon="1.3978">
        <ele>28.36</ele>
        <time>2014-03-30T11:06:04Z</time>
      </trkpt>
      <trkpt lat="49.24583" lon="1.39748">
        <ele>28.18</ele>
        <time>2014-03-30T11:06:11Z</time>
      </trkpt>
      <trkpt lat="49.24581" lon="1.39714">
        <ele>27.96</ele>
        <time>2014-03-30T11:06:16Z</time>
      </trkpt>
      <trkpt lat="49.2457" lon="1.39691">
        <ele>28.09</ele>
        <time>2014-03-30T11:06:20Z</time>
      </trkpt>
      <trkpt lat="49.24551" lon="1.39696">
        <ele>27.14</ele>
        <time>2014-03-30T11:06:23Z</time>
      </trkpt>
      <trkpt lat="49.24539" lon="1.39707">
        <ele>26.07</ele>
        <time>2014-03-30T11:06:25Z</time>
      </trkpt>
      <trkpt lat="49.24529" lon="1.39719">
        <ele>25.3</ele>
        <time>2014-03-30T11:06:27Z</time>
      </trkpt>
      <trkpt lat="49.24486" lon="1.39769">
        <ele>24.84</ele>
        <time>2014-03-30T11:06:36Z</time>
      </trkpt>
      <trkpt lat="49.24473" lon="1.39791">
        <ele>24.73</ele>
        <time>2014-03-30T11:06:40Z</time>
      </trkpt>
      <trkpt lat="49.24481" lon="1.39805">
        <ele>24.49</ele>
        <time>2014-03-30T11:06:43Z</time>
      </trkpt>
      <trkpt lat="49.2449" lon="1.3981">
        <ele>23.95</ele>
        <time>2014-03-30T11:06:45Z</time>
      </trkpt>
      <trkpt lat="49.24505" lon="1.39829">
        <ele>23.68</ele>
        <time>2014-03-30T11:06:49Z</time>
      </trkpt>
      <trkpt lat="49.2451" lon="1.3985">
        <ele>23.75</ele>
        <time>2014-03-30T11:06:52Z</time>
      </trkpt>
      <trkpt lat="49.24526" lon="1.39879">
        <ele>23.08</ele>
        <time>2014-03-30T11:06:57Z</time>
      </trkpt>
      <trkpt lat="49.24543" lon="1.39892">
        <ele>22.96</ele>
        <time>2014-03-30T11:07:01Z</time>
      </trkpt>
      <trkpt lat="49.24547" lon="1.3992">
        <ele>22.93</ele>
        <time>2014-03-30T11:07:05Z</time>
      </trkpt>
      <trkpt lat="49.24544" lon="1.39928">
        <ele>22.67</ele>
        <time>2014-03-30T11:07:06Z</time>
      </trkpt>
      <trkpt lat="49.24521" lon="1.39992">
        <ele>22.97</ele>
        <time>2014-03-30T11:07:15Z</time>
      </trkpt>
      <trkpt lat="49.24514" lon="1.40018">
        <ele>23.02</ele>
        <time>2014-03-30T11:07:19Z</time>
      </trkpt>
      <trkpt lat="49.24511" lon="1.40049">
        <ele>23.11</ele>
        <time>2014-03-30T11:07:24Z</time>
      </trkpt>
      <trkpt lat="49.24511" lon="1.40061">
        <ele>23.2</ele>
        <time>2014-03-30T11:07:26Z</time>
      </trkpt>
      <trkpt lat="49.24508" lon="1.40098">
        <ele>23.44</ele>
        <time>2014-03-30T11:07:32Z</time>
      </trkpt>
      <trkpt lat="49.24502" lon="1.40157">
        <ele>23.87</ele>
        <time>2014-03-30T11:07:41Z</time>
      </trkpt>
      <trkpt lat="49.245" lon="1.40203">
        <ele>24.14</ele>
        <time>2014-03-30T11:07:48Z</time>
      </trkpt>
      <trkpt lat="49.24499" lon="1.40268">
        <ele>23.94</ele>
        <time>2014-03-30T11:07:58Z</time>
      </trkpt>
      <trkpt lat="49.24498" lon="1.40312">
        <ele>24.57</ele>
        <time>2014-03-30T11:08:05Z</time>
      </trkpt>
      <trkpt lat="49.24497" lon="1.40337">
        <ele>24.81</ele>
        <time>2014-03-30T11:08:09Z</time>
      </trkpt>
      <trkpt lat="49.24496" lon="1.40408">
        <ele>24.92</ele>
        <time>2014-03-30T11:08:20Z</time>
      </trkpt>
      <trkpt lat="49.24497" lon="1.40449">
        <ele>24.86</ele>
        <time>2014-03-30T11:08:27Z</time>
      </trkpt>
      <trkpt lat="49.24498" lon="1.40466">
        <ele>24.59</ele>
        <time>2014-03-30T11:08:30Z</time>
      </trkpt>
      <trkpt lat="49.24498" lon="1.40533">
        <ele>24.9</ele>
        <time>2014-03-30T11:08:40Z</time>
      </trkpt>
      <trkpt lat="49.24498" lon="1.40608">
        <ele>25.07</ele>
        <time>2014-03-30T11:08:51Z</time>
      </trkpt>
      <trkpt lat="49.24496" lon="1.40646">
        <ele>25.37</ele>
        <time>2014-03-30T11:08:58Z</time>
      </trkpt>
      <trkpt lat="49.24499" lon="1.40681">
        <ele>24.87</ele>
        <time>2014-03-30T11:09:05Z</time>
      </trkpt>
      <trkpt lat="49.24499" lon="1.40692">
        <ele>24.99</ele>
        <time>2014-03-30T11:09:07Z</time>
      </trkpt>
      <trkpt lat="49.24499" lon="1.40704">
        <ele>25.14</ele>
        <time>2014-03-30T11:09:09Z</time>
      </trkpt>
      <trkpt lat="49.24496" lon="1.4076">
        <ele>25.59</ele>
        <time>2014-03-30T11:09:17Z</time>
      </trkpt>
      <trkpt lat="49.24497" lon="1.40794">
        <ele>25.7</ele>
        <time>2014-03-30T11:09:22Z</time>
      </trkpt>
      <trkpt lat="49.24497" lon="1.40816">
        <ele>25.94</ele>
        <time>2014-03-30T11:09:25Z</time>
      </trkpt>
      <trkpt lat="49.24505" lon="1.4085">
        <ele>25.76</ele>
        <time>2014-03-30T11:09:30Z</time>
      </trkpt>
      <trkpt lat="49.24511" lon="1.40863">
        <ele>25.77</ele>
        <time>2014-03-30T11:09:32Z</time>
      </trkpt>
      <trkpt lat="49.24532" lon="1.40906">
        <ele>26</ele>
        <time>2014-03-30T11:09:39Z</time>
      </trkpt>
      <trkpt lat="49.24552" lon="1.40953">
        <ele>26.2</ele>
        <time>2014-03-30T11:09:46Z</time>
      </trkpt>
      <trkpt lat="49.24573" lon="1.41002">
        <ele>26.74</ele>
        <time>2014-03-30T11:09:54Z</time>
      </trkpt>
      <trkpt lat="49.24579" lon="1.41013">
        <ele>26.75</ele>
        <time>2014-03-30T11:09:56Z</time>
      </trkpt>
      <trkpt lat="49.24592" lon="1.4107">
        <ele>26.77</ele>
        <time>2014-03-30T11:10:04Z</time>
      </trkpt>
      <trkpt lat="49.24594" lon="1.41082">
        <ele>26.91</ele>
        <time>2014-03-30T11:10:06Z</time>
      </trkpt>
      <trkpt lat="49.246" lon="1.41094">
        <ele>27.11</ele>
        <time>2014-03-30T11:10:08Z</time>
      </trkpt>
      <trkpt lat="49.24626" lon="1.41134">
        <ele>27.2</ele>
        <time>2014-03-30T11:10:15Z</time>
      </trkpt>
      <trkpt lat="49.2464" lon="1.41154">
        <ele>27.24</ele>
        <time>2014-03-30T11:10:19Z</time>
      </trkpt>
      <trkpt lat="49.24663" lon="1.41194">
        <ele>27.48</ele>
        <time>2014-03-30T11:10:26Z</time>
      </trkpt>
      <trkpt lat="49.24673" lon="1.4124">
        <ele>27.88</ele>
        <time>2014-03-30T11:10:33Z</time>
      </trkpt>
      <trkpt lat="49.24672" lon="1.41303">
        <ele>28.04</ele>
        <time>2014-03-30T11:10:41Z</time>
      </trkpt>
      <trkpt lat="49.2467" lon="1.41358">
        <ele>28.35</ele>
        <time>2014-03-30T11:10:49Z</time>
      </trkpt>
      <trkpt lat="49.24667" lon="1.41394">
        <ele>27.73</ele>
        <time>2014-03-30T11:10:55Z</time>
      </trkpt>
      <trkpt lat="49.24659" lon="1.41451">
        <ele>28.37</ele>
        <time>2014-03-30T11:11:03Z</time>
      </trkpt>
      <trkpt lat="49.24658" lon="1.41458">
        <ele>28.5</ele>
        <time>2014-03-30T11:11:04Z</time>
      </trkpt>
      <trkpt lat="49.24647" lon="1.41482">
        <ele>28.21</ele>
        <time>2014-03-30T11:11:10Z</time>
      </trkpt>
      <trkpt lat="49.24623" lon="1.41482">
        <ele>27.92</ele>
        <time>2014-03-30T11:11:16Z</time>
      </trkpt>
      <trkpt lat="49.24626" lon="1.41507">
        <ele>27.88</ele>
        <time>2014-03-30T11:11:21Z</time>
      </trkpt>
      <trkpt lat="49.24628" lon="1.41513">
        <ele>27.96</ele>
        <time>2014-03-30T11:11:22Z</time>
      </trkpt>
      <trkpt lat="49.24632" lon="1.41533">
        <ele>28.36</ele>
        <time>2014-03-30T11:11:25Z</time>
      </trkpt>
      <trkpt lat="49.24638" lon="1.41559">
        <ele>28.08</ele>
        <time>2014-03-30T11:11:29Z</time>
      </trkpt>
      <trkpt lat="49.24642" lon="1.41585">
        <ele>28.28</ele>
        <time>2014-03-30T11:11:33Z</time>
      </trkpt>
      <trkpt lat="49.24648" lon="1.41609">
        <ele>28.56</ele>
        <time>2014-03-30T11:11:37Z</time>
      </trkpt>
      <trkpt lat="49.2466" lon="1.41662">
        <ele>28.71</ele>
        <time>2014-03-30T11:11:45Z</time>
      </trkpt>
      <trkpt lat="49.24671" lon="1.4171">
        <ele>28.12</ele>
        <time>2014-03-30T11:11:52Z</time>
      </trkpt>
      <trkpt lat="49.24678" lon="1.4174">
        <ele>28.39</ele>
        <time>2014-03-30T11:11:58Z</time>
      </trkpt>
      <trkpt lat="49.24683" lon="1.41759">
        <ele>27.58</ele>
        <time>2014-03-30T11:12:03Z</time>
      </trkpt>
      <trkpt lat="49.24685" lon="1.4178">
        <ele>28.01</ele>
        <time>2014-03-30T11:12:06Z</time>
      </trkpt>
      <trkpt lat="49.24684" lon="1.41795">
        <ele>28.43</ele>
        <time>2014-03-30T11:12:08Z</time>
      </trkpt>
      <trkpt lat="49.24688" lon="1.41849">
        <ele>28.28</ele>
        <time>2014-03-30T11:12:15Z</time>
      </trkpt>
      <trkpt lat="49.24688" lon="1.41875">
        <ele>28.42</ele>
        <time>2014-03-30T11:12:20Z</time>
      </trkpt>
      <trkpt lat="49.2469" lon="1.41899">
        <ele>28.29</ele>
        <time>2014-03-30T11:12:26Z</time>
      </trkpt>
      <trkpt lat="49.2469" lon="1.4193">
        <ele>29</ele>
        <time>2014-03-30T11:12:31Z</time>
      </trkpt>
      <trkpt lat="49.24691" lon="1.41943">
        <ele>29.13</ele>
        <time>2014-03-30T11:12:33Z</time>
      </trkpt>
      <trkpt lat="49.24686" lon="1.42005">
        <ele>29.64</ele>
        <time>2014-03-30T11:12:42Z</time>
      </trkpt>
      <trkpt lat="49.24684" lon="1.42041">
        <ele>30.04</ele>
        <time>2014-03-30T11:12:48Z</time>
      </trkpt>
      <trkpt lat="49.24688" lon="1.42055">
        <ele>30.13</ele>
        <time>2014-03-30T11:12:52Z</time>
      </trkpt>
      <trkpt lat="49.24693" lon="1.42073">
        <ele>30.6</ele>
        <time>2014-03-30T11:12:56Z</time>
      </trkpt>
      <trkpt lat="49.24695" lon="1.42092">
        <ele>30.53</ele>
        <time>2014-03-30T11:12:59Z</time>
      </trkpt>
      <trkpt lat="49.24711" lon="1.42128">
        <ele>31.48</ele>
        <time>2014-03-30T11:13:06Z</time>
      </trkpt>
      <trkpt lat="49.24722" lon="1.42162">
        <ele>32.27</ele>
        <time>2014-03-30T11:13:14Z</time>
      </trkpt>
      <trkpt lat="49.24734" lon="1.42184">
        <ele>32.71</ele>
        <time>2014-03-30T11:13:19Z</time>
      </trkpt>
      <trkpt lat="49.24751" lon="1.42195">
        <ele>33.3</ele>
        <time>2014-03-30T11:13:24Z</time>
      </trkpt>
      <trkpt lat="49.24756" lon="1.4222">
        <ele>33.42</ele>
        <time>2014-03-30T11:13:29Z</time>
      </trkpt>
      <trkpt lat="49.24755" lon="1.42232">
        <ele>33.65</ele>
        <time>2014-03-30T11:13:31Z</time>
      </trkpt>
      <trkpt lat="49.24752" lon="1.42269">
        <ele>34.15</ele>
        <time>2014-03-30T11:13:39Z</time>
      </trkpt>
      <trkpt lat="49.24752" lon="1.42288">
        <ele>33.95</ele>
        <time>2014-03-30T11:13:46Z</time>
      </trkpt>
      <trkpt lat="49.24752" lon="1.42288">
        <ele>34.32</ele>
        <time>2014-03-30T11:13:54Z</time>
      </trkpt>
      <trkpt lat="49.24753" lon="1.42287">
        <ele>34.05</ele>
        <time>2014-03-30T11:14:08Z</time>
      </trkpt>
      <trkpt lat="49.24755" lon="1.42284">
        <ele>33.78</ele>
        <time>2014-03-30T11:14:20Z</time>
      </trkpt>
      <trkpt lat="49.24754" lon="1.42281">
        <ele>34.63</ele>
        <time>2014-03-30T11:14:31Z</time>
      </trkpt>
      <trkpt lat="49.24755" lon="1.42277">
        <ele>33.8</ele>
        <time>2014-03-30T11:14:42Z</time>
      </trkpt>
      <trkpt lat="49.24756" lon="1.42246">
        <ele>33.62</ele>
        <time>2014-03-30T11:14:52Z</time>
      </trkpt>
      <trkpt lat="49.24757" lon="1.42237">
        <ele>33.58</ele>
        <time>2014-03-30T11:14:54Z</time>
      </trkpt>
      <trkpt lat="49.24758" lon="1.42217">
        <ele>33.79</ele>
        <time>2014-03-30T11:14:57Z</time>
      </trkpt>
      <trkpt lat="49.24743" lon="1.42187">
        <ele>33.78</ele>
        <time>2014-03-30T11:15:02Z</time>
      </trkpt>
      <trkpt lat="49.24732" lon="1.42185">
        <ele>33.63</ele>
        <time>2014-03-30T11:15:04Z</time>
      </trkpt>
      <trkpt lat="49.24716" lon="1.4219">
        <ele>33.43</ele>
        <time>2014-03-30T11:15:07Z</time>
      </trkpt>
      <trkpt lat="49.24692" lon="1.42207">
        <ele>33.48</ele>
        <time>2014-03-30T11:15:12Z</time>
      </trkpt>
      <trkpt lat="49.24669" lon="1.42229">
        <ele>32.93</ele>
        <time>2014-03-30T11:15:17Z</time>
      </trkpt>
      <trkpt lat="49.24631" lon="1.42245">
        <ele>33.42</ele>
        <time>2014-03-30T11:15:25Z</time>
      </trkpt>
      <trkpt lat="49.246" lon="1.42259">
        <ele>34.48</ele>
        <time>2014-03-30T11:15:33Z</time>
      </trkpt>
      <trkpt lat="49.24564" lon="1.42277">
        <ele>35.95</ele>
        <time>2014-03-30T11:15:42Z</time>
      </trkpt>
      <trkpt lat="49.2454" lon="1.42299">
        <ele>38.25</ele>
        <time>2014-03-30T11:15:49Z</time>
      </trkpt>
      <trkpt lat="49.24541" lon="1.42342">
        <ele>38.95</ele>
        <time>2014-03-30T11:15:56Z</time>
      </trkpt>
      <trkpt lat="49.24544" lon="1.42371">
        <ele>39.98</ele>
        <time>2014-03-30T11:16:01Z</time>
      </trkpt>
      <trkpt lat="49.2455" lon="1.42428">
        <ele>41.05</ele>
        <time>2014-03-30T11:16:10Z</time>
      </trkpt>
      <trkpt lat="49.24557" lon="1.42489">
        <ele>42.49</ele>
        <time>2014-03-30T11:16:20Z</time>
      </trkpt>
      <trkpt lat="49.24559" lon="1.42533">
        <ele>42.96</ele>
        <time>2014-03-30T11:16:27Z</time>
      </trkpt>
      <trkpt lat="49.24551" lon="1.42635">
        <ele>44.08</ele>
        <time>2014-03-30T11:16:42Z</time>
      </trkpt>
      <trkpt lat="49.24545" lon="1.42663">
        <ele>44.64</ele>
        <time>2014-03-30T11:16:47Z</time>
      </trkpt>
      <trkpt lat="49.24525" lon="1.42699">
        <ele>45.36</ele>
        <time>2014-03-30T11:16:55Z</time>
      </trkpt>
      <trkpt lat="49.245" lon="1.42731">
        <ele>47.67</ele>
        <time>2014-03-30T11:17:05Z</time>
      </trkpt>
      <trkpt lat="49.24479" lon="1.42763">
        <ele>50.34</ele>
        <time>2014-03-30T11:17:15Z</time>
      </trkpt>
      <trkpt lat="49.2447" lon="1.42792">
        <ele>51.91</ele>
        <time>2014-03-30T11:17:22Z</time>
      </trkpt>
      <trkpt lat="49.24467" lon="1.42827">
        <ele>53.81</ele>
        <time>2014-03-30T11:17:30Z</time>
      </trkpt>
      <trkpt lat="49.24471" lon="1.42869">
        <ele>55.72</ele>
        <time>2014-03-30T11:17:39Z</time>
      </trkpt>
      <trkpt lat="49.24477" lon="1.42915">
        <ele>58.3</ele>
        <time>2014-03-30T11:17:49Z</time>
      </trkpt>
      <trkpt lat="49.24481" lon="1.42971">
        <ele>61.21</ele>
        <time>2014-03-30T11:18:01Z</time>
      </trkpt>
      <trkpt lat="49.24474" lon="1.43008">
        <ele>63.08</ele>
        <time>2014-03-30T11:18:10Z</time>
      </trkpt>
      <trkpt lat="49.24458" lon="1.43025">
        <ele>64.74</ele>
        <time>2014-03-30T11:18:18Z</time>
      </trkpt>
      <trkpt lat="49.24437" lon="1.43021">
        <ele>66.51</ele>
        <time>2014-03-30T11:18:26Z</time>
      </trkpt>
      <trkpt lat="49.24422" lon="1.42998">
        <ele>68.6</ele>
        <time>2014-03-30T11:18:34Z</time>
      </trkpt>
      <trkpt lat="49.24416" lon="1.42974">
        <ele>70.02</ele>
        <time>2014-03-30T11:18:40Z</time>
      </trkpt>
      <trkpt lat="49.24405" lon="1.42943">
        <ele>71.81</ele>
        <time>2014-03-30T11:18:48Z</time>
      </trkpt>
      <trkpt lat="49.24392" lon="1.42913">
        <ele>73.78</ele>
        <time>2014-03-30T11:18:56Z</time>
      </trkpt>
      <trkpt lat="49.24379" lon="1.42886">
        <ele>75.98</ele>
        <time>2014-03-30T11:19:04Z</time>
      </trkpt>
      <trkpt lat="49.24355" lon="1.42857">
        <ele>78.43</ele>
        <time>2014-03-30T11:19:13Z</time>
      </trkpt>
      <trkpt lat="49.2433" lon="1.42831">
        <ele>80.51</ele>
        <time>2014-03-30T11:19:22Z</time>
      </trkpt>
      <trkpt lat="49.24309" lon="1.42809">
        <ele>82.32</ele>
        <time>2014-03-30T11:19:31Z</time>
      </trkpt>
      <trkpt lat="49.24286" lon="1.42793">
        <ele>84.48</ele>
        <time>2014-03-30T11:19:40Z</time>
      </trkpt>
      <trkpt lat="49.24264" lon="1.42789">
        <ele>85.91</ele>
        <time>2014-03-30T11:19:47Z</time>
      </trkpt>
      <trkpt lat="49.24235" lon="1.42795">
        <ele>88.52</ele>
        <time>2014-03-30T11:19:56Z</time>
      </trkpt>
      <trkpt lat="49.24207" lon="1.42799">
        <ele>90.74</ele>
        <time>2014-03-30T11:20:05Z</time>
      </trkpt>
      <trkpt lat="49.24179" lon="1.42803">
        <ele>92.9</ele>
        <time>2014-03-30T11:20:14Z</time>
      </trkpt>
      <trkpt lat="49.24158" lon="1.42811">
        <ele>94.91</ele>
        <time>2014-03-30T11:20:23Z</time>
      </trkpt>
      <trkpt lat="49.24133" lon="1.42806">
        <ele>96.6</ele>
        <time>2014-03-30T11:20:31Z</time>
      </trkpt>
      <trkpt lat="49.24118" lon="1.42792">
        <ele>97.89</ele>
        <time>2014-03-30T11:20:37Z</time>
      </trkpt>
      <trkpt lat="49.24105" lon="1.42768">
        <ele>99.69</ele>
        <time>2014-03-30T11:20:44Z</time>
      </trkpt>
      <trkpt lat="49.24085" lon="1.42725">
        <ele>102.55</ele>
        <time>2014-03-30T11:20:55Z</time>
      </trkpt>
      <trkpt lat="49.2407" lon="1.42693">
        <ele>104.58</ele>
        <time>2014-03-30T11:21:03Z</time>
      </trkpt>
      <trkpt lat="49.24052" lon="1.42655">
        <ele>107.01</ele>
        <time>2014-03-30T11:21:13Z</time>
      </trkpt>
      <trkpt lat="49.24033" lon="1.42623">
        <ele>109.23</ele>
        <time>2014-03-30T11:21:21Z</time>
      </trkpt>
      <trkpt lat="49.24011" lon="1.42589">
        <ele>111.74</ele>
        <time>2014-03-30T11:21:30Z</time>
      </trkpt>
      <trkpt lat="49.23988" lon="1.42573">
        <ele>113.63</ele>
        <time>2014-03-30T11:21:38Z</time>
      </trkpt>
      <trkpt lat="49.23956" lon="1.42566">
        <ele>116.06</ele>
        <time>2014-03-30T11:21:48Z</time>
      </trkpt>
      <trkpt lat="49.23927" lon="1.4256">
        <ele>117.89</ele>
        <time>2014-03-30T11:21:57Z</time>
      </trkpt>
      <trkpt lat="49.23899" lon="1.42557">
        <ele>120.12</ele>
        <time>2014-03-30T11:22:06Z</time>
      </trkpt>
      <trkpt lat="49.2388" lon="1.42548">
        <ele>121.65</ele>
        <time>2014-03-30T11:22:13Z</time>
      </trkpt>
      <trkpt lat="49.23878" lon="1.42528">
        <ele>122.87</ele>
        <time>2014-03-30T11:22:18Z</time>
      </trkpt>
      <trkpt lat="49.23892" lon="1.42515">
        <ele>124</ele>
        <time>2014-03-30T11:22:23Z</time>
      </trkpt>
      <trkpt lat="49.23926" lon="1.42505">
        <ele>126.38</ele>
        <time>2014-03-30T11:22:32Z</time>
      </trkpt>
      <trkpt lat="49.23964" lon="1.42497">
        <ele>129.29</ele>
        <time>2014-03-30T11:22:43Z</time>
      </trkpt>
      <trkpt lat="49.23996" lon="1.42491">
        <ele>131.57</ele>
        <time>2014-03-30T11:22:53Z</time>
      </trkpt>
      <trkpt lat="49.24012" lon="1.42467">
        <ele>133.38</ele>
        <time>2014-03-30T11:22:59Z</time>
      </trkpt>
      <trkpt lat="49.24007" lon="1.42444">
        <ele>134.25</ele>
        <time>2014-03-30T11:23:03Z</time>
      </trkpt>
      <trkpt lat="49.2399" lon="1.42432">
        <ele>135.04</ele>
        <time>2014-03-30T11:23:08Z</time>
      </trkpt>
      <trkpt lat="49.23958" lon="1.4243">
        <ele>136.88</ele>
        <time>2014-03-30T11:23:17Z</time>
      </trkpt>
      <trkpt lat="49.23928" lon="1.42426">
        <ele>138.74</ele>
        <time>2014-03-30T11:23:26Z</time>
      </trkpt>
      <trkpt lat="49.23901" lon="1.42426">
        <ele>140.83</ele>
        <time>2014-03-30T11:23:35Z</time>
      </trkpt>
      <trkpt lat="49.23871" lon="1.42421">
        <ele>143.31</ele>
        <time>2014-03-30T11:23:43Z</time>
      </trkpt>
      <trkpt lat="49.23841" lon="1.42415">
        <ele>145.53</ele>
        <time>2014-03-30T11:23:51Z</time>
      </trkpt>
      <trkpt lat="49.23816" lon="1.42412">
        <ele>147.42</ele>
        <time>2014-03-30T11:23:58Z</time>
      </trkpt>
      <trkpt lat="49.23775" lon="1.42406">
        <ele>150.5</ele>
        <time>2014-03-30T11:24:09Z</time>
      </trkpt>
      <trkpt lat="49.23749" lon="1.42401">
        <ele>152.16</ele>
        <time>2014-03-30T11:24:17Z</time>
      </trkpt>
      <trkpt lat="49.23756" lon="1.42371">
        <ele>152.74</ele>
        <time>2014-03-30T11:24:23Z</time>
      </trkpt>
      <trkpt lat="49.2376" lon="1.42309">
        <ele>154.87</ele>
        <time>2014-03-30T11:24:32Z</time>
      </trkpt>
      <trkpt lat="49.23758" lon="1.42259">
        <ele>156.09</ele>
        <time>2014-03-30T11:24:40Z</time>
      </trkpt>
      <trkpt lat="49.23755" lon="1.4221">
        <ele>156.94</ele>
        <time>2014-03-30T11:24:48Z</time>
      </trkpt>
      <trkpt lat="49.23754" lon="1.42186">
        <ele>157.23</ele>
        <time>2014-03-30T11:24:52Z</time>
      </trkpt>
      <trkpt lat="49.23751" lon="1.42146">
        <ele>157.78</ele>
        <time>2014-03-30T11:24:58Z</time>
      </trkpt>
      <trkpt lat="49.23748" lon="1.42085">
        <ele>158.57</ele>
        <time>2014-03-30T11:25:06Z</time>
      </trkpt>
      <trkpt lat="49.23749" lon="1.42047">
        <ele>158.9</ele>
        <time>2014-03-30T11:25:11Z</time>
      </trkpt>
      <trkpt lat="49.23751" lon="1.42021">
        <ele>159.15</ele>
        <time>2014-03-30T11:25:14Z</time>
      </trkpt>
      <trkpt lat="49.23751" lon="1.41975">
        <ele>159.49</ele>
        <time>2014-03-30T11:25:19Z</time>
      </trkpt>
      <trkpt lat="49.23739" lon="1.41892">
        <ele>160.54</ele>
        <time>2014-03-30T11:25:28Z</time>
      </trkpt>
      <trkpt lat="49.23726" lon="1.41824">
        <ele>161.13</ele>
        <time>2014-03-30T11:25:36Z</time>
      </trkpt>
      <trkpt lat="49.23716" lon="1.41783">
        <ele>161.4</ele>
        <time>2014-03-30T11:25:41Z</time>
      </trkpt>
      <trkpt lat="49.23702" lon="1.41716">
        <ele>162.3</ele>
        <time>2014-03-30T11:25:49Z</time>
      </trkpt>
      <trkpt lat="49.23699" lon="1.417">
        <ele>162.19</ele>
        <time>2014-03-30T11:25:51Z</time>
      </trkpt>
      <trkpt lat="49.23706" lon="1.41677">
        <ele>161.76</ele>
        <time>2014-03-30T11:25:55Z</time>
      </trkpt>
      <trkpt lat="49.23716" lon="1.41676">
        <ele>161.42</ele>
        <time>2014-03-30T11:25:57Z</time>
      </trkpt>
      <trkpt lat="49.23779" lon="1.41677">
        <ele>160.71</ele>
        <time>2014-03-30T11:26:06Z</time>
      </trkpt>
      <trkpt lat="49.23839" lon="1.41677">
        <ele>159.11</ele>
        <time>2014-03-30T11:26:14Z</time>
      </trkpt>
      <trkpt lat="49.2391" lon="1.41676">
        <ele>156.35</ele>
        <time>2014-03-30T11:26:23Z</time>
      </trkpt>
      <trkpt lat="49.23936" lon="1.41674">
        <ele>154.92</ele>
        <time>2014-03-30T11:26:26Z</time>
      </trkpt>
      <trkpt lat="49.23969" lon="1.41675">
        <ele>152.94</ele>
        <time>2014-03-30T11:26:30Z</time>
      </trkpt>
      <trkpt lat="49.24029" lon="1.41683">
        <ele>150.41</ele>
        <time>2014-03-30T11:26:37Z</time>
      </trkpt>
      <trkpt lat="49.2407" lon="1.41689">
        <ele>146.14</ele>
        <time>2014-03-30T11:26:43Z</time>
      </trkpt>
      <trkpt lat="49.24085" lon="1.41688">
        <ele>145.19</ele>
        <time>2014-03-30T11:26:45Z</time>
      </trkpt>
      <trkpt lat="49.24117" lon="1.41692">
        <ele>142.77</ele>
        <time>2014-03-30T11:26:49Z</time>
      </trkpt>
      <trkpt lat="49.24146" lon="1.4172">
        <ele>138.74</ele>
        <time>2014-03-30T11:26:54Z</time>
      </trkpt>
      <trkpt lat="49.24156" lon="1.41737">
        <ele>135.12</ele>
        <time>2014-03-30T11:26:56Z</time>
      </trkpt>
      <trkpt lat="49.24175" lon="1.41761">
        <ele>131.25</ele>
        <time>2014-03-30T11:26:59Z</time>
      </trkpt>
      <trkpt lat="49.24189" lon="1.4178">
        <ele>127.8</ele>
        <time>2014-03-30T11:27:01Z</time>
      </trkpt>
      <trkpt lat="49.2421" lon="1.41808">
        <ele>124.38</ele>
        <time>2014-03-30T11:27:04Z</time>
      </trkpt>
      <trkpt lat="49.24231" lon="1.41836">
        <ele>121.53</ele>
        <time>2014-03-30T11:27:07Z</time>
      </trkpt>
      <trkpt lat="49.24245" lon="1.41861">
        <ele>118.65</ele>
        <time>2014-03-30T11:27:10Z</time>
      </trkpt>
      <trkpt lat="49.24267" lon="1.41907">
        <ele>114.34</ele>
        <time>2014-03-30T11:27:15Z</time>
      </trkpt>
      <trkpt lat="49.24282" lon="1.41929">
        <ele>111.08</ele>
        <time>2014-03-30T11:27:18Z</time>
      </trkpt>
      <trkpt lat="49.24295" lon="1.41966">
        <ele>106.96</ele>
        <time>2014-03-30T11:27:22Z</time>
      </trkpt>
      <trkpt lat="49.24297" lon="1.41983">
        <ele>104.63</ele>
        <time>2014-03-30T11:27:24Z</time>
      </trkpt>
      <trkpt lat="49.24301" lon="1.42">
        <ele>103.22</ele>
        <time>2014-03-30T11:27:26Z</time>
      </trkpt>
      <trkpt lat="49.2432" lon="1.42048">
        <ele>98.75</ele>
        <time>2014-03-30T11:27:31Z</time>
      </trkpt>
      <trkpt lat="49.24334" lon="1.42081">
        <ele>93.93</ele>
        <time>2014-03-30T11:27:34Z</time>
      </trkpt>
      <trkpt lat="49.24339" lon="1.4209">
        <ele>91.84</ele>
        <time>2014-03-30T11:27:35Z</time>
      </trkpt>
      <trkpt lat="49.24335" lon="1.42117">
        <ele>89.87</ele>
        <time>2014-03-30T11:27:39Z</time>
      </trkpt>
      <trkpt lat="49.2433" lon="1.42124">
        <ele>89.2</ele>
        <time>2014-03-30T11:27:40Z</time>
      </trkpt>
      <trkpt lat="49.24309" lon="1.4215">
        <ele>83.92</ele>
        <time>2014-03-30T11:27:43Z</time>
      </trkpt>
      <trkpt lat="49.24302" lon="1.42159">
        <ele>80.06</ele>
        <time>2014-03-30T11:27:44Z</time>
      </trkpt>
      <trkpt lat="49.24296" lon="1.42168">
        <ele>77.76</ele>
        <time>2014-03-30T11:27:45Z</time>
      </trkpt>
      <trkpt lat="49.2429" lon="1.42198">
        <ele>74.09</ele>
        <time>2014-03-30T11:27:49Z</time>
      </trkpt>
      <trkpt lat="49.24302" lon="1.42223">
        <ele>71.14</ele>
        <time>2014-03-30T11:27:52Z</time>
      </trkpt>
      <trkpt lat="49.24307" lon="1.42232">
        <ele>70.74</ele>
        <time>2014-03-30T11:27:53Z</time>
      </trkpt>
      <trkpt lat="49.24336" lon="1.42281">
        <ele>66.31</ele>
        <time>2014-03-30T11:27:58Z</time>
      </trkpt>
      <trkpt lat="49.2437" lon="1.42314">
        <ele>63.75</ele>
        <time>2014-03-30T11:28:02Z</time>
      </trkpt>
      <trkpt lat="49.24393" lon="1.42328">
        <ele>60.17</ele>
        <time>2014-03-30T11:28:05Z</time>
      </trkpt>
      <trkpt lat="49.24416" lon="1.42328">
        <ele>57.43</ele>
        <time>2014-03-30T11:28:08Z</time>
      </trkpt>
      <trkpt lat="49.24465" lon="1.42343">
        <ele>52.51</ele>
        <time>2014-03-30T11:28:13Z</time>
      </trkpt>
      <trkpt lat="49.24502" lon="1.42345">
        <ele>48.58</ele>
        <time>2014-03-30T11:28:16Z</time>
      </trkpt>
      <trkpt lat="49.24535" lon="1.42356">
        <ele>42.59</ele>
        <time>2014-03-30T11:28:20Z</time>
      </trkpt>
      <trkpt lat="49.2454" lon="1.42359">
        <ele>41.66</ele>
        <time>2014-03-30T11:28:21Z</time>
      </trkpt>
      <trkpt lat="49.24549" lon="1.4235">
        <ele>40.29</ele>
        <time>2014-03-30T11:28:25Z</time>
      </trkpt>
      <trkpt lat="49.24548" lon="1.42331">
        <ele>39.93</ele>
        <time>2014-03-30T11:28:28Z</time>
      </trkpt>
      <trkpt lat="49.24549" lon="1.42299">
        <ele>38.85</ele>
        <time>2014-03-30T11:28:33Z</time>
      </trkpt>
      <trkpt lat="49.24571" lon="1.42286">
        <ele>38.28</ele>
        <time>2014-03-30T11:28:38Z</time>
      </trkpt>
      <trkpt lat="49.24605" lon="1.4227">
        <ele>36.18</ele>
        <time>2014-03-30T11:28:44Z</time>
      </trkpt>
      <trkpt lat="49.24634" lon="1.42254">
        <ele>34.76</ele>
        <time>2014-03-30T11:28:49Z</time>
      </trkpt>
      <trkpt lat="49.24666" lon="1.42239">
        <ele>33.39</ele>
        <time>2014-03-30T11:28:54Z</time>
      </trkpt>
      <trkpt lat="49.24695" lon="1.42215">
        <ele>33.25</ele>
        <time>2014-03-30T11:28:59Z</time>
      </trkpt>
      <trkpt lat="49.24727" lon="1.42192">
        <ele>33.65</ele>
        <time>2014-03-30T11:29:05Z</time>
      </trkpt>
      <trkpt lat="49.24745" lon="1.4219">
        <ele>34.22</ele>
        <time>2014-03-30T11:29:09Z</time>
      </trkpt>
      <trkpt lat="49.24761" lon="1.42207">
        <ele>34.46</ele>
        <time>2014-03-30T11:29:14Z</time>
      </trkpt>
      <trkpt lat="49.24761" lon="1.42214">
        <ele>34.46</ele>
        <time>2014-03-30T11:29:15Z</time>
      </trkpt>
      <trkpt lat="49.24759" lon="1.42248">
        <ele>34.86</ele>
        <time>2014-03-30T11:29:21Z</time>
      </trkpt>
      <trkpt lat="49.24759" lon="1.42266">
        <ele>34.87</ele>
        <time>2014-03-30T11:29:26Z</time>
      </trkpt>
      <trkpt lat="49.24755" lon="1.42282">
        <ele>35.01</ele>
        <time>2014-03-30T11:29:32Z</time>
      </trkpt>
      <trkpt lat="49.24755" lon="1.42285">
        <ele>35.08</ele>
        <time>2014-03-30T11:29:36Z</time>
      </trkpt>
    </trkseg>
  </trk>
</gpx>